GFSGL_925_thetae_003.txt.gz
Theta_e
319 318 318 317 317 319 318 320 320 319 320 321 322 326 328 327 327 327 328 329 329 329 329 328 328 327 326 323 320 316 316 315 314 315 314 317 318 320 318 318 317 319 314
320 319 318 318 316 319 318 320 318 318 320 323 324 325 326 328 328 328 327 328 329 328 327 327 327 326 326 324 320 314 313 313 314 316 316 317 318 317 316 315 318 315 311
318 319 317 318 316 318 318 319 319 317 316 319 322 323 324 324 326 325 324 327 328 328 327 327 325 325 325 323 320 315 314 316 317 316 316 314 313 314 315 314 312 309 307
317 319 317 317 316 316 318 318 319 318 317 316 316 318 319 320 323 323 323 323 323 323 324 325 325 324 323 320 317 316 316 317 318 317 316 314 314 312 314 312 310 308 307
318 320 319 315 316 317 317 318 319 319 318 317 317 317 317 317 317 317 317 318 316 317 317 316 317 317 317 316 316 315 314 318 317 317 317 315 314 312 314 313 312 308 306
319 320 320 315 315 316 317 317 318 318 319 318 318 318 318 319 319 320 320 320 319 317 315 317 320 319 317 317 317 318 315 317 319 318 318 317 317 315 313 313 312 309 309
320 320 319 316 316 316 316 316 317 318 319 318 317 318 319 318 318 318 318 319 319 319 319 319 318 318 317 318 317 316 316 316 318 319 320 318 319 315 313 312 311 311 312
321 320 319 316 316 317 315 315 316 317 318 318 317 318 318 317 317 317 316 316 316 316 315 314 313 313 310 308 310 312 313 314 314 314 315 317 315 315 313 313 312 311 309
321 320 319 316 316 317 317 314 314 315 316 316 316 316 316 315 314 311 309 309 310 309 307 306 304 301 300 302 307 309 309 309 310 311 312 312 310 310 310 309 309 307 308
320 320 319 316 316 317 317 314 313 313 314 314 314 313 312 312 311 310 308 306 306 303 299 298 298 299 300 300 301 301 304 304 301 301 300 300 301 301 302 303 306 305 304
319 320 320 317 316 317 315 315 313 312 312 310 310 310 310 310 310 310 309 307 306 304 304 302 302 300 301 303 304 304 305 304 302 300 300 300 298 298 297 297 299 302 302
320 320 321 319 315 315 315 314 314 313 313 313 313 313 311 309 309 310 310 309 310 312 312 310 307 306 306 306 306 307 306 306 305 304 303 303 302 301 301 301 297 297 301
321 321 321 321 318 315 316 316 316 315 315 315 313 312 311 308 308 308 309 310 311 311 313 311 309 309 309 309 308 307 306 306 306 306 306 306 304 302 301 299 297 299 299
321 322 322 322 320 317 315 316 316 316 315 314 313 313 313 312 309 308 308 308 309 309 309 309 309 309 309 309 308 307 306 307 307 307 306 305 303 302 301 301 300 300 299
321 322 322 321 320 320 317 315 315 316 316 316 315 315 317 317 316 314 312 311 310 310 309 309 309 309 310 310 311 309 308 306 306 305 304 305 304 304 304 303 301 299 300
321 322 322 321 321 320 319 317 314 313 312 313 314 315 317 316 316 316 315 314 315 315 314 313 313 311 311 314 315 315 312 309 307 305 304 304 303 301 301 301 301 301 302
321 321 322 322 322 321 321 319 319 317 314 312 312 313 313 313 314 314 314 315 317 315 313 311 310 311 312 314 314 313 312 308 304 302 300 299 299 300 299 300 300 300 300
320 320 321 321 322 322 322 321 321 321 322 321 318 316 315 315 315 314 314 316 315 314 312 313 314 316 315 312 310 308 305 302 300 299 299 299 299 299 299 299 299 299 299
321 320 321 321 322 322 323 322 322 322 323 324 320 318 318 319 319 317 314 317 318 316 314 313 311 310 308 302 302 301 298 298 298 299 299 299 300 300 300 300 300 298 298
320 320 320 321 322 322 322 323 323 323 324 324 325 318 315 316 315 314 315 315 313 312 310 304 301 300 299 299 299 298 299 299 300 300 300 300 300 300 301 300 300 299 299
321 320 319 321 321 322 322 322 323 323 324 324 319 316 317 317 315 311 309 305 303 300 299 299 299 301 302 302 300 299 298 298 299 298 298 298 299 299 299 299 299 300 300
320 321 319 320 321 321 321 322 323 322 319 315 310 310 309 307 305 304 302 301 304 303 303 302 302 301 300 299 298 297 297 296 296 297 297 298 298 298 298 299 299 298 297
319 320 319 320 321 320 321 320 318 317 314 311 309 309 309 307 306 303 303 302 304 303 299 298 297 298 297 296 296 295 295 295 295 295 296 297 297 297 297 297 296 295 295
319 320 321 320 319 319 318 316 313 312 311 310 309 308 306 304 303 303 300 298 297 297 297 297 296 295 295 294 295 295 295 295 295 295 295 296 296 296 296 296 295 294 294
320 320 319 317 317 315 313 312 311 310 309 307 304 301 300 299 296 297 297 298 297 296 294 294 293 293 293 293 293 294 294 294 294 294 295 295 294 294 294 294 294 294 293
319 317 317 315 314 314 312 310 308 305 304 302 300 299 298 299 297 297 297 296 295 294 293 294 293 293 293 293 294 294 294 294 293 293 293 294 294 294 294 294 294 293 292

GFSGL_925_thetae_006.txt.gz
Theta_e
321 322 323 322 323 324 325 326 327 325 327 327 327 327 327 329 330 332 332 329 329 328 328 327 327 326 326 326 322 321 325 323 324 321 320 322 319 316 315 319 319 314 313
319 321 322 321 323 323 324 326 327 328 327 328 327 327 328 327 327 329 332 331 331 331 330 329 327 328 328 327 326 324 324 323 323 319 319 321 321 322 320 323 320 320 319
318 319 321 321 322 323 323 325 323 325 327 328 327 327 327 327 327 327 329 330 331 331 331 331 330 331 330 329 327 324 321 319 320 318 319 319 321 322 323 321 320 319 317
318 317 319 322 321 323 324 324 323 321 323 325 326 327 328 327 326 329 332 332 331 331 331 330 330 330 330 330 327 322 318 318 318 319 320 320 319 320 320 319 318 316 315
318 318 318 321 320 321 322 324 324 322 321 320 321 322 323 324 324 326 326 326 327 327 327 327 328 328 328 327 319 320 322 320 320 320 319 319 319 319 320 320 319 318 316
319 320 318 317 319 320 322 324 323 323 321 321 321 321 321 319 321 323 324 323 323 323 323 320 318 317 317 318 321 322 323 322 321 321 321 321 321 321 320 320 320 320 318
320 320 318 316 318 320 320 321 324 324 324 321 321 321 322 318 319 321 325 326 325 324 324 324 320 318 319 318 317 317 317 318 322 324 324 322 322 323 322 321 320 320 319
320 320 319 316 316 319 320 321 324 326 325 324 324 323 321 318 317 318 320 324 324 324 324 324 322 322 320 320 320 320 319 318 316 317 323 324 324 324 323 322 321 321 320
320 320 320 316 316 318 319 321 323 324 325 325 323 323 322 318 316 315 316 319 319 319 317 316 317 316 311 308 314 316 317 317 313 313 313 314 316 316 317 319 317 317 317
320 320 319 317 316 317 318 321 322 322 321 320 321 321 321 320 313 310 311 312 315 312 311 308 306 309 301 304 314 315 315 316 313 309 307 307 307 308 307 306 311 312 313
320 319 320 318 316 318 320 320 320 320 318 319 318 319 318 318 313 309 309 311 311 309 308 308 304 301 302 302 306 313 314 314 312 308 310 310 309 308 308 305 306 308 308
320 319 320 320 316 318 321 321 320 318 318 318 317 317 316 317 317 310 309 313 312 313 313 313 313 305 303 303 305 307 307 306 308 311 311 311 310 310 309 308 307 307 306
321 319 321 321 318 318 321 320 319 319 316 316 316 316 315 315 316 310 310 310 312 317 318 317 315 310 308 308 308 308 307 308 309 312 314 314 313 311 309 308 307 306 306
322 321 321 322 319 317 319 320 318 318 317 317 316 317 317 316 315 316 310 310 311 311 311 312 312 311 310 311 312 310 309 310 313 316 315 314 311 311 312 311 311 309 305
322 323 322 322 321 319 317 318 317 318 317 317 317 317 317 317 316 316 316 315 314 312 314 316 315 314 314 315 316 317 317 317 316 316 315 316 316 313 313 310 307 306 307
325 324 324 322 322 320 318 317 317 317 317 317 317 318 318 318 317 316 315 314 314 314 313 318 320 319 319 320 322 323 321 318 317 313 312 311 308 305 304 305 306 306 306
326 324 323 322 322 320 319 317 318 316 316 316 316 317 318 319 317 316 314 314 314 314 317 321 320 319 320 321 321 320 317 311 307 307 305 304 304 304 305 305 305 305 305
326 324 323 323 322 321 320 319 318 317 316 315 313 312 312 312 312 312 313 315 315 314 320 320 321 321 320 317 314 309 307 305 302 302 302 303 304 304 304 304 304 304 303
326 324 323 322 322 322 321 321 320 319 319 316 318 316 317 317 317 316 314 318 323 322 320 320 319 316 309 307 304 304 302 302 303 302 302 303 304 303 303 303 303 302 302
325 325 324 322 322 322 322 322 322 321 321 321 325 325 314 317 318 318 322 324 323 320 317 311 305 304 304 302 301 303 305 302 300 301 301 301 301 301 302 301 302 302 301
325 325 324 323 323 323 323 323 323 322 322 323 323 324 321 324 323 323 319 319 316 311 307 303 304 305 306 306 303 302 301 300 300 299 299 299 300 300 300 301 301 300 299
325 325 323 323 323 323 323 323 324 324 324 325 323 318 321 322 319 314 311 306 304 306 307 305 304 303 300 300 300 300 299 298 298 298 299 299 300 300 300 299 299 298 298
324 324 325 323 323 324 323 324 324 324 326 323 320 317 317 314 311 309 308 307 305 304 302 300 300 299 299 298 296 297 297 297 297 297 298 298 299 298 298 298 298 297 297
324 324 324 324 323 323 324 323 324 325 323 318 317 316 314 312 311 309 307 304 301 298 298 298 298 297 296 296 295 296 296 297 297 297 297 297 297 297 297 297 296 296 295
323 323 324 323 323 324 324 324 324 321 318 317 316 314 312 309 307 302 300 299 299 299 298 296 296 296 296 296 296 295 294 293 293 294 296 296 296 297 296 296 295 295 295
323 324 324 324 323 323 321 319 318 317 316 314 312 307 303 301 298 298 299 299 297 296 296 296 296 296 295 295 294 294 293 293 291 291 295 296 296 295 295 294 294 294 294

GFSGL_925_thetae_009.txt.gz
Theta_e
324 325 324 325 328 328 329 330 329 330 328 331 330 331 331 332 333 333 331 331 329 328 326 325 328 328 327 326 327 327 326 325 326 327 327 326 325 323 319 321 320 313 310
322 323 323 324 326 328 329 330 331 331 328 326 330 331 331 331 331 333 333 331 329 329 328 327 325 325 325 327 327 326 324 323 325 325 326 325 321 319 315 321 321 317 318
320 323 323 323 325 326 327 326 331 331 331 328 328 328 329 331 332 332 331 331 330 329 328 327 326 325 326 327 325 324 326 325 323 323 324 324 322 323 321 324 324 323 323
319 320 323 322 323 326 326 324 326 328 330 331 330 328 327 329 331 333 333 332 331 331 330 329 329 327 328 329 328 326 324 324 324 322 321 322 324 325 325 324 323 322 321
319 319 322 322 322 326 326 325 323 322 324 325 327 329 327 330 332 334 333 333 332 332 331 332 332 331 331 331 329 323 321 321 321 321 321 322 321 323 323 323 322 322 321
319 319 320 321 321 322 325 325 324 323 321 322 323 323 323 324 325 326 328 330 330 328 325 327 328 330 330 319 322 324 322 323 322 321 321 321 323 323 323 322 322 323 323
320 320 318 321 321 321 322 322 323 323 323 323 323 324 324 323 325 324 325 326 326 326 325 323 320 319 320 319 321 322 322 323 324 325 325 323 325 325 324 324 324 324 323
321 321 318 318 321 321 321 322 324 326 323 323 322 323 323 319 324 326 327 327 327 327 326 322 322 325 324 322 321 322 322 319 319 322 327 328 326 325 326 326 326 325 324
321 321 319 316 319 321 322 324 326 327 326 325 324 323 322 318 317 319 322 325 325 325 324 324 324 324 320 320 321 321 321 321 318 316 316 319 322 323 324 323 322 322 322
321 321 320 317 318 320 322 325 326 327 327 324 324 323 323 322 314 314 318 318 321 319 318 316 316 315 307 311 319 319 320 320 318 313 310 310 310 309 310 311 315 314 315
321 321 321 318 318 319 322 324 324 324 323 322 322 322 321 322 312 310 311 316 315 313 311 310 307 306 302 307 316 319 319 318 318 315 315 315 315 314 314 312 310 309 309
321 321 321 320 318 320 321 323 323 322 322 322 321 321 320 319 319 307 310 313 313 314 314 314 311 305 305 305 305 309 311 309 311 312 315 317 317 316 315 314 312 311 311
322 321 321 321 319 320 323 323 322 321 320 320 319 318 317 318 319 309 307 313 312 320 320 318 317 309 307 307 307 307 306 309 312 315 318 320 320 318 315 314 314 313 311
323 321 322 322 319 321 322 323 320 320 319 318 317 318 317 318 318 313 310 311 313 318 318 317 316 313 310 312 313 312 311 312 315 318 319 319 318 318 316 312 310 309 309
325 323 323 323 320 321 321 321 319 319 319 318 318 318 319 319 319 318 314 314 314 314 316 317 317 317 316 317 317 318 319 320 321 321 319 317 313 310 308 307 308 308 308
327 325 323 323 322 320 321 320 319 319 318 319 319 319 319 319 318 318 317 315 315 315 314 321 321 322 322 322 323 325 322 319 316 315 311 309 308 308 306 306 305 305 305
327 326 324 323 323 320 319 320 320 318 318 317 317 317 318 317 316 316 315 315 315 315 317 321 323 324 324 324 325 323 314 310 308 308 305 305 304 304 304 304 304 304 304
328 326 325 324 323 322 321 319 319 319 319 318 317 316 317 317 317 317 315 314 314 314 320 323 325 324 325 323 317 312 309 306 306 304 304 304 302 303 303 303 303 303 303
330 327 325 325 323 323 321 321 319 319 318 318 318 316 316 315 313 312 313 315 319 322 322 324 325 322 317 313 310 308 306 306 305 304 303 304 303 302 302 302 302 302 302
329 329 327 325 325 323 323 322 321 321 321 319 319 318 313 312 312 312 313 316 323 325 324 323 319 314 311 308 308 307 306 303 304 303 302 301 301 302 302 302 302 301 300
329 329 328 326 324 324 324 324 323 322 321 321 321 320 317 316 319 318 320 325 326 324 318 313 311 307 308 308 305 303 302 301 301 300 300 301 301 301 302 301 300 300 299
329 329 328 327 327 325 324 324 324 324 323 322 323 322 321 324 325 326 326 323 320 314 310 310 309 308 303 303 302 300 300 300 300 300 300 301 301 300 300 301 300 299 299
329 329 329 328 327 327 326 324 324 325 325 325 324 322 322 326 325 321 315 312 310 310 309 306 303 301 301 300 299 298 299 299 299 299 299 299 300 299 299 299 298 298 298
328 328 328 328 327 326 326 325 324 324 324 326 326 324 325 322 316 312 311 310 309 306 303 301 300 299 297 297 297 298 299 299 298 298 299 298 298 299 299 298 298 297 297
328 328 328 328 327 326 325 326 325 324 325 326 324 322 318 315 314 312 309 305 302 300 299 298 298 296 296 297 296 295 294 293 292 295 298 298 298 298 297 296 296 296 296
327 328 327 328 327 326 327 327 326 327 323 322 320 317 315 313 311 305 303 300 299 297 297 297 296 297 297 296 294 293 292 291 290 293 297 298 296 296 295 293 294 293 293

GFSGL_925_thetae_012.txt.gz
Theta_e
325 326 326 329 329 330 331 330 329 330 331 331 329 330 332 333 332 332 332 331 330 328 328 327 327 327 327 327 328 327 328 328 328 329 329 330 330 330 328 327 323 316 312
324 325 325 328 329 330 331 331 330 326 330 331 331 331 331 331 332 328 329 328 327 328 328 328 327 327 327 328 328 328 327 326 329 328 327 329 328 325 321 322 322 318 314
323 324 324 327 328 329 327 332 331 328 328 330 331 332 331 331 331 331 330 330 330 327 326 327 327 327 326 327 328 326 326 326 326 328 328 327 323 320 318 321 321 320 318
321 324 323 326 327 327 326 330 330 331 330 327 329 330 332 332 331 330 329 329 330 329 328 328 328 328 327 328 327 324 326 328 326 325 325 322 319 321 318 322 325 325 324
321 323 323 324 327 327 326 325 328 330 330 330 330 330 331 333 332 331 330 330 329 328 328 327 327 327 328 328 326 326 328 324 324 324 325 325 325 326 326 326 325 323 322
320 322 324 323 325 327 327 324 322 323 325 326 325 326 325 331 332 333 332 331 331 331 331 328 327 327 328 328 329 325 323 322 323 323 324 324 322 324 323 324 324 324 326
321 321 323 322 323 326 327 325 325 324 324 324 323 324 324 325 327 330 331 329 328 329 329 330 329 328 322 325 322 320 322 323 325 325 322 321 323 322 323 323 322 324 326
322 320 321 322 322 323 324 325 324 325 325 325 324 323 324 324 325 326 327 327 325 322 323 322 322 322 319 321 323 322 322 322 323 324 326 329 328 327 327 328 326 327 327
322 321 319 321 323 322 324 325 326 326 326 325 325 321 323 325 326 327 328 328 327 326 325 322 326 324 322 321 322 322 321 320 319 320 321 320 321 324 323 324 324 322 322
322 322 319 318 323 323 324 327 328 329 327 326 325 323 319 319 322 322 326 326 324 323 323 323 324 322 319 321 321 321 321 321 316 313 312 313 313 313 312 311 309 311 311
322 322 321 318 320 323 326 328 328 329 328 327 325 324 323 318 315 317 319 320 321 318 316 316 315 313 311 317 320 320 321 319 318 317 316 315 315 315 315 314 312 312 311
323 322 322 319 320 322 326 328 328 327 328 325 325 323 323 324 315 311 313 315 316 315 312 309 307 303 304 314 316 317 316 314 311 313 315 317 320 319 316 314 313 313 313
323 323 323 320 319 322 326 327 327 325 326 323 324 323 322 321 320 308 310 313 314 318 314 313 309 306 306 305 304 304 307 309 314 316 320 321 319 317 316 316 315 313 311
325 324 324 322 320 323 324 326 325 325 324 324 322 321 320 321 320 309 308 312 314 319 317 317 315 309 305 307 310 311 311 311 315 319 320 318 316 313 310 308 308 307 306
325 325 325 324 320 325 324 326 324 323 321 322 320 319 320 320 321 309 306 312 313 319 319 318 315 314 314 314 314 316 318 317 319 319 317 313 310 308 306 306 305 305 304
327 326 326 325 321 324 324 324 323 323 320 321 320 319 320 319 320 318 307 309 312 315 315 319 319 319 320 320 320 320 321 320 317 312 310 308 307 305 304 304 304 304 304
328 327 325 325 324 322 324 324 322 319 319 318 318 318 319 319 319 319 317 313 313 315 314 318 323 323 324 325 322 317 312 310 310 308 305 304 304 303 303 304 304 303 303
328 328 326 324 326 323 323 323 324 321 319 316 318 317 318 318 318 318 316 315 315 315 316 318 321 325 324 321 315 310 309 307 306 306 306 304 304 303 303 302 302 302 302
329 328 327 326 325 325 322 322 322 322 321 320 318 315 317 315 316 316 316 315 315 315 315 318 324 324 319 313 310 309 307 306 306 301 304 303 302 302 302 302 302 301 300
330 329 327 327 325 325 324 323 321 320 322 321 321 317 315 315 314 314 314 316 318 319 320 324 321 316 313 310 309 308 307 302 304 303 301 302 302 302 302 302 301 300 300
333 330 327 327 328 325 326 324 323 322 321 321 320 320 317 316 315 314 313 313 314 316 325 320 315 312 310 309 308 303 303 302 301 301 301 302 301 301 301 301 300 300 299
332 332 328 327 327 326 325 326 325 324 323 322 321 320 319 316 316 316 316 315 317 321 318 313 310 310 309 305 303 302 301 301 301 301 301 301 301 300 300 300 299 299 299
331 332 331 329 328 328 325 325 325 326 324 324 322 319 317 316 317 318 322 322 316 313 311 310 310 307 304 303 302 300 299 299 299 300 300 300 300 299 299 299 299 297 297
331 331 332 331 329 329 328 327 326 325 326 325 323 318 316 321 325 320 314 312 311 310 309 305 303 302 301 300 298 298 298 297 298 299 299 299 299 299 299 298 296 296 295
329 330 331 330 330 328 328 327 326 325 326 324 322 320 325 321 316 313 311 310 308 305 303 302 301 299 297 297 297 297 297 298 298 298 298 298 298 297 296 295 294 294 293
328 328 331 329 331 328 328 328 327 325 326 326 324 326 321 314 313 312 309 305 302 301 300 298 297 296 296 296 294 294 293 291 291 296 298 297 296 295 294 292 292 292 291

GFSGL_925_thetae_015.txt.gz
Theta_e
327 327 329 329 330 330 329 327 330 330 329 330 330 330 330 330 330 328 327 328 330 327 327 327 327 328 328 328 328 329 328 329 328 328 328 328 328 328 326 328 328 326 323
326 325 328 329 330 330 330 328 326 330 330 330 331 330 329 329 329 328 328 327 328 328 328 326 325 327 327 328 328 328 328 328 328 329 330 330 330 330 329 329 328 322 313
325 324 327 329 329 328 330 327 327 330 331 331 331 330 330 330 330 329 328 328 327 327 326 326 325 327 327 328 328 327 328 328 328 328 329 329 329 328 326 327 322 322 319
324 323 327 326 327 327 330 330 328 327 329 330 331 330 330 330 328 327 327 328 326 327 327 327 327 327 327 327 327 326 326 326 328 327 328 327 325 322 320 321 321 321 320
324 323 325 325 327 327 329 330 329 329 329 329 330 331 331 330 330 329 329 328 328 326 327 327 328 328 327 326 326 326 324 326 327 326 326 324 321 319 317 317 320 322 324
323 323 324 324 328 328 323 327 328 329 329 329 331 331 331 330 330 329 329 329 328 327 327 328 328 328 327 327 326 325 328 326 325 325 323 322 320 320 323 321 322 325 323
323 323 322 323 327 326 324 322 325 325 323 324 326 330 331 331 330 330 330 329 329 329 328 327 327 328 328 327 327 327 326 323 322 322 323 323 324 323 324 325 324 324 324
322 323 322 322 326 326 326 325 328 324 323 323 324 324 329 331 331 330 330 330 330 330 328 327 328 328 328 328 327 321 323 324 327 326 323 325 324 323 323 322 325 323 325
321 322 322 321 323 325 326 324 326 326 323 321 322 323 325 326 327 325 323 323 326 328 329 329 328 322 323 323 321 322 322 321 321 322 323 323 324 326 325 324 325 324 319
321 320 321 321 321 322 325 324 324 326 325 323 321 324 325 327 328 327 326 326 326 321 320 323 321 319 320 320 320 320 319 319 318 317 314 311 312 313 314 313 310 310 309
321 320 319 321 322 321 325 324 325 325 327 325 323 320 323 326 323 325 326 325 324 323 324 326 324 321 321 321 322 321 320 320 317 317 315 315 315 315 315 313 311 312 312
321 322 319 319 322 322 326 327 326 329 327 328 326 324 322 318 318 318 318 324 321 320 319 319 318 317 316 319 319 320 319 318 314 313 316 319 317 315 315 313 313 313 310
322 322 319 318 322 323 326 327 327 328 329 326 326 325 324 323 321 313 313 316 318 316 313 311 309 305 313 318 318 317 311 309 313 318 318 315 313 312 311 309 308 307 307
324 323 321 319 322 324 325 326 327 326 326 326 325 323 323 322 320 313 310 313 314 317 311 309 305 303 305 305 305 306 308 310 317 318 313 310 310 310 308 306 306 304 305
324 324 321 319 320 324 325 326 326 324 323 326 322 322 321 322 320 314 308 312 317 316 313 309 304 303 303 306 311 314 313 314 319 315 311 309 307 307 304 303 303 304 303
325 324 321 319 322 323 325 326 325 324 324 322 323 321 320 320 319 316 305 312 314 318 317 315 314 313 311 312 313 315 316 319 315 313 310 308 306 304 304 304 303 302 302
326 325 323 320 323 323 323 324 323 324 323 321 319 321 320 319 318 317 308 308 312 318 318 318 316 317 318 317 318 319 317 313 312 310 307 306 303 303 303 302 302 301 301
326 326 324 322 320 323 323 323 324 321 319 320 319 318 317 319 319 318 316 305 311 313 315 313 319 321 322 322 318 314 310 309 309 307 306 302 303 303 302 302 301 301 300
327 327 324 324 322 321 323 323 324 321 319 319 317 317 317 317 319 319 318 309 310 312 313 313 316 322 322 319 314 312 311 309 307 304 303 303 302 302 302 302 301 299 299
327 327 326 324 325 322 321 322 322 322 320 318 318 317 316 317 315 316 314 313 313 313 314 315 318 321 320 317 312 310 307 305 303 303 302 302 302 301 301 300 300 300 299
329 327 327 325 323 324 322 321 321 320 320 319 319 318 317 317 316 315 314 314 315 315 315 316 319 317 314 311 310 308 304 303 302 301 302 301 300 301 301 300 299 298 299
331 328 326 326 326 323 324 323 321 320 319 320 319 319 319 316 316 315 314 315 316 316 320 319 316 315 312 311 310 305 303 302 301 301 301 299 300 301 300 299 298 298 297
331 330 327 326 326 326 324 323 323 322 320 319 320 319 318 315 315 314 314 314 314 316 318 318 315 312 311 309 306 302 301 301 300 300 300 300 299 299 299 299 297 296 295
332 332 329 327 326 326 325 325 324 324 323 322 320 319 318 316 315 315 315 315 315 316 316 313 311 310 306 302 301 300 300 299 300 299 299 300 299 298 299 297 295 294 294
329 331 331 329 327 326 327 326 325 325 325 324 322 318 315 314 316 316 317 316 314 312 310 308 307 304 302 301 300 298 297 298 299 299 299 298 298 297 296 294 293 292 291
331 328 330 331 329 328 327 327 327 326 326 324 321 317 317 316 315 315 313 310 308 307 306 304 303 302 301 299 299 298 296 296 297 298 298 298 296 295 293 292 291 290 289

GFSGL_925_thetae_021.txt.gz
Theta_e
328 328 329 329 328 327 326 329 327 329 329 329 328 327 328 329 328 327 328 329 329 329 328 328 327 329 328 328 328 328 328 328 328 328 328 329 327 326 326 326 326 325 323
328 327 329 329 328 327 326 329 328 329 329 329 329 328 329 329 328 328 328 328 328 328 327 326 327 328 328 328 328 329 329 328 328 328 328 329 328 327 328 328 327 325 324
325 327 329 329 329 327 327 329 329 329 329 330 329 329 329 328 327 327 326 326 326 326 325 325 326 327 328 328 328 328 328 328 328 328 328 328 328 328 328 328 327 327 325
324 327 328 327 327 329 327 328 329 329 329 329 329 329 328 327 327 327 325 324 324 324 325 326 327 327 328 328 328 327 327 328 328 327 327 327 327 327 327 327 326 326 323
323 326 325 326 328 329 327 328 329 329 330 329 329 328 328 327 327 327 328 325 323 324 325 326 328 327 327 327 327 327 326 328 328 327 326 326 326 327 328 327 327 320 319
323 325 324 325 326 329 328 329 329 329 330 329 327 328 329 328 327 327 326 326 325 323 324 326 326 327 327 327 327 327 327 326 327 326 324 324 324 325 321 326 322 318 318
323 324 324 326 327 327 328 328 328 328 328 330 329 328 328 327 327 326 326 326 326 325 326 326 327 327 327 326 326 326 326 325 326 327 327 326 325 324 319 318 318 316 321
322 324 324 326 326 325 327 326 325 324 327 329 329 329 329 329 328 328 326 326 326 327 327 327 327 327 326 325 326 325 325 326 326 325 324 324 322 320 318 320 321 321 320
321 323 323 326 323 323 324 324 322 323 327 328 329 329 328 329 328 328 328 327 326 327 327 327 327 326 326 326 326 322 326 325 325 323 321 321 321 322 322 322 322 323 318
321 322 322 326 324 325 325 324 322 324 326 328 329 329 329 328 328 329 329 328 327 327 327 327 325 325 326 327 324 324 324 324 325 324 322 324 323 322 321 320 322 320 309
321 321 321 324 326 325 325 323 321 323 323 325 326 327 326 327 329 328 329 327 327 327 327 327 326 327 326 326 322 323 323 322 321 322 318 311 311 312 311 311 311 312 313
321 321 320 321 325 325 325 323 321 320 322 323 323 323 325 326 323 324 326 326 327 327 327 327 326 323 322 322 321 320 319 317 314 313 314 314 313 312 312 312 312 311 308
320 320 320 320 322 324 323 325 324 321 320 321 322 323 322 324 325 325 324 321 320 321 327 325 320 319 319 320 320 319 317 314 315 315 315 316 315 313 311 309 307 305 304
319 319 320 320 321 322 323 323 325 324 322 320 319 321 322 320 319 320 323 323 322 321 322 322 321 319 318 320 320 318 317 315 314 314 315 315 312 309 309 308 305 304 301
318 318 318 319 320 320 322 323 323 324 324 324 323 321 319 319 320 319 318 316 322 320 317 319 320 317 316 317 316 316 315 314 313 315 316 314 310 307 305 304 303 302 300
317 316 316 318 319 321 322 323 323 323 322 323 324 325 324 322 321 319 317 314 314 319 316 313 312 313 313 313 313 310 309 310 314 315 314 312 309 306 304 303 303 300 297
318 317 316 317 319 321 322 322 323 323 323 324 324 325 325 324 323 321 320 318 311 312 315 312 310 307 310 311 309 305 306 309 315 314 312 310 307 304 303 301 299 298 296
319 319 317 317 319 321 321 322 322 322 322 324 324 325 325 324 323 321 320 319 311 310 313 312 308 306 303 305 306 305 309 311 313 312 311 308 305 304 302 300 299 297 296
320 319 318 317 318 320 321 321 322 321 321 321 322 323 323 323 322 321 320 320 316 309 311 312 311 308 305 304 304 306 311 313 314 312 309 306 304 303 301 300 298 297 297
321 321 319 318 318 319 320 320 320 321 320 320 321 322 322 321 321 319 318 318 316 313 308 312 312 311 310 309 309 309 311 314 314 311 308 305 303 302 301 299 298 297 297
322 321 320 318 318 319 319 319 320 320 319 319 320 320 320 320 319 319 318 314 316 316 312 309 313 315 316 316 315 314 314 314 314 311 307 304 303 302 300 298 298 298 297
322 322 320 319 318 319 319 319 319 319 319 319 319 319 320 319 319 318 317 316 316 317 317 315 309 309 312 315 316 316 316 314 312 308 305 303 302 301 299 299 298 297 297
323 322 321 321 320 319 320 320 319 319 319 319 319 319 319 319 318 318 318 317 317 317 317 316 315 311 308 309 312 314 315 316 313 308 303 302 300 299 299 298 298 297 295
324 323 322 321 321 321 319 319 319 320 319 319 319 319 319 319 319 318 318 317 317 316 316 315 315 315 313 309 310 312 314 313 309 307 303 301 300 299 298 298 297 295 294
325 325 323 322 322 321 320 320 319 319 319 319 319 319 319 320 320 319 319 318 316 315 315 314 314 314 313 312 311 312 310 308 306 303 303 301 298 298 297 298 296 294 292
327 326 325 323 323 322 321 320 320 320 320 319 319 319 319 319 319 319 319 318 316 315 315 314 314 313 313 311 311 310 308 304 303 303 300 298 298 298 298 297 294 292 290

GFSGL_925_thetae_024.txt.gz
Theta_e
328 327 328 329 328 326 327 327 328 329 328 328 327 327 327 327 326 325 325 325 325 327 327 328 328 328 328 328 327 327 328 328 328 329 327 326 326 325 324 324 324 323 323
327 327 328 329 328 326 327 328 328 329 329 328 327 326 327 328 327 327 327 326 326 324 326 327 327 328 328 328 327 328 328 328 328 328 328 327 326 325 324 324 325 325 323
326 326 328 328 328 327 328 328 329 329 329 329 328 327 328 329 327 326 328 327 327 326 326 326 327 328 328 328 328 328 328 328 328 328 327 327 326 326 326 327 327 325 324
324 327 328 327 328 327 327 329 329 328 329 329 329 328 328 329 327 326 325 325 325 325 326 326 327 327 327 328 328 328 328 327 327 327 326 326 326 327 327 326 326 327 324
323 326 326 326 328 327 328 328 329 328 328 328 328 328 327 327 325 323 322 323 324 325 326 327 327 327 328 327 327 327 327 327 326 326 325 325 325 326 327 326 324 320 319
323 325 325 327 328 327 328 328 329 329 329 329 328 327 326 326 327 326 324 323 324 325 326 327 327 327 327 327 327 327 327 326 325 325 324 324 325 326 326 327 324 318 318
323 324 324 326 327 328 328 328 329 329 329 327 328 328 327 326 326 326 326 323 324 325 325 326 327 327 327 326 326 326 326 327 327 327 326 325 326 327 322 326 319 316 320
322 324 324 326 325 328 327 325 324 326 328 329 328 328 328 327 326 326 326 326 325 325 326 326 327 326 326 326 326 325 325 325 325 326 327 327 326 323 317 317 317 319 314
322 323 324 326 323 327 325 323 322 327 327 329 328 328 328 327 327 326 326 326 326 326 327 326 327 326 326 326 326 324 324 325 325 323 325 323 320 319 318 320 321 321 317
321 322 323 326 322 324 324 322 322 327 327 328 328 327 328 328 327 327 326 326 327 327 327 326 326 325 325 326 324 324 324 324 323 321 321 322 323 321 320 322 322 322 312
322 321 322 325 322 322 323 322 323 326 327 327 328 328 328 328 328 328 327 326 326 327 326 326 326 325 325 326 322 323 323 324 322 322 323 322 319 319 316 316 318 315 311
321 321 321 324 324 324 323 321 322 324 325 325 325 323 326 328 328 328 327 328 328 327 326 325 325 326 326 325 321 322 323 322 321 320 314 310 310 311 311 312 313 313 312
321 321 321 322 325 324 323 322 320 322 323 321 323 323 323 322 324 326 327 326 327 327 326 326 326 325 322 322 320 320 318 317 314 312 312 311 311 311 310 310 309 309 307
320 320 320 320 323 324 324 323 321 319 320 321 321 322 322 323 323 324 323 322 324 326 327 326 322 319 319 319 320 320 318 314 314 314 314 313 310 308 308 308 307 305 303
319 319 319 319 321 322 323 324 323 322 320 319 321 323 323 321 323 324 324 322 320 320 321 320 318 317 317 318 319 318 314 314 314 314 314 313 309 308 307 307 306 303 298
317 318 318 318 319 320 322 322 323 323 323 321 320 319 322 323 324 322 320 320 322 321 319 320 320 318 317 317 317 314 314 314 314 313 313 313 310 308 306 304 304 302 296
318 316 317 318 318 319 320 321 321 322 323 323 323 323 322 321 320 319 318 316 314 314 319 316 317 318 317 315 316 316 314 313 313 313 313 313 312 307 305 303 301 298 295
318 318 317 317 318 319 319 320 321 321 321 322 322 323 324 324 324 323 321 320 314 311 312 315 315 313 314 314 314 314 312 310 311 312 313 311 309 307 303 302 300 296 295
317 316 316 317 318 319 319 320 320 320 321 321 322 322 323 324 325 324 322 321 319 315 312 310 312 313 311 311 311 312 311 307 307 311 312 311 307 305 302 301 299 296 295
318 318 317 316 317 318 319 320 320 320 320 320 320 321 322 323 322 322 321 320 319 318 318 315 310 311 312 309 306 305 308 306 308 310 311 310 308 305 302 301 299 296 296
319 318 318 317 317 318 319 319 320 320 319 319 319 320 320 321 320 321 321 321 320 318 318 318 317 309 310 311 309 305 303 304 307 310 311 308 304 302 302 301 297 296 296
320 318 317 317 317 317 318 319 319 319 319 319 319 319 319 320 319 318 318 319 319 319 319 318 318 318 314 309 312 311 308 306 306 309 309 307 305 302 301 299 297 297 296
320 319 318 318 318 318 318 318 319 319 319 319 318 318 318 318 318 318 318 317 316 316 318 317 316 316 316 316 312 310 313 314 315 313 310 307 303 302 300 298 297 297 296
321 320 319 319 318 318 318 318 318 319 319 319 318 318 318 318 318 318 318 318 317 317 316 316 316 316 316 316 316 314 310 310 313 312 309 306 301 301 299 298 297 297 296
321 321 320 320 320 318 318 318 319 319 318 319 318 318 318 319 318 318 319 319 318 317 318 317 317 316 315 315 315 314 312 310 310 311 307 305 303 300 298 298 297 297 296
322 322 321 321 320 320 320 318 318 318 319 318 319 319 319 319 319 320 319 319 318 319 319 318 318 317 316 314 313 312 311 310 309 309 306 304 300 298 298 298 298 298 295

GFSGL_925_thetae_027.txt.gz
Theta_e
330 330 330 331 330 328 330 329 331 331 330 330 329 329 329 328 328 328 329 328 328 327 327 328 328 328 328 328 324 327 327 328 329 327 327 326 326 325 324 323 323 322 322
330 329 331 331 329 329 330 330 331 331 330 330 329 329 327 326 326 328 327 328 328 328 327 327 328 328 329 327 330 331 328 327 328 328 326 326 326 324 323 323 323 323 322
328 329 331 330 329 330 331 331 331 331 330 329 329 327 327 326 327 327 327 326 326 327 327 329 328 330 331 328 328 328 329 328 328 327 326 325 324 324 324 324 324 323 323
327 329 330 330 330 329 331 331 331 330 330 330 328 328 327 327 326 325 325 326 327 327 328 329 329 330 330 328 328 328 328 328 328 327 326 325 325 324 325 324 323 323 322
327 329 329 329 330 330 330 331 331 330 330 330 328 327 327 327 326 325 325 325 326 326 327 327 327 327 328 329 328 328 328 327 327 327 326 325 324 325 325 326 325 324 321
327 328 327 329 330 330 330 331 331 330 328 330 328 327 326 326 324 324 324 325 325 326 327 326 326 327 327 327 328 327 327 327 326 326 325 326 326 326 326 325 321 321 322
326 327 327 329 329 329 329 330 331 330 330 328 330 328 326 324 324 323 324 326 327 326 327 326 327 327 326 327 327 327 326 326 326 326 325 325 325 326 326 325 321 322 323
325 325 326 328 329 329 329 327 327 329 329 328 328 327 326 326 326 325 324 325 325 325 326 327 326 326 327 327 326 325 326 326 326 326 326 326 326 326 327 326 321 320 319
325 325 326 327 329 328 327 325 326 329 330 329 327 326 325 325 326 326 326 325 325 326 326 326 326 326 326 325 325 324 324 325 325 327 327 327 327 324 324 319 319 322 320
325 325 325 327 327 327 326 324 327 329 329 329 328 327 327 326 325 325 325 326 325 326 325 326 326 326 325 326 324 325 325 322 323 325 322 322 321 317 318 323 323 324 321
325 324 324 327 326 327 325 324 328 328 328 328 328 327 327 327 326 326 326 327 328 328 327 326 325 325 326 323 324 326 324 322 321 321 320 320 319 318 320 322 323 324 319
324 324 324 327 324 325 325 324 327 328 329 328 327 326 327 327 327 327 326 327 327 327 327 327 326 325 326 323 323 323 324 322 320 320 318 317 317 316 316 319 320 317 314
324 324 324 326 325 326 325 324 326 327 328 326 324 325 325 325 327 327 327 327 327 328 327 326 325 326 325 322 321 322 322 322 320 319 316 314 313 311 311 311 311 312 310
325 325 324 325 326 326 325 324 323 325 325 324 323 323 322 323 325 325 326 326 327 326 325 325 325 325 322 321 320 318 318 319 319 318 316 314 310 310 310 308 307 306 303
325 324 323 323 325 326 326 324 323 323 323 324 324 323 323 322 322 323 323 324 325 325 326 325 322 319 320 319 319 319 318 317 317 317 315 313 311 311 310 309 307 307 306
325 324 323 322 324 325 325 324 323 323 320 319 321 323 324 324 322 322 322 320 319 321 323 323 320 319 319 319 319 318 317 316 317 316 316 314 312 311 310 308 308 307 304
325 324 323 322 322 323 323 324 325 322 322 321 319 319 321 322 323 323 322 322 322 321 321 321 321 320 319 318 318 318 318 317 317 316 315 314 312 312 309 309 308 305 302
325 323 323 321 321 322 322 323 323 323 324 324 322 321 320 319 319 321 321 318 314 315 318 320 319 319 320 319 317 317 317 317 316 315 314 314 313 312 310 309 307 305 300
324 322 322 322 321 321 322 322 322 323 323 322 323 322 323 323 323 322 321 319 318 316 315 315 316 317 316 316 317 316 315 316 315 314 313 313 312 312 311 310 308 303 299
323 321 322 322 322 321 322 322 322 322 323 323 323 322 321 321 320 319 320 318 322 321 319 317 315 314 314 314 313 314 314 313 313 313 312 312 311 311 311 309 306 300 298
322 320 320 322 322 321 321 322 322 323 323 323 323 322 321 320 322 322 321 320 321 322 321 319 317 315 314 312 312 311 311 312 312 312 311 311 310 310 309 308 303 298 296
323 321 319 321 322 322 322 322 322 323 323 323 323 322 321 320 321 321 321 320 320 320 320 320 318 317 316 314 312 311 311 310 310 310 310 310 310 308 307 305 299 297 296
323 322 320 321 322 322 322 323 323 323 323 323 323 323 319 318 320 321 321 321 320 319 319 319 319 318 318 317 316 314 312 311 311 310 309 309 307 306 304 301 298 297 295
324 323 322 322 322 322 322 322 323 323 323 323 323 323 322 319 320 320 321 321 320 319 319 318 317 317 317 317 317 317 316 315 312 311 310 309 308 305 303 301 298 296 296
324 324 323 323 323 322 323 323 323 323 323 323 323 323 323 322 320 320 321 321 320 319 318 318 317 316 315 316 316 316 316 315 314 313 311 310 308 303 302 300 297 296 296
324 324 324 324 324 323 323 323 323 324 323 323 323 323 323 323 322 321 321 320 320 319 318 318 318 317 316 316 315 315 314 313 312 311 310 308 305 302 299 298 296 296 298

GFSGL_925_thetae_030.txt.gz
Theta_e
332 332 333 333 332 332 333 332 333 332 331 329 330 330 330 331 330 331 331 331 331 332 332 333 332 334 332 330 329 329 332 331 331 328 328 327 326 325 325 324 323 322 324
331 331 332 333 332 332 332 332 332 332 331 329 330 330 330 330 331 331 330 330 330 331 331 331 332 332 332 330 332 331 329 328 328 327 327 326 326 325 324 324 322 321 321
328 330 332 333 332 333 333 333 332 333 331 329 330 330 331 330 330 330 330 330 330 329 330 332 330 331 331 332 332 329 329 328 327 326 326 325 325 324 323 323 322 322 321
327 329 331 332 332 332 332 332 332 332 331 330 330 329 329 330 329 329 329 329 328 330 331 331 332 332 332 328 331 330 329 328 326 326 325 324 324 324 323 323 322 323 322
327 328 331 332 332 332 333 332 332 331 331 330 329 329 329 329 329 328 328 329 329 331 331 331 332 332 329 329 331 330 328 328 326 325 325 325 324 323 323 323 323 321 321
327 328 330 332 332 333 333 332 332 331 331 331 330 329 328 328 326 327 328 328 328 329 331 329 330 327 328 328 329 329 328 327 326 326 325 325 325 325 324 322 322 322 323
326 327 330 332 332 333 333 333 332 331 329 331 330 330 328 326 323 325 327 329 328 330 329 327 327 327 327 328 328 328 327 327 326 325 325 326 326 325 325 323 323 322 322
326 325 330 331 330 333 333 333 333 331 327 328 327 326 326 326 323 324 328 330 329 327 327 327 327 326 326 326 327 326 326 326 326 326 325 326 326 326 326 321 323 325 323
326 325 328 330 330 331 330 331 334 334 332 331 330 327 325 324 324 325 328 329 327 327 329 327 326 326 325 325 326 325 326 325 326 325 325 326 326 326 327 324 324 323 322
325 325 326 328 329 329 329 331 334 333 332 332 330 324 325 325 325 326 327 328 328 327 329 327 326 325 325 324 326 326 327 327 326 327 326 326 326 326 326 321 322 324 324
325 324 324 328 328 329 328 332 333 333 332 331 330 328 325 326 325 326 326 326 327 327 327 327 325 325 324 325 326 326 326 327 326 327 326 326 324 322 323 326 324 327 324
325 325 324 329 327 328 328 333 333 333 332 332 331 331 326 325 325 326 327 327 326 326 327 328 326 325 323 325 326 324 325 326 324 323 323 322 322 323 324 325 324 322 321
325 325 324 326 328 327 327 331 333 333 331 330 332 332 331 329 327 326 327 328 328 327 328 329 326 325 323 322 322 321 322 323 324 324 324 324 322 320 317 318 316 314 313
325 326 325 326 328 328 326 326 330 331 330 325 325 331 331 331 329 327 326 327 328 328 327 325 325 325 325 321 321 322 325 324 323 321 318 317 316 316 316 315 314 313 312
326 327 326 325 326 329 328 324 323 327 326 323 322 322 326 330 330 329 329 329 329 328 327 325 326 325 324 323 323 323 323 323 323 322 320 318 317 316 316 315 315 314 313
327 327 327 324 326 326 328 327 324 322 324 324 324 323 321 321 324 326 328 328 329 327 327 328 329 326 324 323 324 324 323 322 322 321 320 318 317 317 316 315 315 315 315
327 326 326 324 324 324 325 327 327 324 323 321 323 323 324 323 320 321 321 323 326 326 328 329 328 324 322 321 322 322 322 322 321 320 320 319 318 317 315 315 315 316 314
327 326 326 324 323 323 322 323 324 324 324 322 319 319 322 323 322 322 322 321 319 320 322 322 322 321 320 319 319 320 320 320 321 320 320 320 318 317 315 316 315 315 313
328 326 325 324 323 323 323 322 322 322 322 322 321 321 319 319 320 322 321 321 321 321 320 320 321 320 321 320 320 319 320 320 321 320 320 320 319 317 316 315 316 314 311
329 326 325 325 324 323 323 323 322 322 322 322 322 323 322 321 319 319 317 319 320 319 318 318 318 318 319 319 318 319 319 319 319 320 320 319 319 317 316 316 315 312 307
329 327 325 325 324 323 322 323 323 322 323 323 322 322 322 321 320 321 323 323 322 321 321 320 319 318 318 318 318 317 317 318 318 318 319 319 318 317 316 315 315 311 305
329 328 325 325 325 324 322 322 323 323 323 323 323 323 322 321 320 319 320 321 321 322 321 321 320 319 318 317 317 316 316 316 316 317 317 317 317 316 315 314 314 310 304
329 329 326 326 326 325 324 322 322 323 323 323 323 323 322 323 322 321 321 321 321 321 321 321 320 320 319 318 317 316 315 315 315 315 316 315 315 315 314 314 312 307 303
329 329 328 326 326 326 325 325 324 323 323 323 323 323 323 324 324 323 322 323 323 324 323 322 321 320 319 319 318 318 317 315 314 314 315 315 315 314 314 312 310 307 304
329 328 328 327 327 326 326 326 326 325 324 324 324 324 324 324 325 324 324 323 324 325 325 324 323 322 321 319 319 318 319 318 318 318 317 316 315 314 312 311 309 305 301
328 329 329 328 328 327 327 327 327 327 327 326 326 326 326 326 326 326 325 325 325 325 325 324 324 323 322 321 320 319 319 318 318 318 317 317 316 314 312 310 307 300 296

GFSGL_925_thetae_033.txt.gz
Theta_e
332 332 333 333 333 333 334 334 334 333 330 331 331 331 331 331 332 333 333 332 331 332 330 331 331 331 332 331 331 329 331 330 332 330 328 326 324 324 324 324 324 324 323
331 331 332 333 332 334 333 334 334 333 330 329 330 330 330 331 332 332 332 332 332 332 333 333 332 333 333 331 330 332 332 331 329 328 327 326 325 324 324 323 323 322 323
330 330 332 333 334 333 333 333 334 333 330 329 330 331 330 330 331 331 331 331 332 331 331 333 331 333 330 330 329 329 328 328 327 327 326 325 324 324 324 323 323 324 320
328 330 332 334 334 333 333 333 333 332 332 330 331 330 330 331 330 330 331 331 330 331 332 332 330 331 329 330 328 328 327 327 326 326 325 325 324 323 322 322 322 320 317
328 330 332 335 334 333 333 333 333 333 332 330 330 331 331 330 330 330 330 329 330 331 333 332 332 332 330 330 329 327 326 326 325 325 325 324 323 323 322 322 321 320 320
329 330 332 333 333 333 333 333 333 333 332 331 330 329 330 330 328 328 330 331 332 332 332 333 330 329 328 329 329 328 326 325 325 325 324 324 324 324 323 323 323 323 323
328 331 332 332 333 333 334 333 332 333 332 331 331 330 331 327 326 328 329 331 331 332 331 332 331 328 329 329 329 327 326 325 325 325 325 325 324 323 323 321 321 323 324
328 330 332 332 333 333 333 334 333 330 331 330 330 331 330 325 325 327 330 331 332 331 330 329 328 328 328 328 327 327 326 326 325 325 325 325 324 324 323 320 319 324 322
327 329 331 331 333 333 334 335 335 333 332 330 328 326 330 325 324 328 330 331 331 330 331 328 326 326 327 327 326 325 326 325 325 325 324 325 325 324 319 320 325 324 321
327 327 330 330 331 332 332 335 335 334 334 332 330 326 325 327 326 328 329 329 331 328 327 326 325 325 325 326 326 325 325 325 325 325 325 325 326 326 321 324 325 324 323
327 326 328 329 330 331 331 334 334 334 333 331 328 324 325 328 325 326 328 330 330 329 328 326 325 324 326 326 327 327 326 326 325 325 327 326 326 326 326 325 323 326 326
327 326 327 329 329 331 332 334 334 333 332 332 330 326 325 325 326 327 327 329 329 329 326 326 325 324 326 327 328 328 328 328 328 328 327 328 328 328 326 325 326 327 325
326 326 327 330 328 329 331 334 334 334 331 334 332 330 329 328 325 326 327 326 328 329 328 327 324 323 326 326 325 327 328 329 328 328 326 324 322 324 325 326 325 323 321
326 327 327 330 328 328 328 332 332 331 327 331 333 332 330 330 329 329 327 327 327 328 327 326 324 323 324 323 323 325 325 323 322 323 323 323 325 324 323 322 320 317 316
326 327 327 328 329 328 326 327 329 330 327 324 331 333 332 331 329 329 330 329 329 330 328 326 325 325 323 323 323 324 325 326 326 325 323 321 320 319 320 318 318 318 317
328 327 327 327 328 331 328 325 322 327 326 323 322 327 329 332 329 328 328 330 330 328 328 328 327 325 325 325 325 325 325 325 325 325 323 321 319 319 319 319 319 319 318
329 328 327 326 327 328 330 329 325 323 325 324 323 323 323 330 329 329 329 329 329 327 329 330 328 325 323 323 323 324 324 324 324 323 323 322 320 319 319 319 319 318 319
329 328 328 325 325 325 328 329 328 325 324 324 323 323 323 321 321 327 328 328 327 327 328 330 328 326 324 322 322 323 323 324 324 323 323 322 321 320 319 318 318 318 319
329 327 327 326 325 325 324 326 328 327 324 320 320 320 322 323 320 320 321 322 325 327 328 328 326 326 324 321 321 322 323 323 323 323 323 322 323 321 320 319 318 318 318
329 327 326 326 325 324 324 324 324 324 324 323 322 321 319 321 320 320 321 322 320 320 319 320 321 322 321 321 320 320 320 322 322 324 323 322 323 323 321 320 318 318 317
329 328 326 326 326 324 324 324 323 323 323 323 323 323 321 319 320 320 322 322 322 322 321 321 320 320 321 322 321 321 322 321 322 322 323 323 322 322 322 321 319 318 318
331 330 327 326 327 325 324 324 324 323 323 323 323 323 322 321 319 319 320 320 320 320 320 321 321 320 320 319 320 321 320 320 321 322 322 322 322 322 321 320 319 318 318
331 332 330 328 327 327 325 324 324 324 323 323 324 323 322 323 323 321 320 322 323 324 323 323 322 322 322 321 320 320 320 320 320 320 321 321 321 321 321 320 319 318 317
332 332 332 330 328 328 327 326 323 323 324 324 324 324 324 324 324 323 321 321 322 322 322 323 323 322 322 322 321 320 319 319 318 318 318 319 320 319 319 319 318 317 316
332 332 332 332 330 329 328 327 326 323 323 323 324 324 324 325 325 325 324 323 324 324 324 324 324 323 322 322 321 321 320 319 318 317 316 317 317 317 318 317 317 316 312
330 331 332 332 331 331 329 329 329 328 326 325 325 325 325 325 325 326 326 326 325 324 325 326 326 326 325 325 323 322 320 319 319 318 317 318 318 317 318 317 317 315 309

GFSGL_925_thetae_036.txt.gz
Theta_e
334 333 332 332 333 333 333 335 334 331 331 332 333 333 332 331 332 332 331 332 329 329 327 329 328 329 332 332 330 329 330 330 329 330 329 327 326 325 325 324 323 325 323
333 332 333 332 333 334 333 335 335 333 331 330 331 330 331 332 332 332 333 332 332 331 328 328 329 329 329 328 329 327 328 330 329 328 326 325 324 323 323 324 324 324 323
332 332 331 334 334 333 333 334 333 333 331 330 330 330 330 331 332 332 331 332 332 330 327 330 329 330 329 329 329 330 330 329 327 326 325 324 324 324 324 324 323 323 324
330 332 334 335 334 333 333 333 333 333 332 330 330 330 330 330 330 331 332 331 329 329 331 329 330 329 328 328 328 328 328 327 326 325 324 324 323 323 323 322 321 321 322
330 335 333 336 333 333 333 332 332 333 332 331 330 331 331 330 331 330 330 330 331 331 331 329 330 328 328 328 327 327 326 326 325 325 324 323 323 323 322 320 319 320 319
331 335 333 335 333 333 333 334 333 332 331 331 331 329 331 329 329 329 331 329 330 331 331 329 329 329 330 327 327 326 325 325 324 324 323 323 323 322 321 319 319 318 319
330 334 333 333 334 333 333 333 333 332 331 329 329 330 330 327 327 327 330 331 331 331 331 331 329 329 330 328 326 326 325 325 324 324 324 323 322 322 320 320 319 320 320
330 333 333 334 334 334 334 334 332 333 331 332 331 331 327 326 327 328 330 331 331 330 330 329 330 328 328 328 326 325 325 325 324 324 323 323 323 322 322 321 321 323 319
330 332 334 334 333 335 334 335 332 332 331 330 330 330 326 326 327 330 331 331 330 330 328 327 328 329 328 327 326 325 325 325 324 324 324 324 324 323 323 321 324 323 321
329 332 331 334 333 333 334 333 334 332 332 328 326 329 327 327 328 329 330 330 328 327 326 326 326 327 326 326 325 325 324 325 325 324 324 324 324 323 321 321 323 322 320
328 331 331 331 334 334 334 332 334 333 331 330 328 326 329 327 328 328 329 330 327 326 325 324 325 326 326 326 325 325 325 325 324 325 324 324 324 319 319 325 326 324 322
327 328 331 331 332 333 334 334 334 334 332 327 326 326 328 327 326 327 329 329 328 326 326 325 325 326 326 326 326 325 325 325 325 326 326 326 326 325 318 322 325 324 326
327 328 331 331 333 332 334 334 335 332 333 330 328 328 327 326 327 326 329 329 329 328 328 325 326 326 327 328 326 326 325 326 327 327 327 327 327 327 326 326 327 326 326
329 330 332 330 332 331 336 334 334 335 334 333 331 330 329 327 326 327 326 328 328 328 326 323 325 325 325 328 328 327 328 328 328 328 328 328 327 328 328 327 327 324 321
330 330 332 331 331 329 332 333 333 329 334 335 333 331 331 330 328 327 327 328 328 327 325 323 323 324 324 326 327 327 327 328 328 327 326 324 325 325 325 325 324 320 317
331 331 330 331 331 329 327 324 326 326 324 335 333 331 331 330 330 328 328 328 329 328 326 326 326 325 324 324 326 325 326 326 326 325 324 324 324 323 323 322 319 318 318
330 330 329 332 331 330 328 327 325 324 324 323 327 332 331 330 328 329 329 329 330 328 329 328 327 326 325 326 324 325 327 325 325 326 324 323 321 320 319 320 319 320 319
329 330 329 329 330 332 331 328 326 327 326 323 323 323 328 330 328 328 329 329 328 327 329 330 329 327 326 325 326 326 326 326 324 326 326 324 322 321 320 321 320 320 320
330 330 329 327 329 328 331 332 329 326 326 327 323 324 328 329 328 328 328 329 329 328 328 330 331 330 326 324 324 324 325 325 326 324 324 325 323 321 321 320 320 319 320
331 330 329 328 327 327 328 330 330 329 325 322 325 323 324 326 326 327 327 329 330 330 329 329 329 329 328 326 324 324 324 325 325 325 324 324 324 324 322 322 321 319 319
331 329 328 329 327 327 326 327 327 328 329 324 322 323 322 322 322 322 322 324 323 322 325 327 328 326 323 324 324 323 322 322 323 324 325 324 324 324 324 323 322 321 319
330 330 328 327 329 327 326 326 326 325 325 327 325 323 321 321 323 323 323 322 321 321 323 322 321 321 320 321 323 323 323 322 321 323 323 324 324 324 324 324 324 323 321
331 331 329 328 327 328 326 326 326 326 325 325 325 323 320 320 320 320 321 322 323 323 322 322 322 323 323 321 320 321 322 323 322 323 323 322 323 323 323 323 323 322 321
332 333 332 329 328 328 329 326 326 326 326 325 325 324 321 322 323 321 320 321 321 322 321 321 320 320 322 323 323 322 321 320 321 321 321 322 323 322 322 322 323 322 321
333 333 334 332 330 328 330 329 327 326 325 325 325 325 323 323 325 325 325 323 321 322 324 325 324 324 323 321 323 324 323 322 321 320 320 320 321 321 321 321 320 321 320
332 334 334 335 333 331 329 331 329 327 326 325 325 326 326 325 325 326 326 325 324 324 323 323 324 324 324 324 323 322 323 323 322 320 319 319 318 319 320 320 319 319 317

GFSGL_925_thetae_039.txt.gz
Theta_e
334 333 332 332 332 332 333 335 331 331 331 331 332 332 330 330 331 330 330 328 326 325 327 327 327 329 331 331 329 329 328 329 329 328 325 327 327 326 323 322 322 321 320
333 332 330 333 334 333 334 334 331 331 330 331 331 331 331 331 331 331 330 329 328 326 326 326 323 327 328 329 329 329 330 328 327 327 326 326 326 324 322 321 321 321 322
333 332 330 333 333 334 334 334 333 331 331 330 330 330 331 332 332 331 331 329 329 328 328 328 328 328 327 328 328 328 328 328 326 326 325 324 324 323 324 323 323 323 323
331 332 332 333 333 332 332 333 333 332 332 330 330 330 330 330 331 331 331 330 327 328 327 328 329 328 327 327 327 329 328 326 326 325 324 324 324 323 323 321 322 322 322
331 332 334 333 332 333 332 332 332 331 331 330 330 330 330 330 331 330 329 331 331 330 327 327 328 327 327 327 326 328 327 325 325 324 324 323 323 323 322 321 319 319 321
334 334 334 333 333 333 332 332 332 331 331 330 330 329 330 329 329 329 329 330 331 330 329 329 328 328 328 327 327 327 326 325 324 324 323 323 322 321 321 320 319 319 318
333 334 335 333 332 333 333 332 332 331 330 329 329 330 329 328 327 329 331 330 331 329 329 329 329 329 327 326 325 325 325 324 324 323 323 322 321 320 320 319 319 318 317
333 334 333 333 332 333 333 332 331 330 329 328 330 329 326 326 326 329 331 330 330 331 329 328 328 328 326 325 325 324 324 323 323 323 323 322 322 322 321 321 319 319 317
333 333 334 334 333 333 333 331 331 331 331 330 330 326 326 326 328 331 331 330 330 329 329 329 328 328 326 325 325 324 324 323 323 323 323 323 323 323 322 319 321 319 317
333 333 333 334 334 334 334 332 332 330 330 329 329 325 327 328 329 330 329 329 327 326 327 328 328 327 326 325 324 324 323 323 323 323 323 323 322 321 320 323 322 320 320
331 333 334 333 334 334 333 333 332 332 329 327 328 327 327 328 328 330 329 327 326 325 324 326 326 326 326 325 325 324 324 324 324 323 322 323 322 321 322 324 322 321 321
329 333 334 333 334 332 333 333 332 331 329 327 327 328 327 327 327 329 329 327 325 325 324 325 325 325 325 325 325 324 324 323 323 323 322 322 323 322 320 324 323 324 321
330 333 333 333 334 332 332 333 333 329 325 325 326 327 327 326 327 329 328 327 326 325 325 326 326 325 325 325 325 325 324 324 324 324 324 323 322 322 320 320 323 325 325
331 331 333 332 333 333 333 334 333 331 327 326 326 326 325 325 326 328 328 328 327 326 326 326 326 325 325 326 325 324 324 325 325 325 325 325 325 324 320 319 325 324 323
331 330 332 331 334 334 334 334 333 332 329 329 328 327 326 326 326 328 328 328 327 325 324 325 324 326 326 324 324 325 325 325 325 325 325 325 326 326 326 327 326 325 323
331 330 331 330 330 334 331 328 327 330 333 331 329 328 327 326 326 327 328 328 327 323 324 323 324 326 325 324 324 326 327 326 326 326 326 327 327 327 328 327 326 326 322
330 331 330 330 328 328 324 324 321 325 333 333 330 329 328 328 327 326 327 328 327 323 323 324 324 324 325 326 327 327 327 326 327 327 327 327 325 325 325 325 324 323 321
329 331 330 330 329 327 327 324 323 322 325 332 331 330 330 328 327 326 327 328 328 326 324 324 325 323 323 326 327 326 324 326 326 325 325 325 324 324 324 323 322 321 319
330 329 328 331 330 329 328 326 325 323 322 324 330 330 329 328 327 327 327 327 328 327 328 328 328 326 324 322 321 322 322 325 325 325 326 324 324 323 322 320 319 319 318
329 329 329 328 329 330 330 328 325 325 325 323 323 325 327 328 328 328 328 328 328 327 327 327 328 329 327 325 324 323 322 324 326 325 324 325 326 324 321 320 319 320 320
328 329 328 328 327 327 328 331 329 325 324 324 323 323 326 327 325 326 326 327 328 328 328 328 327 328 329 328 325 324 324 324 324 324 325 323 324 324 323 321 321 320 320
329 329 328 328 326 326 325 328 330 328 324 322 324 323 324 327 326 325 326 326 327 329 329 329 328 327 327 328 325 325 324 324 323 324 325 325 325 323 324 324 323 322 321
330 328 328 327 327 327 326 325 326 327 327 324 321 323 323 323 322 322 322 322 322 322 326 326 324 324 322 321 322 321 323 324 323 321 321 322 324 324 324 323 323 324 323
329 329 328 327 327 326 326 325 325 326 325 325 325 321 322 321 321 322 322 322 321 320 318 316 318 321 323 322 321 321 320 320 321 323 322 322 321 323 324 324 323 323 323
331 329 329 327 327 326 325 326 325 325 325 325 324 323 321 321 320 320 321 321 321 321 320 319 318 317 316 320 322 322 323 323 321 320 320 322 322 322 322 322 323 323 323
331 332 332 330 327 327 326 325 326 325 324 324 325 324 323 321 321 321 321 320 320 320 320 320 320 319 320 320 320 319 319 321 323 323 321 320 321 321 321 322 322 322 322

GFSGL_925_thetae_042.txt.gz
Theta_e
334 333 333 332 333 332 332 333 332 332 331 331 331 331 330 331 330 329 329 328 328 328 327 327 328 328 329 327 326 327 327 328 326 327 328 327 327 326 327 323 325 325 324
333 332 333 333 332 332 334 333 330 331 330 331 331 330 330 330 331 329 329 327 326 327 326 325 324 328 328 329 328 328 328 328 327 326 326 325 324 323 320 319 318 318 318
333 332 332 333 333 332 333 333 330 331 330 331 330 331 331 331 331 331 330 328 327 327 328 327 326 328 328 328 328 327 328 327 325 326 326 324 322 322 321 319 319 319 320
332 331 332 332 332 333 333 332 331 331 331 330 330 330 330 331 331 330 329 328 327 327 327 327 328 327 327 328 328 327 327 326 324 324 324 324 322 323 322 321 321 320 319
332 332 332 332 332 332 332 332 333 331 331 330 330 330 331 331 330 330 329 328 327 327 328 328 328 327 325 325 328 327 326 325 323 324 324 324 323 322 322 320 319 319 321
331 332 332 332 332 331 332 332 331 330 330 330 330 330 330 329 329 329 330 331 330 328 327 328 327 327 327 327 327 327 326 325 324 324 323 323 322 321 320 320 319 319 317
332 333 333 332 332 332 331 332 331 330 330 329 329 329 328 328 328 330 330 330 329 329 328 328 328 327 327 326 327 326 325 324 324 323 323 322 321 320 320 319 319 318 318
333 334 333 332 332 332 332 332 331 330 329 329 329 328 327 326 327 329 330 330 329 330 328 328 327 326 325 325 324 325 324 324 323 323 323 322 322 320 320 320 318 318 317
333 334 333 332 332 333 332 331 330 329 328 329 328 326 325 326 328 330 330 330 330 329 328 328 327 325 324 324 324 323 323 323 323 323 322 323 321 321 321 319 317 316 315
332 332 332 332 332 332 332 331 330 330 330 330 326 325 326 328 330 330 330 329 328 329 328 327 327 325 324 324 323 323 322 322 322 322 321 322 322 321 320 320 319 316 316
332 332 333 333 333 333 332 331 330 330 329 328 325 326 327 328 329 329 329 327 326 326 327 327 326 325 325 324 323 323 322 323 322 322 321 321 321 321 320 320 319 316 317
332 332 333 333 333 333 333 332 331 329 328 327 326 326 327 327 329 329 328 326 325 324 326 326 326 325 324 324 324 323 323 323 322 321 321 321 321 320 322 323 320 317 318
331 332 333 333 334 332 332 332 331 329 326 327 326 325 325 326 329 329 326 325 324 325 325 326 325 324 325 324 324 323 323 322 322 322 322 321 321 321 323 322 322 322 323
332 333 332 333 332 332 332 332 330 328 326 325 327 325 325 325 328 327 326 326 324 325 325 325 324 324 325 325 324 323 324 323 323 322 322 322 322 321 321 321 323 324 324
332 332 332 333 332 332 332 332 331 328 326 325 326 326 324 324 327 328 327 326 325 325 325 324 324 324 324 323 323 323 324 324 323 323 322 323 323 323 322 320 320 322 323
329 330 331 331 332 332 333 332 332 331 328 325 325 325 325 325 326 328 328 327 325 325 324 322 323 323 323 323 323 324 324 324 324 324 324 324 324 324 322 320 319 322 324
329 330 329 330 332 331 331 331 328 327 331 328 328 326 326 325 326 327 328 327 324 324 324 322 324 323 321 322 323 324 324 324 324 324 325 325 325 325 326 326 325 325 325
328 330 329 329 331 331 330 328 327 326 328 330 329 328 326 326 326 327 327 326 322 323 323 323 325 325 324 324 323 324 325 325 325 325 325 325 325 326 326 325 325 325 324
328 328 329 328 327 329 327 324 323 328 330 331 329 329 327 326 326 327 327 326 324 323 322 323 323 325 326 325 324 325 326 327 327 326 326 326 325 325 325 323 323 323 323
328 328 328 328 327 326 326 324 322 323 328 328 328 329 329 327 326 326 326 327 326 325 324 323 323 324 322 325 326 327 327 327 325 324 325 325 324 324 323 322 322 321 321
327 328 328 328 328 327 326 325 323 323 322 327 328 330 330 328 326 325 325 326 326 327 328 326 325 326 326 325 321 322 325 324 323 323 325 325 324 323 323 322 322 321 320
327 326 326 327 328 327 327 328 325 324 323 322 322 327 330 328 326 325 325 325 326 327 328 329 327 327 328 328 328 325 324 322 320 320 320 323 324 323 323 323 322 321 320
327 326 326 326 325 327 327 327 328 325 323 324 323 322 322 323 325 325 325 326 326 327 328 328 328 328 328 327 327 328 328 326 326 324 323 323 323 323 323 322 322 321 319
327 327 326 326 326 324 324 324 324 327 326 324 323 323 323 322 323 324 325 325 325 325 324 325 326 327 327 327 326 327 326 326 326 324 324 323 323 323 323 323 322 322 321
329 328 327 326 326 325 325 323 323 324 324 325 324 322 323 323 322 323 323 323 323 322 322 321 321 320 319 323 324 323 321 320 320 320 319 320 322 322 321 321 322 322 321
332 331 329 327 327 326 325 324 324 324 323 322 322 324 323 323 323 322 322 322 321 321 321 321 321 320 319 318 317 317 318 320 322 322 322 321 320 320 320 321 321 321 321

GFSGL_925_thetae_045.txt.gz
Theta_e
333 332 332 334 333 332 331 332 331 330 330 330 330 329 330 330 329 329 328 328 328 328 328 328 328 327 326 326 326 326 326 327 328 327 327 326 326 326 329 327 330 326 329
332 331 332 332 332 331 332 332 331 331 331 330 330 330 330 329 329 330 329 327 327 327 327 325 325 328 328 328 325 326 327 327 327 326 324 322 321 324 323 322 321 322 322
332 331 332 331 331 332 333 332 329 330 330 331 331 330 330 330 330 330 329 327 326 327 326 325 325 326 328 328 327 326 327 326 326 326 324 321 320 319 318 318 318 317 315
332 332 332 332 332 332 332 332 330 330 330 330 329 330 330 331 331 330 329 328 328 327 327 327 327 327 328 327 326 326 325 325 325 325 323 322 321 319 319 318 318 315 316
331 331 331 332 332 332 332 332 331 330 331 331 330 330 330 330 330 330 329 327 327 327 328 327 327 326 326 327 326 325 324 324 324 324 323 322 321 321 320 320 318 317 318
331 331 331 331 332 331 332 332 331 330 330 330 330 330 330 330 329 328 328 328 327 326 328 328 327 326 326 326 327 326 325 324 324 324 323 323 322 321 319 318 318 318 315
332 331 332 331 331 331 331 331 330 330 330 329 329 329 329 328 328 328 329 330 329 327 328 327 327 327 327 327 326 326 324 324 324 323 323 322 321 320 319 319 319 319 318
332 332 332 331 331 330 331 330 329 329 329 329 328 328 327 327 328 329 330 329 328 328 327 327 327 326 326 326 326 326 325 324 324 323 323 321 321 320 320 320 319 318 317
332 332 331 331 331 331 331 330 329 329 328 328 328 327 326 326 327 328 330 329 329 328 328 326 326 325 325 324 324 323 323 323 323 323 322 321 321 321 321 320 318 316 315
332 332 332 332 331 332 331 330 329 328 328 328 326 326 325 326 328 330 330 330 328 328 327 326 325 324 324 324 323 322 320 321 322 322 321 321 321 322 321 320 319 316 315
332 333 332 332 331 332 331 330 329 329 329 327 325 325 326 327 329 330 329 328 328 328 326 325 324 324 323 323 323 322 321 322 321 320 320 320 321 320 319 319 319 318 316
331 332 331 331 331 332 331 330 330 329 328 325 325 325 326 327 329 329 328 326 326 326 326 325 324 323 323 323 323 322 321 321 320 320 320 319 320 320 320 320 318 318 317
331 331 332 332 332 332 331 330 328 328 327 324 323 323 325 327 328 328 326 325 324 325 326 326 324 324 323 323 322 322 322 321 321 321 321 320 321 320 320 321 319 317 316
331 331 332 332 333 332 331 330 328 326 325 326 325 325 325 325 327 327 325 324 324 325 325 325 324 324 324 323 322 322 322 322 322 322 322 321 320 321 322 322 321 319 319
330 331 332 332 333 331 331 330 329 328 327 326 326 325 324 324 326 326 325 324 325 325 324 323 323 324 323 321 322 323 322 322 322 322 322 321 320 320 321 322 322 323 322
330 330 331 331 332 331 330 329 330 329 327 326 325 325 325 326 327 327 325 324 325 324 324 322 322 322 322 322 323 323 323 322 322 322 322 321 321 321 320 320 320 321 322
330 330 330 331 331 330 330 329 328 329 329 325 325 325 325 325 325 327 327 325 325 324 323 323 323 323 323 323 323 323 322 323 323 323 322 323 323 323 322 322 321 320 319
330 331 330 331 330 329 330 330 330 327 324 328 326 327 325 325 325 327 327 325 323 323 323 323 323 323 323 323 323 322 323 323 323 323 323 323 324 323 323 323 323 323 322
329 329 329 330 330 330 330 330 330 328 325 328 328 327 326 325 324 326 326 326 322 322 323 322 324 322 322 321 322 323 323 324 324 324 324 324 324 324 324 324 324 324 323
327 329 329 328 328 328 329 329 326 323 328 329 329 328 327 325 324 325 325 325 325 323 322 322 323 325 324 325 324 323 324 324 324 324 324 324 324 324 324 323 324 324 323
326 328 328 327 326 327 327 326 324 323 327 329 330 329 328 326 325 325 325 325 325 325 324 322 322 322 323 325 324 323 323 324 324 325 325 325 325 324 324 324 323 323 323
327 326 327 327 326 325 325 325 324 323 322 326 328 329 329 328 326 325 325 326 326 326 326 326 324 323 322 322 322 323 325 326 326 326 326 325 324 323 324 323 322 322 321
326 326 326 326 326 326 325 325 324 324 323 323 324 327 328 327 327 327 326 325 325 325 326 327 327 327 326 323 324 325 326 326 325 323 322 322 322 321 322 322 322 321 320
327 326 325 325 326 326 325 326 326 325 324 324 323 322 323 324 327 328 328 327 326 325 324 325 325 325 326 327 327 326 327 327 327 328 328 326 324 322 321 320 320 321 321
326 326 326 325 325 324 325 325 325 327 327 325 324 324 324 324 322 323 325 326 326 326 325 325 325 325 325 324 325 325 326 327 327 326 326 326 324 324 322 321 321 321 320
320 325 325 325 325 324 323 323 323 323 323 324 325 325 324 324 324 324 323 323 323 323 323 323 323 323 323 322 321 320 319 318 319 322 324 325 322 321 320 320 320 320 320

GFSGL_925_thetae_048.txt.gz
Theta_e
332 332 332 332 332 332 331 331 331 330 329 329 329 328 328 328 328 328 328 328 328 328 328 328 328 328 327 327 326 326 324 326 327 326 324 325 327 328 331 330 332 333 332
332 332 332 332 332 331 331 331 331 329 329 329 329 329 329 329 329 329 328 328 327 327 327 327 327 327 326 326 324 325 326 326 327 324 322 321 321 323 324 324 323 327 325
330 330 332 332 330 330 332 331 330 330 330 330 329 329 329 329 329 329 328 328 326 326 326 324 325 325 327 327 325 325 326 327 326 323 321 320 319 322 321 320 318 318 320
330 330 330 330 330 331 332 329 329 329 329 330 329 329 330 330 330 330 329 328 327 327 327 327 326 325 326 326 325 325 326 325 324 322 320 319 318 318 317 317 317 316 315
330 331 330 330 331 331 331 331 330 329 329 330 329 330 329 330 329 329 328 327 327 327 327 327 327 327 326 326 325 325 325 325 323 322 321 319 319 318 317 316 316 316 316
331 330 330 331 331 331 331 330 330 329 330 330 330 330 329 329 329 328 328 327 327 327 327 327 327 325 326 326 326 325 326 325 324 322 321 320 320 320 318 317 316 316 314
330 330 330 330 331 331 331 331 330 329 330 329 330 329 329 328 328 328 329 329 328 327 328 327 327 327 326 326 325 324 324 324 324 323 321 321 320 319 318 318 319 318 316
330 330 330 330 330 330 331 330 329 328 329 328 329 328 327 327 328 329 329 329 328 327 327 327 326 324 326 326 325 324 324 324 323 323 321 321 320 319 319 319 319 318 316
330 330 331 330 330 330 330 329 328 328 328 327 327 327 327 327 327 328 329 328 327 327 327 326 326 325 325 326 325 323 323 323 323 323 322 321 320 319 320 320 319 317 315
331 331 331 330 330 330 330 329 328 327 328 327 326 325 325 326 327 329 329 329 327 326 326 325 324 324 324 325 324 323 321 322 322 322 321 321 320 320 320 320 319 317 315
331 331 331 331 330 330 330 329 328 327 327 326 325 324 326 326 329 329 329 328 327 326 325 324 323 323 322 323 324 323 322 322 322 320 319 319 320 320 320 321 320 319 316
331 331 332 331 331 331 330 329 328 328 327 325 323 324 325 326 328 328 328 327 327 326 325 324 323 323 322 322 322 322 322 321 320 319 319 319 319 320 320 320 320 319 318
330 331 331 331 330 331 330 328 327 327 325 323 322 323 324 326 328 327 326 325 325 326 326 324 323 322 323 323 322 322 321 320 320 320 320 320 320 321 320 319 318 317 317
330 331 330 330 330 330 330 328 326 326 325 323 322 322 323 324 325 326 324 324 324 325 325 324 323 323 322 321 321 321 321 321 321 321 321 320 321 320 320 320 318 317 316
330 330 330 331 331 330 329 327 326 327 327 325 324 324 324 323 325 325 324 324 324 325 324 322 322 321 320 320 321 321 321 321 321 321 321 321 320 320 320 320 320 318 319
329 329 330 330 330 330 328 326 327 328 327 326 326 325 324 325 326 325 324 324 325 324 323 322 321 321 321 322 322 321 320 321 321 322 322 321 320 320 321 321 321 321 321
329 329 330 330 330 329 328 326 325 327 327 325 324 325 325 325 326 326 324 324 324 323 323 323 322 322 321 322 322 322 321 322 322 322 321 321 320 320 321 321 321 321 320
327 329 330 330 330 330 328 328 328 328 326 325 324 324 324 324 324 327 325 323 323 324 323 323 323 323 322 323 323 323 322 321 322 322 322 322 321 321 319 320 320 320 320
327 329 330 330 330 330 329 328 328 327 325 327 325 326 325 324 324 325 326 324 322 322 322 323 323 323 323 323 323 322 321 321 322 322 322 322 322 322 322 321 321 321 321
327 327 329 330 330 330 328 328 327 325 325 325 326 326 325 324 323 323 324 324 323 323 323 322 323 322 322 322 322 321 320 320 322 322 322 322 322 322 323 323 323 323 322
326 327 329 328 329 329 328 328 327 326 325 326 328 327 327 325 323 322 324 324 325 324 323 322 322 323 323 322 322 323 323 324 323 323 322 323 323 323 323 323 323 323 323
325 326 327 327 327 327 328 328 327 326 324 326 327 327 327 326 325 324 324 325 326 326 325 324 323 321 321 323 324 323 323 323 323 324 324 323 323 323 323 322 322 322 322
325 325 326 326 326 326 326 326 326 325 324 324 325 326 327 327 326 325 325 325 325 325 325 325 325 325 323 322 321 321 322 323 324 324 324 324 324 324 324 323 322 321 320
326 325 325 325 325 325 324 325 325 325 325 324 323 323 324 326 328 328 327 327 326 326 325 325 325 325 326 326 326 324 322 321 322 322 322 323 323 322 322 321 321 321 321
325 324 323 323 324 324 324 324 324 324 323 323 324 324 323 323 323 325 327 327 327 327 327 326 326 325 325 324 324 325 325 326 326 325 325 326 326 325 324 323 322 321 320
319 318 318 319 320 320 320 320 320 321 322 323 323 323 322 323 323 323 322 322 322 323 324 324 325 325 325 325 324 324 324 323 323 323 325 325 325 323 323 322 322 321 321

GFSGL_925_thetae_051.txt.gz
Theta_e
336 336 335 335 335 335 335 334 334 333 332 332 331 331 330 331 331 331 331 330 330 331 331 331 331 331 331 330 328 330 328 329 329 325 326 326 326 330 331 331 332 333 333
335 335 335 334 334 335 334 334 333 332 331 331 331 330 331 331 331 331 331 330 330 330 330 330 327 329 330 329 328 326 329 329 328 326 322 321 323 326 329 329 330 330 329
334 334 334 334 334 334 334 333 332 331 331 331 331 331 331 331 331 332 331 330 329 327 326 325 325 325 327 330 326 329 330 329 328 327 321 319 319 323 323 323 324 323 321
333 333 333 333 333 334 334 333 332 332 331 331 331 331 331 331 332 331 331 330 328 326 326 327 326 325 327 327 328 330 329 327 327 323 321 319 318 318 319 319 318 318 318
331 331 333 333 333 334 333 331 332 331 332 331 331 331 332 332 330 331 330 330 330 327 326 327 326 326 325 326 328 329 327 326 325 321 320 318 317 318 318 318 318 317 317
331 332 332 332 333 333 333 332 332 332 332 331 331 331 331 329 329 328 329 330 330 327 325 327 327 327 326 326 325 328 326 326 324 321 320 319 318 317 317 316 316 315 314
332 332 332 333 333 333 333 332 332 332 330 331 330 330 331 329 328 328 328 330 329 329 327 327 326 325 326 325 325 326 325 324 325 323 322 320 318 317 317 316 316 316 316
332 332 332 332 332 332 332 332 332 331 331 330 331 331 330 327 328 328 329 331 328 327 327 326 326 326 326 325 325 326 325 325 324 325 323 321 320 319 318 318 317 315 314
332 332 332 332 332 332 332 332 331 331 330 330 329 329 329 328 328 329 330 328 327 327 327 326 325 324 326 325 325 325 323 324 324 324 323 321 320 320 319 318 316 316 316
333 333 332 332 332 332 332 331 330 331 330 328 328 328 326 328 327 329 328 327 326 326 325 325 324 325 325 325 324 324 322 323 322 321 321 320 319 319 319 319 318 318 317
333 333 332 332 332 333 332 331 330 330 327 328 327 327 325 327 329 329 329 327 326 325 324 323 323 323 324 324 324 323 323 322 322 320 320 319 319 319 320 319 319 321 321
333 333 333 333 332 332 332 331 331 329 327 324 327 327 324 327 328 328 328 327 326 324 323 323 323 322 323 323 324 324 323 322 320 319 318 319 319 319 320 321 320 319 320
333 333 333 333 333 332 332 330 329 329 327 325 327 327 325 326 327 327 326 326 326 324 324 323 322 322 322 322 324 324 322 321 319 319 319 320 319 320 320 320 320 320 318
333 334 333 333 332 332 331 329 329 326 327 326 326 327 326 324 325 324 323 324 325 325 323 322 322 321 321 320 320 321 321 320 320 321 322 320 321 321 320 320 320 319 319
333 333 333 333 332 331 329 329 328 327 328 326 325 325 326 324 323 324 323 323 324 324 322 321 320 319 318 320 321 321 322 322 322 322 321 322 322 322 323 322 322 321 321
333 333 333 333 332 330 325 325 327 328 327 326 326 327 326 326 325 324 324 324 324 323 322 321 320 320 321 321 321 321 322 322 323 323 324 324 324 323 323 323 322 321 321
332 333 333 333 332 329 326 328 327 325 326 326 325 325 324 325 326 324 324 324 322 323 322 322 323 322 322 322 323 323 323 324 324 325 325 324 324 324 323 322 322 322 322
332 332 333 333 333 330 329 330 330 329 327 325 324 324 324 324 326 324 324 324 322 323 323 323 323 324 324 323 324 324 324 324 325 325 325 325 324 324 322 323 322 322 323
331 331 332 333 333 332 331 330 331 331 332 328 321 323 324 324 325 326 324 325 324 324 325 324 324 324 324 323 323 325 325 324 325 325 325 325 325 324 324 322 322 322 323
330 330 331 332 333 332 331 330 330 331 331 330 327 324 322 322 319 322 324 325 325 324 326 326 325 324 324 324 325 324 324 324 323 325 325 325 325 325 325 325 324 324 324
329 329 330 332 332 332 331 330 329 330 331 329 331 326 325 325 325 322 322 324 325 326 325 325 326 326 325 325 324 324 323 323 322 324 325 326 326 325 325 325 325 326 326
329 329 329 330 331 332 331 330 329 329 330 330 330 325 326 326 326 325 324 323 325 327 327 325 324 324 325 325 325 324 323 323 323 325 326 326 326 326 326 326 326 326 326
328 328 329 330 330 330 330 330 330 329 328 329 330 325 325 325 328 327 327 326 326 327 327 327 326 325 324 324 325 325 325 326 326 326 326 326 326 326 326 326 326 326 325
328 328 329 329 329 329 329 330 330 328 328 327 327 327 326 327 329 329 329 328 327 327 327 327 327 327 327 326 325 325 325 324 325 325 326 326 326 326 325 326 325 325 325
327 327 328 328 327 328 327 328 328 328 327 327 327 326 326 326 326 327 328 329 328 328 328 327 327 327 327 328 327 327 326 325 324 325 325 325 325 325 325 326 326 327 327
322 321 320 321 323 324 324 325 325 325 325 325 325 324 324 325 325 324 324 324 325 326 326 326 326 326 326 326 326 326 326 326 325 325 324 325 326 326 326 326 326 327 326

GFSGL_925_thetae_054.txt.gz
Theta_e
345 343 342 340 340 340 340 339 339 338 337 336 335 334 333 332 332 332 333 332 332 332 331 332 332 332 332 331 332 331 331 332 334 330 327 326 327 331 333 333 332 332 333
341 340 340 339 339 339 338 338 337 336 335 334 332 332 331 332 333 333 333 332 332 332 332 332 331 332 332 332 331 329 332 331 331 329 323 323 326 330 331 330 331 332 333
339 339 339 339 338 337 337 336 336 335 333 332 332 331 331 332 333 333 332 332 331 330 327 329 330 330 332 333 331 330 332 333 330 328 322 321 322 326 328 327 327 326 326
338 337 337 336 334 335 336 336 334 333 333 332 331 330 331 332 332 332 332 332 331 328 325 326 325 325 326 331 331 331 332 331 330 327 322 320 320 322 323 321 320 320 319
337 335 333 334 336 336 336 334 334 332 331 331 331 331 332 332 332 332 332 332 331 328 325 325 326 326 326 327 331 332 331 330 328 324 322 320 319 320 320 320 319 318 318
332 331 333 335 336 336 335 334 333 332 333 332 332 332 332 331 329 330 332 332 332 330 326 325 327 326 326 326 329 330 331 329 325 324 322 322 320 319 319 318 317 317 316
330 332 334 335 335 335 335 334 332 333 333 332 332 332 332 331 328 328 329 332 331 330 327 326 326 326 326 327 327 328 328 328 326 323 323 321 319 318 318 318 318 318 318
330 332 334 334 334 334 334 333 333 333 333 333 332 331 332 328 328 328 329 332 332 331 327 327 326 328 329 325 327 328 327 327 325 327 324 322 320 319 318 317 317 316 316
332 333 334 334 334 334 334 334 334 333 333 333 332 331 332 329 328 329 330 331 331 330 327 327 326 326 325 326 327 328 328 328 326 325 323 322 319 319 318 317 316 317 317
332 332 333 334 334 334 334 334 333 333 333 333 333 332 331 329 328 329 330 330 328 326 325 325 325 325 326 326 327 327 328 326 325 323 322 320 319 318 318 318 318 318 317
332 332 333 334 334 334 334 334 334 333 333 332 331 331 331 331 329 329 328 329 328 327 326 324 323 324 325 325 328 328 327 326 325 324 322 321 319 318 318 319 320 319 319
332 332 333 334 335 334 335 334 333 332 332 331 330 329 329 327 328 329 328 328 327 327 326 325 323 324 325 325 327 326 323 324 324 323 321 320 320 319 319 319 320 320 324
332 332 333 335 334 334 334 334 333 332 331 329 329 329 328 327 326 328 327 327 326 327 325 323 323 323 323 324 325 324 323 323 323 322 321 320 320 319 319 319 323 323 323
332 332 333 334 334 334 334 333 332 331 330 329 329 328 328 328 326 324 325 325 325 324 323 322 321 321 322 323 323 323 323 324 323 321 320 320 319 319 320 320 323 324 324
332 332 333 333 333 334 333 331 331 329 330 330 329 329 329 328 328 327 327 324 322 322 321 320 319 318 317 318 320 321 322 323 322 322 321 321 322 322 322 324 325 324 324
332 332 333 333 334 333 332 330 329 329 327 328 328 328 328 328 326 324 323 323 324 323 322 321 320 320 321 321 322 322 322 323 323 322 323 324 325 324 325 324 325 325 325
332 331 332 333 334 333 332 331 329 325 326 326 326 327 326 326 325 324 324 323 323 322 322 321 321 322 322 322 322 323 323 324 324 324 325 326 325 325 324 325 326 326 326
331 332 332 331 333 333 331 331 332 329 328 326 325 324 324 326 324 325 324 322 322 323 323 325 324 323 322 323 323 324 325 326 326 326 326 326 325 325 326 326 326 324 322
331 331 330 331 332 332 329 331 332 332 331 329 322 322 324 325 324 324 324 327 326 325 326 325 327 326 324 324 325 326 326 326 326 326 326 326 326 327 326 325 323 322 322
330 329 330 331 332 332 329 331 332 333 332 329 328 326 317 321 321 322 324 326 327 326 326 326 326 327 326 326 326 326 327 326 327 327 327 327 327 326 324 323 322 323 323
329 330 331 331 332 331 329 329 331 332 332 332 330 327 323 326 327 325 324 326 327 328 328 327 327 327 327 327 327 327 327 327 327 328 328 328 328 327 326 325 325 325 325
328 329 330 330 330 330 330 328 327 329 330 331 331 324 324 325 329 328 327 328 329 329 328 327 328 329 328 327 327 327 327 327 327 327 327 328 328 328 327 327 326 325 326
327 328 328 328 329 330 330 330 328 327 328 328 329 326 324 329 329 329 329 328 329 330 330 329 328 327 327 328 328 328 328 328 327 328 328 328 328 328 328 328 327 327 327
330 327 327 328 328 329 329 330 330 328 326 327 329 328 329 329 329 328 328 328 329 329 329 330 329 329 328 328 328 328 328 327 328 328 329 329 328 328 328 328 328 327 327
331 330 329 330 330 329 331 332 332 330 329 328 328 328 328 329 330 331 332 332 332 331 331 331 330 330 330 329 329 328 327 327 326 327 327 327 327 327 326 326 325 325 325
329 330 330 331 331 330 331 331 331 331 330 330 329 329 329 329 328 329 329 329 330 330 331 331 330 329 327 326 327 328 329 329 328 327 326 326 326 326 326 326 326 326 326

GFSGL_925_thetae_057.txt.gz
Theta_e
349 349 348 347 347 345 342 342 341 340 338 337 337 336 336 335 334 334 334 333 332 333 333 332 333 334 333 332 333 333 333 331 338 332 330 330 332 332 332 335 334 332 333
348 347 346 344 343 342 341 340 340 338 337 336 336 335 333 332 333 334 333 333 333 333 333 332 332 333 334 334 332 333 332 333 332 331 328 326 328 333 333 333 331 331 332
345 344 343 342 341 340 339 338 337 336 336 335 334 332 331 332 333 333 332 332 333 334 333 331 332 332 332 334 334 333 333 334 332 329 326 324 326 330 330 330 330 330 331
342 342 342 341 340 338 337 336 335 335 334 333 332 332 331 331 332 332 331 333 333 331 329 326 326 326 329 332 331 333 333 333 331 328 325 323 323 325 327 324 322 324 322
341 340 340 338 336 335 335 336 335 335 333 332 332 331 331 331 332 332 333 333 333 330 327 325 326 326 326 326 331 333 333 332 330 326 326 323 322 322 322 321 320 319 319
338 337 335 334 335 336 336 336 335 333 333 332 331 332 332 330 331 331 334 334 333 331 328 325 326 326 326 326 328 331 332 332 330 328 326 323 322 321 320 320 319 318 317
335 333 334 335 336 336 335 335 334 334 332 331 331 332 333 332 329 328 330 334 333 332 327 326 326 326 326 328 328 330 331 329 328 328 326 323 320 320 320 320 320 319 317
333 333 334 334 336 336 334 334 334 336 335 335 334 334 334 330 328 328 329 333 333 333 327 327 327 329 329 329 330 330 330 328 325 328 325 322 321 319 320 320 320 317 317
332 333 333 335 335 335 335 334 336 336 336 335 333 334 334 330 328 329 331 332 332 330 327 326 326 329 327 327 329 329 329 327 327 326 323 321 320 320 320 319 318 318 318
332 333 333 333 334 334 335 336 336 335 335 334 333 333 332 331 329 329 330 331 330 327 326 326 326 328 326 328 329 329 328 326 324 323 322 319 319 319 319 319 318 318 318
332 332 333 334 334 334 335 336 336 335 334 334 334 333 332 332 329 329 330 331 329 327 327 325 324 325 326 328 329 329 329 327 323 322 320 319 318 318 318 318 319 319 319
332 332 334 333 335 336 335 335 334 334 334 333 333 332 331 331 330 329 328 330 329 327 328 327 324 325 326 327 327 328 327 326 325 322 320 319 319 318 319 320 319 318 321
332 332 334 335 335 335 335 334 334 334 333 333 331 330 330 330 329 328 328 327 328 328 325 325 324 326 325 326 327 326 326 326 324 322 321 321 320 319 319 320 319 323 324
332 332 335 335 335 335 335 334 333 333 332 330 331 330 329 330 329 328 326 326 325 324 322 321 323 324 324 325 325 324 325 325 322 321 321 321 321 321 319 322 321 323 326
332 331 332 335 335 335 334 333 333 333 332 331 331 330 330 329 329 328 328 326 327 325 321 320 320 321 321 321 322 324 325 324 324 323 322 321 321 322 322 323 325 325 326
332 331 331 331 332 333 333 331 331 330 329 329 329 329 329 329 327 327 327 325 325 323 324 321 320 319 320 321 322 323 323 324 324 323 322 321 321 322 322 323 326 326 326
331 331 331 332 330 331 333 332 331 326 327 328 328 328 328 326 325 324 324 324 323 324 324 322 321 321 322 322 322 322 322 324 322 323 323 323 323 324 324 325 326 326 326
331 331 330 332 330 329 332 332 331 330 329 328 326 326 326 325 324 324 324 323 322 323 324 324 322 322 322 323 323 323 324 323 324 325 326 326 326 326 326 326 326 327 326
331 330 329 331 330 329 331 333 332 330 329 328 324 323 325 324 325 324 324 324 325 323 324 326 323 323 323 323 323 324 326 326 327 327 327 327 326 326 326 327 327 327 326
331 329 330 330 330 330 330 332 333 332 331 329 327 326 321 321 320 321 323 326 327 326 327 328 327 324 322 325 326 327 327 327 327 327 328 328 327 327 328 327 327 326 325
330 329 330 330 330 330 330 332 334 333 332 330 329 327 324 327 327 326 327 327 328 327 327 328 328 328 327 325 326 327 328 328 328 328 328 328 328 328 328 327 325 324 323
329 328 331 330 329 330 329 331 332 332 332 332 331 326 325 325 329 328 328 328 329 328 329 329 329 328 329 328 328 328 328 328 328 328 328 328 328 329 328 326 325 325 326
329 328 329 330 329 329 328 327 329 330 330 332 329 326 325 328 331 330 330 330 330 329 329 330 329 329 329 328 328 328 329 328 328 329 329 328 329 328 327 327 327 326 327
328 328 328 329 329 330 329 328 327 327 328 330 328 328 329 331 330 330 330 330 330 330 330 329 329 328 328 328 329 329 329 329 329 329 329 329 329 329 329 329 329 328 328
327 328 327 328 329 328 328 329 328 327 327 329 328 327 327 327 329 328 329 328 328 329 329 329 328 328 326 327 326 327 327 327 328 328 328 330 329 328 328 328 328 328 327
332 329 328 330 331 331 328 326 327 328 328 326 323 323 323 322 322 323 324 322 324 322 320 318 316 315 320 322 322 323 327 328 328 327 327 327 328 328 328 327 327 327 327

GFSGL_925_thetae_060.txt.gz
Theta_e
352 354 354 354 352 350 348 345 344 343 342 341 340 337 337 336 336 334 335 334 333 334 333 332 333 333 334 332 331 331 331 329 333 332 332 332 332 332 333 332 330 325 331
353 353 352 350 349 347 345 344 341 341 338 338 338 333 335 336 334 334 335 334 332 333 333 333 332 334 333 334 329 331 331 330 332 330 328 328 330 332 334 333 332 328 331
351 350 349 347 346 345 343 342 340 339 337 336 336 335 335 333 332 333 332 332 333 332 334 334 333 333 330 329 331 330 332 331 332 327 325 325 327 333 330 332 331 329 331
348 347 346 345 344 343 341 340 339 336 336 336 335 333 332 333 331 333 333 333 333 333 331 330 328 328 329 328 330 332 331 331 330 325 324 325 326 327 327 327 325 327 328
345 345 344 344 342 340 339 337 336 336 335 334 333 332 332 333 332 332 332 334 332 331 328 326 325 325 325 326 330 328 330 331 327 325 325 323 323 324 323 322 321 322 322
343 344 343 341 339 337 337 337 336 336 335 334 333 332 331 331 333 333 333 333 332 330 327 326 326 325 326 326 326 329 330 330 326 326 324 323 323 322 322 321 320 320 318
341 340 338 337 338 338 337 335 336 335 333 331 332 332 334 329 329 329 332 334 333 332 329 325 326 327 326 327 328 330 330 330 327 326 323 323 322 322 321 320 321 320 318
337 336 335 337 338 337 335 334 334 334 331 331 333 333 334 328 328 328 330 334 332 332 327 326 327 328 326 329 329 329 328 328 328 327 324 322 322 321 321 322 320 318 318
334 334 335 338 337 337 335 334 335 335 334 335 334 335 333 328 327 328 331 333 332 330 327 326 327 329 328 329 330 329 327 326 327 326 324 322 322 321 321 321 318 318 317
333 334 334 336 337 335 336 336 336 336 337 335 333 334 333 328 328 329 332 332 330 327 326 326 327 328 327 330 329 329 325 324 323 322 321 320 320 321 321 321 320 319 318
333 333 335 336 335 335 334 335 335 336 336 334 333 332 333 329 329 330 330 331 328 326 326 325 325 326 327 329 329 327 325 323 322 320 319 319 319 319 320 320 319 319 319
333 335 337 334 336 335 336 335 336 335 334 334 333 333 332 331 329 329 329 330 328 328 327 327 325 326 327 328 329 327 325 323 321 320 319 318 318 318 319 319 320 319 321
334 336 336 336 336 336 336 337 335 334 333 333 333 332 330 329 329 328 327 327 329 327 327 326 325 326 326 327 327 326 325 323 321 320 319 319 319 319 319 319 319 320 323
337 337 336 336 335 335 336 335 334 333 333 333 332 331 330 331 328 327 326 326 326 324 323 324 325 325 326 327 326 327 326 324 322 321 320 320 319 320 320 319 319 319 323
338 337 337 335 335 335 334 333 333 332 332 331 331 330 329 329 330 328 327 327 326 322 322 321 323 324 324 324 325 325 324 323 322 321 321 321 320 319 320 320 321 323 325
336 337 336 335 337 335 332 327 330 329 330 331 331 330 329 329 328 328 327 327 325 322 322 321 320 321 322 323 325 325 325 324 322 321 321 321 321 320 320 324 323 323 325
333 334 335 336 336 335 333 332 328 326 327 328 329 328 328 327 327 327 326 325 324 324 322 321 321 321 322 323 324 324 324 324 322 322 321 322 322 323 322 322 324 325 326
334 332 332 331 334 334 333 333 331 329 328 324 326 326 326 325 324 324 324 323 324 324 322 322 322 322 322 322 323 323 324 324 324 323 322 321 321 323 323 324 326 326 326
333 331 332 331 330 332 333 331 330 329 329 325 321 324 324 324 324 323 323 324 323 325 324 323 322 322 323 323 323 323 323 324 324 325 325 325 324 324 326 326 326 326 326
332 331 331 331 329 333 333 332 332 331 330 328 327 322 320 320 320 322 324 326 325 325 327 325 322 322 322 323 323 324 325 326 325 327 327 327 327 327 327 326 327 327 327
331 330 330 331 331 332 333 334 334 332 332 329 328 324 324 325 324 325 326 327 328 327 328 327 325 323 324 323 324 326 327 327 327 328 328 327 328 327 327 327 327 327 328
331 329 330 331 330 332 333 334 335 333 332 330 329 326 326 327 327 327 328 328 329 328 329 329 328 327 324 324 327 327 328 328 328 328 328 328 328 328 328 328 329 328 327
330 329 331 331 330 331 332 335 335 334 332 331 327 325 325 326 328 328 328 328 330 329 329 329 329 329 328 328 327 328 328 328 328 328 328 329 329 329 329 329 329 327 327
329 328 330 331 329 329 329 331 332 333 332 329 327 326 326 327 329 330 329 329 329 327 327 328 326 327 326 326 327 327 327 328 327 328 328 328 329 329 329 329 329 329 328
330 328 327 329 330 330 329 328 328 331 330 329 329 330 323 323 325 323 322 320 318 316 312 312 314 316 319 319 319 320 323 327 327 328 328 330 330 329 329 328 329 330 329
330 329 329 328 329 329 330 329 327 325 324 324 323 320 318 314 313 315 314 311 309 307 307 310 310 312 312 313 315 318 322 325 327 326 326 326 327 328 328 327 327 328 328

GFSGL_925_thetae_063.txt.gz
Theta_e
340 347 350 349 350 354 351 352 349 347 346 346 346 343 340 337 337 335 335 335 334 334 333 333 332 332 333 332 331 331 331 330 327 331 329 331 329 330 332 329 328 328 332
350 350 349 352 354 352 350 348 349 349 347 345 342 339 334 335 336 335 333 334 332 333 332 332 331 333 332 331 330 331 331 330 330 327 330 330 331 331 330 329 327 329 332
350 351 353 350 350 346 343 343 343 343 341 340 339 334 333 336 334 334 334 334 332 332 332 333 332 332 331 330 330 330 331 331 330 328 326 327 330 330 331 330 329 330 331
349 349 348 346 345 343 341 340 339 337 337 337 336 333 335 335 330 331 333 333 333 332 333 332 331 331 329 326 328 329 331 331 328 326 326 325 327 329 330 328 327 328 329
347 346 345 345 343 341 340 339 338 336 336 336 335 334 333 332 330 333 333 333 332 332 327 326 325 325 326 327 327 327 330 329 326 325 324 324 325 325 325 324 323 325 324
345 344 344 343 341 340 338 338 335 336 335 334 333 333 333 333 332 332 333 333 332 330 325 325 325 325 325 325 325 328 329 328 325 324 324 325 324 324 324 324 322 322 320
343 343 342 341 339 337 336 336 336 335 335 334 331 332 332 332 333 333 333 332 332 331 325 325 324 326 326 326 326 328 329 330 328 325 324 324 323 324 323 322 323 322 319
342 340 338 337 337 337 336 335 336 334 332 334 333 332 330 329 329 330 332 333 332 331 328 325 326 327 326 328 328 329 330 327 326 326 324 324 325 325 325 323 322 321 320
337 336 337 337 337 336 334 333 335 333 332 333 333 333 331 328 327 327 334 333 332 330 326 326 327 328 326 328 327 327 327 328 327 325 324 323 324 324 323 322 320 320 319
335 335 337 337 336 334 333 335 334 332 332 333 334 333 331 327 327 329 333 332 329 328 326 326 329 328 328 329 328 326 324 324 324 323 322 322 322 322 322 323 322 320 318
334 334 337 336 335 334 334 336 334 334 334 333 334 333 329 327 328 330 331 331 328 327 326 325 327 326 327 329 328 326 325 322 322 321 320 320 321 320 320 321 321 321 320
334 336 337 336 335 336 335 335 335 335 334 333 332 332 329 328 329 329 330 331 327 327 327 325 326 326 328 329 327 326 324 321 320 319 319 319 319 320 321 320 320 320 320
336 336 336 336 334 335 334 335 335 334 333 332 332 331 330 328 328 328 329 328 327 328 327 326 325 326 328 329 327 324 322 321 319 319 318 319 319 320 320 320 320 320 322
335 335 335 335 335 334 335 335 334 333 332 332 331 330 329 328 328 327 327 328 327 326 325 324 325 326 327 327 324 323 322 321 319 319 319 319 319 319 319 320 319 320 322
335 335 335 335 335 335 334 333 333 332 332 331 331 330 330 328 327 327 326 324 324 323 324 323 325 326 324 323 324 325 322 320 320 319 319 319 319 320 319 319 319 319 322
335 335 335 335 332 331 330 328 329 331 331 331 330 329 329 329 328 327 327 326 323 323 322 323 324 324 324 325 325 323 323 322 321 320 320 320 319 320 320 319 319 320 324
335 334 334 335 331 329 327 326 322 325 329 330 329 329 329 328 328 327 327 325 323 322 322 321 322 323 324 325 325 324 323 322 321 321 321 321 320 319 321 323 321 322 322
335 334 335 335 334 332 329 327 326 325 323 324 326 327 327 327 327 326 324 324 323 322 322 321 321 322 323 324 325 324 324 323 322 321 321 321 322 320 320 323 324 325 325
334 333 334 334 333 332 332 328 327 327 322 317 320 323 324 324 324 324 323 324 323 322 321 322 322 322 323 324 324 324 324 324 323 322 322 321 322 322 322 322 322 324 326
333 332 332 334 333 332 331 329 328 328 322 320 319 319 320 321 322 323 324 324 324 325 322 322 322 322 323 323 323 324 324 324 324 324 323 322 321 322 323 323 323 325 325
330 331 331 332 332 332 331 329 328 327 325 325 322 321 322 323 323 324 325 326 325 325 326 323 322 322 323 323 323 323 323 325 324 324 326 325 325 323 323 326 325 325 325
330 330 330 331 332 332 332 332 330 328 327 326 323 323 323 324 324 325 326 326 327 326 327 327 324 323 323 323 323 323 324 326 326 326 327 326 326 326 326 326 326 327 327
330 330 330 331 331 333 334 333 332 330 328 326 325 324 325 325 326 326 326 327 328 328 328 327 326 324 323 324 326 327 327 328 328 327 327 328 327 328 328 327 327 327 328
330 329 330 330 331 332 333 334 333 332 329 326 324 322 324 326 327 328 327 325 324 322 325 325 327 324 324 324 324 325 326 326 326 327 328 328 328 328 328 328 328 328 329
328 328 330 329 331 331 332 334 332 330 328 325 324 324 324 321 319 318 316 316 315 314 313 316 316 316 318 318 320 322 323 327 326 326 326 328 328 327 327 327 326 326 326
327 326 327 329 327 327 328 327 326 325 322 318 314 313 313 311 309 308 308 309 310 308 309 307 307 310 313 314 315 317 318 322 322 323 323 323 321 319 320 317 316 315 314

GFSGL_925_thetae_069.txt.gz
Theta_e
330 331 333 333 334 334 334 334 337 343 346 346 347 346 343 344 343 342 340 339 337 335 334 333 333 332 331 331 331 331 329 328 322 327 329 330 329 329 329 330 327 328 328
329 330 332 334 334 336 336 337 341 345 347 347 347 343 343 343 342 340 338 335 334 334 333 333 332 331 331 332 331 330 329 329 327 324 325 329 329 329 327 329 328 328 328
329 329 332 335 336 338 341 342 344 345 346 346 345 343 343 343 341 337 334 334 334 334 333 333 332 331 331 331 331 330 329 329 328 328 326 326 328 328 325 328 329 328 329
333 336 338 339 342 343 343 344 344 345 345 344 343 343 344 341 339 335 334 333 334 333 332 331 331 331 331 331 330 330 329 329 327 327 327 327 327 327 328 325 325 326 328
341 341 342 344 344 345 347 346 346 345 344 343 344 343 341 338 336 334 333 333 333 332 331 331 331 331 330 329 326 328 329 328 326 325 325 325 326 326 326 324 323 325 325
344 343 344 345 345 346 345 345 344 343 343 343 343 339 335 334 334 332 332 332 332 331 331 331 329 328 326 325 327 327 328 327 326 324 324 325 325 325 325 323 323 324 322
343 342 341 342 341 340 342 341 340 342 343 341 338 334 333 334 333 331 331 331 332 332 330 328 325 325 324 325 325 326 326 327 327 326 326 326 325 326 324 323 323 323 321
341 340 340 339 338 338 339 339 340 339 338 336 334 333 333 334 332 331 332 332 331 330 329 325 325 324 326 326 325 327 326 326 327 326 326 326 326 326 327 324 323 322 321
340 339 339 338 336 335 334 334 334 335 334 333 333 332 332 331 332 332 332 332 330 329 327 325 325 326 326 326 326 326 326 326 327 326 324 325 325 326 326 324 322 321 319
339 338 337 337 335 334 334 333 333 333 332 331 330 330 330 331 332 332 332 331 329 329 328 327 326 326 326 326 326 325 325 325 324 324 323 323 324 324 325 325 324 321 320
337 337 336 335 335 334 333 333 333 332 331 329 328 327 328 328 328 330 331 330 329 327 327 326 327 327 326 326 326 326 325 324 323 323 322 323 323 324 324 324 323 324 321
327 335 333 333 333 333 334 332 332 331 329 327 326 324 325 326 327 330 331 330 329 328 326 325 327 327 327 327 326 326 325 324 322 320 320 321 322 321 322 323 323 322 322
332 333 332 333 333 333 331 330 330 331 329 326 324 322 322 325 329 330 330 329 327 326 325 325 325 326 327 327 326 325 324 322 320 319 320 320 320 321 321 321 321 321 321
333 333 333 332 331 331 331 331 330 329 329 328 326 323 323 323 327 329 330 328 326 326 325 324 325 327 327 326 323 322 321 321 320 319 319 320 320 320 320 320 321 321 321
334 333 332 331 331 331 330 330 331 331 331 329 326 325 323 323 327 329 329 326 326 326 325 323 324 324 323 320 320 320 320 319 319 319 319 319 320 320 320 320 320 321 322
334 332 332 329 326 325 326 326 331 331 331 331 331 330 327 327 327 327 327 326 326 325 322 322 322 322 320 320 321 320 320 319 319 319 319 319 319 319 319 319 319 320 322
333 331 329 327 326 324 324 325 320 326 330 330 330 330 329 326 327 326 325 325 323 321 321 322 323 322 321 322 322 321 320 319 319 319 319 319 319 319 319 319 319 320 320
333 330 329 327 327 326 325 325 324 323 322 325 329 329 328 327 326 325 324 323 321 322 322 323 323 323 323 323 323 322 321 320 320 320 319 319 319 319 319 319 319 319 319
330 330 329 328 327 326 326 325 325 325 322 321 323 326 327 326 325 325 324 323 321 322 322 323 324 324 324 324 324 324 323 322 321 320 320 320 319 319 320 320 321 320 320
331 331 330 327 326 325 325 323 322 320 320 321 321 323 325 326 323 321 322 323 322 321 322 322 323 324 324 325 324 323 323 322 321 321 320 320 320 320 320 320 320 322 320
331 330 329 328 327 325 324 322 321 321 321 320 320 320 323 323 321 322 323 323 322 321 321 321 322 323 324 324 324 324 324 323 323 322 322 321 321 321 321 321 320 321 322
331 329 329 329 328 326 325 324 321 321 320 318 317 319 321 321 322 323 323 324 324 324 322 322 322 322 323 323 324 324 324 324 324 323 323 323 322 322 322 321 322 322 322
331 330 330 329 328 326 325 324 322 321 319 319 317 317 319 321 322 323 324 325 325 325 324 322 322 322 322 323 323 323 323 323 323 324 325 323 324 324 323 322 321 321 321
330 331 330 329 327 326 325 324 323 323 322 319 318 318 319 322 321 321 321 320 322 323 323 322 321 321 321 321 322 323 323 324 325 326 325 325 326 326 326 325 325 325 325
329 330 329 328 327 326 326 325 323 323 322 320 319 317 317 317 316 314 314 315 315 315 313 314 314 315 317 318 320 322 323 323 323 324 324 324 324 326 326 326 324 321 320
327 327 328 328 329 327 326 325 323 322 321 319 318 314 312 309 308 308 307 308 308 307 307 308 308 309 310 311 313 319 322 323 322 323 322 322 321 319 320 318 317 314 311

GFSGL_925_thetae_072.txt.gz
Theta_e
321 319 324 329 332 334 334 335 333 331 333 340 344 346 345 345 344 343 343 341 340 339 337 335 334 332 332 331 330 330 329 328 327 326 325 327 329 328 331 330 330 330 330
320 319 326 329 332 333 334 334 331 332 338 340 344 345 345 345 343 343 341 340 339 337 334 333 332 332 331 330 330 330 330 328 326 327 325 327 327 329 329 329 328 328 329
321 324 328 330 333 334 334 333 333 337 339 343 345 345 345 342 343 342 341 339 336 333 333 332 332 331 330 331 331 331 330 328 327 326 325 325 326 328 327 328 328 327 328
323 326 330 332 334 334 333 334 337 339 341 344 344 345 342 342 342 341 338 334 333 333 333 332 331 331 330 330 330 329 329 328 327 326 325 325 325 326 326 327 326 326 327
326 329 332 334 335 335 338 339 339 340 343 344 343 342 342 342 341 337 334 333 333 333 332 331 330 330 330 330 330 328 328 327 327 326 326 325 325 326 325 325 324 324 325
335 334 336 337 339 340 341 341 342 342 342 342 342 342 341 342 339 335 333 332 333 332 331 330 330 330 329 328 328 326 326 328 326 325 324 325 325 326 325 324 323 325 324
340 339 340 340 341 342 342 341 341 341 341 340 340 342 341 339 336 333 333 332 332 332 331 330 329 327 325 324 324 326 327 327 326 326 325 325 325 325 325 323 324 323 321
340 340 340 340 340 340 341 340 340 339 338 339 341 340 337 333 333 332 331 331 331 331 330 329 326 324 324 325 325 325 326 326 327 326 325 326 326 325 325 324 323 322 322
340 340 340 340 339 339 339 337 336 336 337 339 338 334 332 333 332 331 330 331 331 330 328 326 324 324 325 326 325 325 326 325 326 326 326 325 325 326 326 324 322 322 320
337 338 338 337 337 336 335 334 334 336 335 335 332 332 332 332 332 331 332 332 329 328 327 325 325 325 326 326 326 325 325 325 326 326 324 324 324 325 325 325 323 322 321
336 337 336 335 333 333 332 337 335 332 331 330 330 328 330 330 331 331 331 331 330 328 327 327 326 326 327 326 324 325 324 325 324 323 323 322 322 324 324 324 323 323 322
329 332 335 333 331 331 331 331 331 330 327 325 324 324 326 329 331 331 331 330 328 327 327 326 326 326 326 325 326 325 325 324 322 322 322 322 322 322 323 323 323 322 322
328 333 332 332 331 331 330 329 328 327 324 322 322 322 321 323 327 329 330 330 329 328 326 325 326 326 327 325 325 325 324 322 321 320 320 321 321 322 323 322 322 322 321
325 326 331 330 329 330 330 329 327 326 326 325 323 322 321 323 327 328 329 327 326 325 325 325 325 326 326 325 322 322 322 321 319 320 320 320 321 321 321 321 321 321 321
326 329 328 329 329 327 327 328 328 328 328 326 324 323 322 322 325 328 327 327 325 325 324 323 323 323 321 319 320 321 320 319 318 318 320 320 320 319 320 320 321 321 321
331 330 330 328 325 323 322 323 327 329 329 328 329 329 325 326 327 328 328 326 325 325 322 322 322 321 320 319 320 320 319 319 319 319 319 320 319 319 319 319 320 321 322
331 329 328 326 325 324 324 324 319 324 329 329 328 328 328 327 327 327 327 325 325 323 321 321 321 321 321 321 321 320 319 319 319 319 319 320 320 320 320 319 319 320 321
330 328 328 327 326 326 326 325 324 325 324 323 327 328 327 326 326 325 325 324 320 320 321 321 321 322 322 322 322 321 320 319 319 319 319 319 320 320 319 319 319 320 321
330 328 327 326 325 325 325 325 325 324 323 321 324 327 326 326 325 324 323 321 320 321 322 322 322 323 323 323 323 322 321 320 320 319 319 319 319 319 319 319 319 319 320
329 328 326 324 324 325 324 323 322 321 319 321 321 320 322 323 320 319 321 322 322 321 321 322 323 324 324 324 324 323 322 321 321 320 320 320 319 319 319 320 321 321 320
328 326 326 325 325 324 323 323 322 322 322 321 319 322 322 323 321 321 323 322 321 321 321 322 323 324 324 324 324 324 323 322 322 321 320 320 320 320 319 320 320 320 321
328 327 327 326 325 324 322 322 322 321 320 319 320 322 323 324 322 323 323 323 322 321 321 322 322 323 324 324 324 324 324 323 323 323 322 322 321 321 321 321 321 321 320
328 328 327 326 325 323 321 321 321 320 319 319 320 321 321 322 323 323 323 323 322 322 322 322 322 322 322 323 323 324 323 323 323 323 323 323 323 323 323 322 321 322 322
329 329 327 325 324 324 322 321 320 319 319 318 318 320 321 321 320 319 319 319 320 320 320 319 319 319 320 321 322 323 323 323 323 323 324 324 324 324 324 324 322 322 322
329 329 327 325 325 324 322 321 320 319 317 317 318 318 318 316 315 314 313 313 313 315 314 315 315 315 317 318 320 321 321 323 323 322 322 322 321 323 324 323 323 320 318
329 328 326 326 325 324 323 322 321 319 317 314 315 315 312 309 307 306 305 306 307 307 308 308 307 309 311 312 314 317 320 321 321 321 319 318 317 315 314 312 310 308 306

GFSGL_925_thetae_075.txt.gz
Theta_e
320 322 322 323 324 327 331 334 336 338 337 340 337 339 345 347 347 347 346 344 342 340 339 339 338 337 335 334 333 333 333 331 333 332 329 328 328 329 329 330 330 329 329
321 325 327 325 326 329 333 334 337 339 341 343 344 345 347 347 347 346 345 342 341 339 338 338 337 335 335 334 333 333 333 333 333 334 329 327 327 327 329 330 329 329 331
315 325 332 328 326 330 333 335 337 340 342 343 344 345 347 347 346 345 344 342 341 339 338 337 335 335 335 333 333 333 333 333 332 332 331 327 327 327 328 325 327 327 329
314 322 333 332 328 332 334 336 339 341 343 343 345 345 346 346 345 344 342 340 339 338 336 335 334 334 334 333 334 334 334 333 332 331 331 328 327 327 326 325 325 326 326
313 317 333 332 331 333 335 338 340 341 343 343 344 346 346 345 343 341 340 339 337 336 336 334 334 333 332 333 333 333 332 332 332 331 330 328 328 326 328 325 324 325 325
313 316 329 331 331 335 338 340 342 342 343 344 345 345 345 343 340 341 338 336 336 335 335 334 332 330 330 330 330 330 331 332 331 330 329 329 328 327 325 325 324 325 325
314 316 329 331 334 338 340 341 342 343 344 344 345 345 345 342 341 339 333 336 336 335 334 333 332 330 330 329 327 326 326 327 328 330 327 327 328 326 325 324 325 327 326
315 319 332 333 337 340 341 341 341 341 344 345 344 344 343 340 339 335 333 335 335 335 334 333 332 330 329 328 327 327 328 326 326 325 326 326 327 328 327 325 326 324 323
331 337 336 338 340 339 340 340 340 341 342 342 342 339 339 339 336 333 333 334 334 333 332 331 330 329 327 324 327 328 327 325 326 325 325 326 326 326 328 326 326 325 325
339 338 339 339 340 340 340 339 339 340 339 337 337 339 337 335 333 332 332 333 333 332 330 328 325 328 325 326 328 328 325 324 324 325 325 325 325 325 326 325 325 326 325
330 338 341 343 342 339 337 338 337 335 334 334 333 333 331 332 332 331 331 333 333 331 330 328 326 325 326 326 325 325 326 324 324 323 323 323 324 325 325 325 325 327 325
329 337 338 339 338 337 337 336 334 333 331 332 328 325 325 328 331 330 331 332 331 332 329 329 326 326 326 325 324 325 324 324 324 322 323 322 322 322 323 324 324 326 324
333 335 336 336 335 335 335 335 333 332 332 330 328 325 324 322 328 331 330 329 328 329 328 326 326 326 325 325 325 325 323 324 324 323 323 322 321 322 322 323 323 322 322
329 332 333 333 333 333 332 333 332 332 331 330 328 326 325 324 323 327 329 328 328 327 325 325 326 325 324 325 322 321 322 324 323 323 322 321 321 321 321 322 321 321 321
327 330 330 331 330 327 327 331 332 332 331 329 328 327 326 325 324 326 326 325 325 323 323 322 323 322 322 321 320 321 322 322 322 321 320 320 320 321 321 321 321 321 322
330 329 330 326 324 323 325 323 328 329 328 329 328 329 327 328 327 326 327 327 325 324 323 323 321 321 320 320 321 321 321 321 322 320 319 320 320 319 319 320 321 322 325
330 330 330 328 328 329 329 327 322 326 327 327 327 327 327 326 327 327 327 326 325 322 324 324 322 321 321 321 321 322 321 321 321 321 320 319 319 319 319 319 320 322 323
329 328 328 329 329 330 330 330 328 326 324 321 325 325 326 327 328 328 326 323 320 323 324 323 324 322 321 323 322 321 321 320 320 321 321 321 320 319 320 322 322 323 323
329 329 330 330 330 331 330 330 330 329 326 319 321 325 325 326 326 325 323 323 321 321 322 322 324 324 323 322 322 322 321 321 320 320 320 321 321 320 319 320 320 320 320
330 329 330 329 329 331 331 332 331 328 326 325 323 317 321 323 320 319 321 323 324 324 323 323 324 322 323 323 323 322 322 322 322 322 321 320 320 321 320 321 320 321 321
328 328 328 330 331 332 332 330 328 328 328 323 319 320 322 322 320 320 322 323 322 323 324 323 323 323 324 325 323 323 323 322 322 322 322 323 320 320 320 321 321 324 324
330 330 331 332 331 331 329 327 327 326 323 319 318 321 322 322 321 322 322 322 322 323 323 323 323 324 324 324 324 324 323 323 323 323 323 322 323 322 322 323 323 323 322
331 332 331 331 329 325 326 326 324 323 321 321 322 322 323 323 322 322 321 321 321 321 321 322 322 323 323 324 324 324 324 326 324 325 323 323 322 323 321 322 321 322 324
332 331 330 327 328 325 325 323 323 323 322 322 322 322 319 319 317 316 316 315 317 318 318 319 319 320 321 322 323 323 323 323 323 322 323 323 325 324 325 323 323 323 321
332 331 330 329 328 324 321 321 322 322 321 321 318 314 310 310 309 307 308 310 311 312 312 313 313 314 316 318 320 321 322 322 322 323 322 322 321 323 324 324 323 321 320
332 331 330 329 328 327 322 320 320 319 317 313 310 308 305 303 302 302 303 304 304 302 303 303 303 306 309 312 314 315 319 321 321 320 320 319 317 315 314 311 309 306 304

GFSGL_925_thetae_078.txt.gz
Theta_e
318 319 322 324 325 326 327 328 331 336 339 339 346 349 350 348 349 350 350 350 350 348 345 344 344 342 340 336 336 335 334 333 334 336 334 333 332 334 333 333 333 333 332
317 319 322 324 326 329 329 331 332 335 337 336 344 347 346 347 350 351 351 349 348 347 345 344 343 342 341 337 336 335 334 334 333 337 333 332 332 332 330 330 333 333 333
316 318 320 322 325 330 333 332 333 336 338 338 342 345 346 347 350 351 349 348 347 345 344 343 342 341 338 336 336 335 335 334 334 334 334 332 331 328 327 328 331 331 331
316 317 319 321 323 329 334 333 334 334 336 340 343 345 345 346 349 349 348 348 346 344 343 343 341 338 337 336 336 335 334 334 333 333 333 332 331 328 329 327 329 328 328
316 316 318 320 322 327 335 334 334 335 336 340 344 345 345 347 347 348 348 346 345 343 343 340 338 337 335 335 334 334 334 334 333 332 333 331 331 329 331 328 328 327 326
314 316 317 320 322 327 336 335 336 336 340 343 345 345 346 346 346 347 346 345 343 341 339 337 336 335 334 333 333 333 334 334 333 333 333 332 331 330 331 329 327 327 327
314 315 316 319 323 327 336 335 337 341 345 347 346 346 347 346 346 344 344 343 339 338 337 337 336 333 333 332 330 330 329 328 330 333 333 332 333 329 329 328 328 326 327
310 312 316 320 325 330 336 336 341 347 349 349 348 347 348 343 343 342 339 339 338 337 337 336 335 335 334 333 332 330 330 330 329 328 330 331 329 327 328 328 328 329 327
311 314 318 322 325 334 336 340 347 349 349 349 347 348 348 338 340 339 334 337 337 337 336 335 335 334 333 330 330 330 331 329 326 326 326 327 327 329 328 325 326 327 328
316 320 321 322 328 336 339 346 348 348 348 346 347 348 345 336 338 331 335 334 335 335 335 335 333 333 330 325 329 330 329 328 324 324 324 326 327 327 327 327 326 327 327
314 317 320 331 335 340 344 343 344 344 346 345 345 344 342 336 334 333 334 332 333 334 333 333 330 329 327 325 326 331 330 328 324 325 324 325 327 327 328 328 328 328 328
330 335 337 339 340 341 340 341 342 343 343 342 341 339 336 333 334 332 332 333 334 334 333 333 331 326 326 326 326 328 327 326 326 325 325 324 325 324 326 328 328 330 328
330 336 339 339 339 339 339 340 341 343 339 338 338 334 333 331 328 331 332 334 333 334 333 330 328 326 326 325 325 325 325 327 327 327 326 326 325 323 324 326 326 325 326
328 335 337 338 339 339 340 342 342 340 340 336 333 334 332 330 328 329 331 331 331 330 329 327 326 325 327 326 324 324 326 327 326 326 325 326 325 323 323 323 325 326 326
329 332 333 335 335 334 335 341 341 338 336 335 334 333 332 332 331 331 331 330 330 329 327 323 325 325 324 322 324 326 327 326 325 324 324 324 324 322 322 322 323 325 325
330 330 328 328 330 332 330 324 333 333 332 333 332 332 332 332 329 328 329 329 328 326 328 328 325 325 325 325 326 327 327 325 324 323 323 323 323 322 321 321 323 322 325
329 329 330 332 333 333 334 330 327 326 330 330 330 330 330 329 326 326 327 327 325 326 329 327 326 326 326 325 326 326 326 326 324 323 323 323 322 320 320 320 320 323 323
329 331 332 334 333 334 332 331 329 330 329 325 326 326 327 327 325 326 326 323 323 327 327 327 326 326 326 325 326 326 325 324 324 323 323 322 321 319 319 320 320 323 323
326 330 332 333 333 333 333 332 331 331 328 322 319 321 323 325 325 326 324 326 326 326 326 326 327 326 326 325 326 324 324 323 323 323 323 323 322 320 321 323 322 322 324
332 331 332 333 333 333 333 333 332 330 330 329 328 319 319 320 317 319 326 326 326 326 325 325 326 327 325 326 324 325 323 323 323 323 322 323 323 322 321 321 320 320 320
329 330 332 333 334 334 334 334 332 331 331 331 326 321 324 327 323 325 326 327 327 326 326 326 326 326 326 326 326 325 324 325 325 325 325 323 321 322 322 322 321 321 323
331 332 332 333 333 334 333 332 332 331 330 327 321 322 324 325 324 323 322 322 323 323 326 325 325 323 324 325 326 326 325 324 325 324 323 325 324 322 321 321 322 323 325
332 332 333 333 333 332 331 331 331 331 327 324 323 324 325 324 321 321 321 319 319 319 322 322 323 324 324 325 324 325 325 325 325 325 325 324 323 325 324 323 325 324 324
332 332 332 332 332 331 331 330 328 328 325 325 325 320 318 316 315 313 314 314 316 317 318 318 318 320 321 323 324 324 324 324 325 325 326 325 324 323 323 322 324 323 323
332 332 331 331 331 330 328 327 325 325 325 321 317 311 310 310 309 307 308 308 310 311 310 310 312 314 316 318 319 322 323 323 322 322 323 323 323 324 323 322 320 315 315
332 331 331 329 327 327 326 325 323 321 318 314 309 306 305 303 301 301 301 302 300 300 300 303 305 308 311 313 315 317 320 320 320 320 319 318 317 316 315 311 308 304 302

GFSGL_925_thetae_081.txt.gz
Theta_e
317 318 320 321 322 324 327 329 330 331 332 331 341 346 352 355 356 355 353 351 351 352 351 351 349 346 345 342 339 334 334 335 335 337 337 337 335 335 335 334 335 335 334
316 317 318 319 321 324 327 329 331 332 333 336 340 338 350 353 354 354 352 350 352 353 352 349 347 346 345 342 338 335 336 335 334 339 337 335 334 334 335 334 333 335 334
315 315 318 319 320 322 325 327 332 333 334 336 336 340 346 351 353 352 350 351 352 351 350 347 346 346 344 342 339 336 336 336 336 335 338 334 332 334 332 330 332 333 333
315 315 318 320 320 322 324 326 330 335 334 335 338 336 342 348 350 351 350 351 351 350 349 347 346 345 343 342 339 338 337 335 333 334 335 335 333 333 331 331 331 331 331
315 314 316 317 318 320 323 324 328 333 337 336 339 340 343 347 348 351 351 351 350 349 347 346 345 344 342 339 338 337 335 336 336 334 334 334 333 333 333 331 331 328 328
314 313 315 316 316 318 323 324 327 333 339 337 338 340 345 348 347 350 351 351 349 347 346 345 343 340 337 336 336 335 336 337 336 334 334 335 333 331 332 332 330 329 329
314 313 313 314 315 316 320 323 327 333 340 340 339 341 346 349 347 348 350 350 348 346 345 342 340 338 337 335 334 333 334 334 333 335 335 335 334 333 332 332 331 330 329
313 312 312 313 313 313 315 321 326 331 339 341 342 346 350 351 346 348 348 348 346 345 343 341 338 336 335 335 334 332 332 332 330 329 331 333 333 331 330 330 330 330 327
314 312 312 312 311 311 315 320 327 333 339 342 346 350 352 348 347 347 345 346 344 342 340 338 337 337 336 334 334 333 332 333 330 328 329 330 329 328 327 328 329 329 328
314 313 312 311 311 313 317 322 330 335 339 345 348 351 351 343 346 345 345 342 341 339 338 337 336 336 335 332 333 332 332 332 329 327 325 326 327 327 328 328 327 327 328
313 312 310 311 313 316 320 324 331 338 342 346 349 349 345 341 343 342 341 340 339 337 336 337 335 333 333 330 328 333 332 331 328 327 326 327 327 327 328 328 329 328 326
313 312 311 311 316 323 326 331 337 340 345 347 347 347 345 339 340 336 338 335 335 335 334 335 333 331 330 326 325 328 330 329 328 327 325 326 328 329 330 329 330 329 328
314 316 318 315 318 319 326 335 340 343 345 345 345 344 340 338 331 334 333 334 334 335 334 333 331 328 327 326 326 326 327 328 329 328 327 326 327 328 329 329 329 329 329
317 330 322 320 317 319 335 339 341 343 344 345 344 341 339 334 332 333 333 333 334 333 330 328 328 327 327 327 325 325 327 329 329 328 328 327 328 327 327 329 328 328 328
323 332 336 336 338 338 337 340 342 343 344 344 342 339 337 334 333 332 334 334 333 332 329 327 328 328 328 327 327 327 327 327 326 326 327 327 327 324 324 326 326 327 327
327 329 332 333 332 331 328 321 336 338 339 339 338 337 334 332 331 332 333 333 331 330 329 329 328 327 327 326 327 329 329 327 326 325 325 325 326 325 323 324 325 327 326
324 331 333 337 338 336 335 334 330 327 333 333 333 332 331 331 332 332 331 330 329 328 330 329 327 327 327 327 328 328 328 327 326 325 325 325 325 325 323 322 323 324 325
328 331 335 337 336 337 336 335 334 334 333 326 328 331 331 331 330 329 329 328 327 327 329 328 327 327 327 328 328 327 327 327 326 325 324 324 324 323 322 321 321 321 324
327 326 332 336 336 335 335 334 333 333 328 322 318 324 327 328 327 327 327 328 328 329 329 328 328 328 328 327 328 328 326 326 326 324 325 325 324 323 322 322 321 321 324
325 328 333 333 334 334 333 332 332 330 330 328 325 317 321 323 321 324 328 328 328 328 328 328 328 328 327 328 328 326 326 324 324 323 324 325 324 323 322 323 324 322 323
325 332 333 333 334 333 333 333 332 332 332 330 326 323 325 324 324 328 329 328 328 327 327 327 327 328 328 327 326 326 326 326 326 324 325 324 324 324 323 323 323 323 323
332 333 334 334 334 334 334 334 334 333 330 329 327 324 326 327 327 328 328 327 327 327 327 327 327 327 327 327 326 326 326 326 326 327 326 326 324 322 324 324 324 324 323
332 333 334 333 334 333 333 333 332 331 329 327 326 327 327 326 323 320 320 322 322 323 325 324 324 323 325 327 327 327 327 327 327 327 326 326 325 324 324 322 323 325 325
333 334 334 333 333 333 333 333 330 328 327 327 324 322 320 317 313 313 314 313 311 311 317 320 321 322 323 324 324 324 324 326 326 326 326 325 325 324 326 326 322 324 323
333 333 334 333 332 331 331 329 328 326 322 320 316 311 309 308 305 305 306 305 305 308 310 313 314 316 319 321 321 323 323 324 323 324 325 324 325 324 324 323 320 319 316
332 332 332 331 330 329 328 326 324 320 316 311 307 305 303 303 303 303 302 301 301 302 304 305 307 310 312 315 316 317 321 321 321 321 320 320 319 316 315 312 311 310 308

GFSGL_925_thetae_084.txt.gz
Theta_e
319 319 320 319 319 322 324 325 327 328 329 329 325 326 331 343 350 353 353 353 353 353 355 352 351 351 350 345 342 341 336 334 340 337 337 338 336 333 336 334 335 333 333
318 317 317 319 320 323 322 324 326 329 330 331 331 331 329 336 346 353 353 354 354 355 353 351 353 352 349 345 342 341 336 334 339 338 337 336 334 333 334 334 332 334 333
318 318 317 316 317 320 322 321 324 327 330 333 333 333 334 332 334 348 353 355 355 354 352 353 353 350 348 346 342 341 335 336 337 336 337 336 334 333 334 332 330 331 333
318 318 317 317 316 316 321 324 324 325 326 328 332 335 335 336 337 340 353 354 354 352 351 354 351 348 348 345 341 340 338 337 336 334 335 335 333 332 331 331 330 329 332
318 318 318 317 316 317 318 319 321 324 325 326 329 336 337 336 338 344 352 353 353 350 353 352 348 347 347 344 341 340 339 337 337 335 335 335 335 333 331 330 331 330 329
318 318 317 316 315 315 317 317 318 318 325 326 328 333 336 340 335 340 351 353 351 350 352 350 347 347 345 342 341 339 338 336 337 335 335 334 335 334 332 332 330 328 327
319 318 317 316 315 314 314 315 317 318 320 325 327 330 338 339 339 338 350 351 350 350 350 347 345 343 341 338 336 335 336 335 334 335 334 333 333 333 331 331 331 328 330
319 319 317 316 314 313 313 314 315 315 316 318 327 330 336 340 341 343 348 349 348 348 348 346 343 340 338 337 335 334 333 333 333 331 331 333 334 332 332 331 331 330 328
318 317 317 316 314 313 313 313 314 315 314 315 320 329 335 340 340 345 347 347 347 347 346 344 342 339 336 335 334 333 333 333 332 331 330 331 330 329 330 330 329 328 327
317 316 316 316 315 314 313 313 312 312 313 314 317 327 335 340 344 347 347 346 346 345 344 341 339 337 335 334 335 334 335 333 331 329 326 326 326 328 328 328 328 328 328
315 314 314 314 314 313 312 312 312 312 313 317 319 330 336 342 344 346 346 345 345 343 341 338 337 337 336 333 333 334 333 333 330 329 327 327 327 327 328 327 328 327 327
312 311 311 311 311 310 311 311 310 312 315 320 325 335 339 344 344 345 345 344 342 340 339 338 335 334 334 331 330 331 331 331 328 326 325 327 327 328 328 327 328 328 328
311 311 311 311 310 309 311 310 310 315 318 323 332 338 341 339 335 342 342 341 340 338 339 337 335 333 331 326 326 327 328 328 328 327 326 326 326 328 328 329 328 329 328
312 312 314 319 314 310 311 313 314 322 324 331 337 340 340 333 330 336 337 338 337 335 335 333 331 329 327 326 326 326 326 328 330 329 328 329 327 328 327 328 329 328 329
315 319 320 315 313 311 311 313 321 326 332 337 340 341 337 334 335 333 332 332 332 330 329 327 326 327 327 327 327 326 327 329 328 328 328 328 328 326 326 327 328 328 328
320 328 325 320 319 318 321 321 321 331 336 340 341 339 337 336 334 334 335 333 332 331 329 329 329 329 328 327 328 329 328 328 327 326 326 327 327 325 324 325 326 327 327
326 330 331 329 327 326 327 327 321 320 339 340 339 337 335 334 334 334 333 332 331 330 330 329 329 328 327 327 328 330 330 328 326 325 325 325 324 326 324 323 324 325 325
326 327 335 335 335 335 335 334 334 334 330 322 330 332 332 332 333 333 332 330 328 330 330 328 327 327 327 328 328 329 329 327 327 325 324 324 325 325 323 322 322 323 323
325 328 334 337 337 337 336 335 331 327 321 317 317 325 331 332 331 330 329 329 330 331 329 328 327 327 327 328 328 328 327 327 327 325 324 324 323 322 321 322 322 321 322
326 329 332 336 336 335 334 332 330 329 327 326 322 319 323 326 326 327 329 329 330 329 328 328 328 327 328 328 328 327 326 325 325 324 324 325 324 323 323 323 323 321 321
324 328 333 335 334 333 332 332 331 329 326 324 322 325 327 327 328 330 329 329 328 329 328 328 328 328 328 328 328 326 325 325 324 323 323 324 325 324 323 323 324 324 322
325 331 334 334 333 333 333 332 331 328 326 325 323 325 327 329 330 329 329 328 328 328 327 328 328 327 327 328 327 326 326 326 325 326 326 324 324 324 324 323 324 324 323
327 332 333 333 333 333 334 332 331 329 328 326 325 326 327 324 323 323 322 320 322 325 325 325 325 327 327 327 326 326 327 327 327 327 326 326 325 324 323 322 324 324 325
333 333 333 333 334 333 330 330 329 329 329 328 325 321 317 315 314 313 313 313 317 318 320 321 322 322 324 325 325 325 325 326 326 326 326 325 324 324 325 325 324 323 323
333 332 331 332 332 330 328 327 326 325 322 317 314 311 310 310 309 309 309 310 311 313 314 316 318 320 321 322 323 323 324 324 324 325 325 326 324 324 323 321 319 317 317
332 332 332 332 330 329 326 322 319 315 311 309 307 306 304 302 302 302 303 306 307 307 308 309 310 314 317 318 319 321 323 322 322 322 322 322 321 318 316 313 312 309 307

GFSGL_925_thetae_087.txt.gz
Theta_e
320 320 320 321 319 318 318 318 321 322 324 326 327 327 326 325 323 329 343 343 338 340 345 348 345 341 333 345 349 345 342 340 331 336 338 337 337 336 335 334 333 333 332
320 320 321 319 319 320 320 318 318 323 324 324 328 329 330 330 330 327 329 345 347 350 351 351 350 349 348 348 349 344 342 338 336 332 338 337 335 333 334 334 332 333 333
320 321 318 317 317 317 315 315 320 322 320 321 323 326 329 332 332 332 327 331 349 352 350 352 351 351 350 348 349 343 341 338 336 336 336 336 334 333 333 332 332 331 331
319 318 317 317 317 316 315 316 320 319 320 324 324 325 326 327 332 333 333 331 332 350 353 354 351 351 350 349 347 343 341 338 336 335 335 335 333 333 333 331 330 329 330
318 318 317 317 317 316 315 314 314 313 316 319 320 324 324 324 326 335 334 336 333 340 351 352 352 351 349 351 347 344 340 337 336 335 334 334 333 332 331 330 329 330 330
318 319 318 318 317 317 315 316 317 318 317 316 316 317 321 325 326 328 335 335 336 350 352 351 350 349 350 347 347 345 340 337 336 335 333 332 333 333 332 330 330 329 327
316 318 318 318 318 316 315 314 316 316 315 314 314 317 319 322 326 326 326 335 336 343 349 349 350 347 347 347 345 341 340 338 336 336 334 333 332 333 333 331 330 329 327
316 316 316 318 318 317 316 315 314 313 313 312 313 314 315 316 319 326 328 332 335 338 347 348 347 346 346 345 341 338 337 336 335 334 334 333 333 332 332 331 331 330 329
316 316 316 316 317 317 315 314 313 313 313 313 312 313 314 314 315 318 328 331 335 341 347 347 344 344 343 342 336 334 333 333 332 331 331 330 330 329 329 330 329 328 326
315 315 316 316 316 316 316 314 313 312 312 312 312 312 312 312 312 314 318 328 336 342 345 344 344 341 337 337 336 334 333 332 331 330 329 327 326 326 328 329 329 327 326
311 311 311 311 313 316 316 315 313 312 312 312 311 311 312 312 313 314 318 330 336 343 342 340 341 339 337 335 335 333 332 332 330 329 328 326 326 326 327 328 328 328 328
309 309 310 311 313 314 315 315 314 312 312 311 311 311 311 312 314 316 316 331 337 341 339 340 338 336 334 334 334 334 334 332 330 328 326 326 327 327 327 327 327 328 327
309 309 310 311 311 311 312 313 314 313 311 310 310 311 311 313 318 323 328 335 338 340 337 338 338 336 334 332 333 332 331 330 327 326 325 325 327 327 327 327 327 328 328
308 309 309 310 310 309 310 311 311 311 311 310 310 310 312 317 326 329 331 333 339 337 336 335 335 334 331 329 328 329 329 328 327 327 326 326 326 328 328 328 328 328 328
310 310 311 312 313 314 312 310 311 310 310 310 310 311 316 324 329 331 332 335 334 336 331 329 327 326 325 326 326 326 327 327 329 328 328 328 328 327 326 327 328 328 327
311 312 314 312 311 313 314 311 310 310 310 310 311 316 322 332 332 333 337 339 337 332 328 326 325 325 324 325 325 325 326 328 328 327 327 328 327 325 324 324 326 326 326
314 320 319 315 311 310 311 310 311 312 313 313 315 321 329 334 331 332 336 332 329 330 327 326 327 326 326 327 327 327 328 328 327 326 326 325 326 325 323 323 324 324 325
322 325 323 321 319 318 316 316 315 315 319 319 319 327 334 331 331 333 329 329 329 328 327 327 326 327 326 327 328 329 328 328 326 325 325 324 324 325 324 323 322 323 323
321 326 329 327 326 327 327 326 327 326 321 318 316 319 328 331 330 329 329 329 328 326 327 327 327 327 326 326 328 329 329 327 326 325 324 324 324 324 322 321 321 321 322
317 326 333 329 330 329 327 327 327 327 327 327 324 318 319 327 327 327 329 329 328 327 327 326 326 326 326 327 328 328 327 327 325 324 324 324 323 322 322 321 322 321 320
317 331 329 327 328 328 328 328 327 326 325 324 324 326 327 327 327 328 328 329 329 328 327 326 326 327 328 328 328 327 326 326 325 324 325 325 324 323 322 322 323 323 322
320 331 331 331 330 329 327 326 325 325 326 325 323 327 328 329 328 326 325 327 328 328 328 327 327 327 327 327 327 325 325 325 323 323 323 324 324 324 323 323 323 323 323
325 333 332 331 328 327 326 325 325 325 326 325 325 325 324 322 319 319 321 324 326 327 327 327 327 327 327 327 326 326 326 325 325 325 325 324 324 323 324 324 324 324 324
331 332 333 331 329 328 326 325 324 325 323 320 318 316 313 313 312 314 317 319 321 323 324 325 325 326 325 325 326 326 326 326 326 326 326 325 325 324 324 323 323 323 321
332 331 330 328 328 326 326 325 321 318 315 313 310 308 308 309 310 310 312 315 316 317 317 320 322 322 323 323 324 325 325 325 325 325 325 325 324 324 323 322 321 319 316
331 330 328 326 325 322 318 315 314 312 309 307 305 304 304 303 303 304 306 309 310 312 314 314 315 318 320 321 322 322 323 323 323 323 324 322 321 318 316 313 310 308 306

GFSGL_925_thetae_093.txt.gz
Theta_e
318 318 318 319 321 322 322 321 320 318 319 320 321 320 320 321 323 325 328 329 329 329 327 325 331 338 338 339 340 341 343 338 336 338 336 337 337 337 337 335 335 334 333
316 318 318 319 319 322 322 321 320 318 317 317 317 319 320 322 319 323 330 330 330 330 331 332 331 332 338 338 337 340 338 339 338 337 336 336 335 335 335 334 334 334 333
316 316 317 319 319 321 322 321 320 319 318 317 318 318 320 321 321 322 322 324 325 328 328 331 334 335 335 339 340 339 339 339 339 337 334 335 334 334 334 334 334 333 333
315 315 316 316 318 319 321 321 319 318 318 318 318 315 317 320 323 322 322 324 325 323 326 331 332 333 337 337 337 337 340 340 337 336 333 333 334 334 335 334 333 333 332
314 313 315 316 316 317 318 319 319 318 319 318 316 317 320 322 321 321 321 321 321 324 325 326 326 328 334 336 325 334 340 339 335 333 332 330 331 332 332 332 331 330 329
313 316 315 316 317 317 317 318 318 318 318 317 317 317 318 317 315 315 314 311 312 314 321 323 324 326 328 337 336 328 329 339 337 334 332 329 331 333 332 332 330 327 324
311 312 313 315 316 315 316 316 317 317 317 316 316 316 316 315 315 314 313 312 313 313 312 315 318 324 327 330 339 328 335 341 340 337 332 332 332 334 333 331 329 328 327
310 311 311 311 312 314 315 316 316 316 315 314 314 315 315 314 314 315 313 312 312 312 311 313 319 320 324 330 338 342 341 341 339 337 334 335 334 334 333 332 331 329 327
309 310 311 311 312 312 313 314 314 315 315 314 314 313 314 314 314 315 314 313 311 311 310 310 311 313 318 327 338 338 337 337 337 336 334 334 333 332 331 331 329 327 326
308 309 309 310 311 312 313 313 313 314 314 314 314 314 314 314 315 315 313 312 312 311 310 310 310 314 317 329 337 337 333 333 334 335 333 333 332 331 331 331 330 327 326
306 306 306 307 307 308 308 309 310 312 313 313 313 314 314 313 313 314 313 312 312 311 310 310 311 312 323 331 337 337 335 337 332 334 332 330 329 328 328 328 328 328 325
304 305 305 306 306 307 307 307 308 311 313 313 313 312 312 312 312 313 313 312 312 311 311 311 310 310 315 326 333 336 336 336 331 330 328 327 326 326 326 327 327 328 327
302 303 303 304 304 305 306 307 309 309 310 311 312 312 311 311 310 312 313 312 311 311 311 311 310 311 315 325 329 332 333 331 329 327 326 326 326 326 326 326 326 327 327
303 303 304 304 305 306 307 308 308 308 309 309 309 310 312 309 309 310 311 311 311 310 311 311 311 313 318 324 329 331 331 330 329 329 327 325 326 326 326 326 326 327 327
303 304 304 305 306 306 307 307 308 309 308 309 309 309 309 311 309 310 311 311 311 311 312 314 316 317 319 323 326 328 329 329 329 328 324 325 326 327 326 327 327 327 326
306 306 306 307 308 308 309 308 307 308 309 309 309 310 310 311 310 310 311 311 311 311 312 316 318 323 326 326 325 325 327 329 328 325 324 325 326 327 326 326 326 327 326
310 311 310 310 312 313 312 311 310 308 307 309 309 310 312 311 310 310 310 310 310 310 312 322 325 328 327 327 326 326 326 328 326 324 325 325 326 325 324 323 325 326 325
304 304 305 307 311 311 310 311 312 312 308 307 308 310 312 311 310 310 310 310 309 310 314 326 328 326 326 326 325 326 326 326 326 327 327 326 324 323 322 322 324 324 324
301 302 307 314 312 311 311 311 312 311 309 308 307 308 310 311 310 310 310 310 310 314 324 327 325 324 324 324 325 325 326 327 327 327 326 325 324 323 322 321 321 322 322
302 306 312 316 316 313 311 310 310 310 309 309 308 308 307 309 307 308 309 310 315 327 327 326 324 324 323 324 324 325 325 326 326 326 325 324 324 323 322 321 320 320 321
304 309 323 323 317 315 312 310 310 309 309 309 309 309 308 309 309 310 311 312 326 326 325 324 324 323 324 325 324 326 327 326 325 324 323 323 323 322 320 320 320 320 320
304 320 325 326 325 323 319 316 315 315 314 314 313 310 310 311 317 322 325 325 325 325 324 324 324 325 325 325 326 326 326 325 324 323 323 323 322 321 321 321 322 321 321
306 326 326 326 325 325 325 324 323 321 320 317 316 316 320 322 321 321 322 323 324 325 325 326 325 326 327 327 328 328 326 325 325 323 323 324 322 322 321 322 322 322 321
325 325 324 322 321 320 319 318 316 317 317 316 316 315 314 313 314 315 317 319 324 324 325 326 327 327 326 327 327 327 326 325 323 322 323 323 323 323 322 322 322 321 320
326 325 322 321 320 319 317 315 313 312 312 310 309 309 308 309 311 312 315 319 322 324 325 326 326 326 326 325 325 324 323 322 323 323 323 324 323 323 322 321 319 317 315
323 321 320 317 315 313 312 310 309 307 306 304 304 304 304 305 306 308 310 315 318 320 322 323 324 324 325 325 325 325 325 325 325 324 323 323 321 320 318 315 313 309 306

GFSGL_925_thetae_096.txt.gz
Theta_e
316 317 317 317 316 317 317 317 318 320 319 318 319 320 321 320 320 324 324 325 326 327 329 330 330 330 328 327 333 336 336 338 340 339 337 336 337 337 336 337 338 337 335
317 316 316 318 318 319 318 318 319 320 319 318 319 320 320 319 319 321 319 325 330 328 324 324 327 330 332 333 333 334 336 335 336 338 338 337 337 336 337 335 335 334 334
316 317 317 317 316 318 319 320 321 321 320 318 318 316 317 318 319 320 320 321 321 322 322 324 321 323 331 334 334 335 335 336 336 338 338 337 336 336 336 333 333 333 333
312 313 314 315 316 317 317 318 319 320 321 320 318 317 317 317 318 319 321 321 320 320 323 322 324 326 327 328 333 336 336 335 336 337 336 335 334 333 333 332 332 333 333
312 313 313 313 314 314 316 317 318 318 319 320 319 318 317 318 317 319 321 320 319 320 319 318 323 324 324 325 327 328 334 334 336 335 334 332 330 331 332 332 333 333 333
309 310 311 312 314 315 315 316 317 317 318 319 318 318 318 318 316 318 320 319 318 316 311 312 313 316 318 321 325 328 333 333 335 334 334 332 331 332 332 333 331 328 330
308 309 310 310 310 313 315 316 316 317 317 317 317 317 318 317 316 318 319 317 315 312 312 312 311 311 312 315 319 325 332 331 327 329 334 333 332 332 331 332 331 329 329
306 307 308 309 310 310 311 313 315 315 316 316 316 316 317 318 317 317 317 316 315 312 313 311 311 310 310 311 315 319 330 333 324 325 335 333 331 333 332 333 333 330 327
303 304 306 307 308 309 310 311 311 313 314 314 314 315 315 316 316 316 316 316 314 313 312 311 311 310 309 309 312 316 323 332 329 329 336 337 336 334 333 332 329 327 328
302 303 304 306 308 309 310 310 311 311 312 313 313 314 314 314 315 315 315 314 314 314 312 312 312 310 310 310 312 319 327 332 334 333 331 334 332 332 332 332 331 329 327
302 303 303 304 305 306 308 309 310 311 312 312 313 313 313 313 313 314 315 313 313 313 312 312 312 312 311 311 310 316 320 331 331 331 332 330 330 330 331 330 331 330 327
300 300 300 301 302 303 304 305 306 307 308 310 311 312 313 313 313 314 314 314 313 313 312 313 313 312 311 311 310 311 318 326 329 327 328 326 326 327 329 329 328 328 327
301 302 302 302 302 303 304 305 306 306 307 307 308 308 310 312 312 313 314 314 314 313 312 313 313 312 311 311 310 312 324 326 327 325 325 324 326 326 326 325 327 327 326
301 302 302 302 303 303 303 303 304 304 305 306 307 309 310 311 311 310 312 313 313 312 312 312 312 311 311 312 312 316 323 326 326 326 326 326 325 325 324 324 325 325 326
301 302 302 303 304 304 304 304 306 306 306 307 308 309 311 312 310 310 310 310 310 312 311 311 310 313 313 313 316 322 324 326 325 326 326 324 324 324 324 325 325 324 326
302 304 304 305 305 305 305 306 305 306 307 307 308 309 309 309 310 310 311 312 313 313 310 312 314 314 315 315 319 322 324 325 327 325 324 324 324 324 324 325 325 326 326
303 305 306 308 308 309 308 308 308 307 306 307 307 308 309 309 309 310 311 311 312 310 312 312 313 314 316 319 323 325 325 324 325 326 324 324 325 325 326 325 326 326 324
302 303 301 301 302 303 305 307 310 311 309 305 306 307 308 308 309 309 310 310 307 309 309 310 312 316 321 325 325 326 325 324 324 324 324 325 325 324 323 324 325 325 324
298 299 300 301 303 305 310 311 311 312 310 307 306 304 306 309 309 309 310 309 309 309 309 310 312 319 325 326 326 325 326 324 324 323 325 325 324 322 322 322 324 324 323
297 298 299 303 312 311 311 312 312 311 309 308 307 306 305 306 305 304 307 309 310 310 311 312 316 325 325 325 325 325 324 324 324 325 326 324 323 322 322 321 321 321 321
297 300 305 318 313 311 311 311 310 309 309 308 308 306 307 308 307 307 309 310 310 309 314 320 325 324 325 325 324 324 324 324 325 326 325 324 323 322 322 321 320 319 320
298 305 324 316 316 313 311 310 309 310 309 309 308 305 308 310 310 310 310 310 310 313 324 325 324 324 324 324 325 324 324 325 325 325 323 323 323 322 320 320 320 320 319
305 322 322 321 321 315 314 313 311 311 310 310 308 306 310 310 310 310 311 311 318 324 324 325 324 323 324 325 325 325 326 326 325 323 323 323 321 320 320 321 321 320 321
323 321 320 319 318 318 317 316 316 315 313 310 308 308 309 314 316 318 320 322 324 324 323 323 323 324 324 325 325 326 325 325 324 323 323 322 321 321 321 322 322 321 320
321 319 319 318 317 316 314 313 312 312 312 312 310 310 310 312 312 315 317 319 320 322 323 325 325 326 326 326 326 325 325 324 323 323 323 322 322 322 322 321 319 317 314
317 315 314 313 313 311 310 309 308 307 306 306 306 305 305 306 307 310 313 317 319 321 323 324 325 326 326 326 326 325 323 322 322 323 323 323 322 320 320 316 313 309 306

GFSGL_925_thetae_102.txt.gz
Theta_e
320 323 325 328 330 333 334 335 331 328 325 321 322 322 324 325 327 329 330 329 330 334 335 335 336 338 338 336 336 336 334 333 334 330 328 329 331 336 338 339 339 341 341
318 319 322 323 323 324 325 326 326 327 326 325 324 323 323 323 324 327 327 325 327 329 331 333 332 332 335 335 334 334 332 332 331 332 331 331 334 337 339 340 336 340 336
314 316 319 321 324 324 324 325 324 326 327 326 324 323 323 323 323 324 324 323 324 326 326 328 329 329 330 330 331 330 330 331 333 333 332 333 334 338 340 340 337 336 336
314 313 315 316 319 322 324 324 324 324 323 325 325 323 322 322 322 323 323 323 323 323 323 324 324 325 327 326 329 329 329 330 331 332 333 333 335 338 340 337 336 334 334
311 312 312 314 315 316 319 321 321 321 321 321 323 324 323 321 321 321 321 323 323 324 323 323 323 323 321 323 323 322 324 327 327 327 329 332 334 337 336 335 334 334 334
309 309 310 312 312 314 317 318 318 316 320 322 322 323 324 324 321 320 322 323 323 324 323 323 322 319 317 315 315 313 314 320 324 327 330 332 333 334 336 335 333 334 336
308 308 309 310 311 312 314 316 318 320 321 319 316 320 324 327 324 321 320 323 324 324 324 324 323 319 320 320 319 318 318 318 319 322 326 331 333 335 335 334 333 334 335
307 308 308 309 309 309 311 313 315 318 320 322 322 323 323 325 326 324 320 320 324 324 324 325 324 321 321 322 321 319 318 318 318 321 325 329 333 336 332 330 331 333 332
306 308 308 308 308 308 309 311 313 315 317 319 320 322 324 324 324 325 324 321 323 324 324 324 324 323 321 320 319 318 318 318 318 317 321 327 328 329 329 323 330 333 336
305 305 305 306 307 307 308 309 310 312 314 316 317 319 320 323 323 323 322 322 322 323 324 324 323 321 321 319 319 319 319 318 318 317 317 321 327 329 329 324 326 332 335
304 304 304 305 306 307 307 308 309 310 312 314 315 317 318 319 321 321 321 321 321 322 323 324 324 321 318 318 317 318 318 318 316 317 316 319 328 322 321 322 327 331 334
303 303 303 303 304 306 307 308 309 310 311 312 314 315 316 317 318 319 319 318 320 322 323 323 322 321 320 318 314 314 313 312 314 316 317 318 328 323 322 324 326 329 332
303 303 303 303 303 305 306 307 308 308 309 310 312 314 315 316 317 317 317 316 315 320 322 322 321 320 319 318 317 315 312 313 316 318 318 321 326 320 321 324 327 330 333
301 301 302 302 303 304 305 306 307 308 309 309 310 312 312 314 315 317 316 315 315 315 317 318 318 318 318 318 317 315 314 316 317 318 320 323 326 320 325 327 329 331 332
299 300 301 301 302 302 303 304 305 306 308 310 310 310 311 312 313 315 317 317 315 314 314 315 317 317 317 317 317 317 317 318 320 320 320 327 327 325 326 327 328 330 331
299 299 300 301 302 302 302 303 303 304 305 305 306 308 309 310 310 311 312 314 316 315 313 315 316 316 317 317 316 317 317 319 321 322 325 326 325 325 326 327 328 329 330
299 299 299 299 300 300 301 302 303 303 303 303 304 304 305 307 309 308 309 310 312 314 314 314 315 316 316 317 316 316 317 318 321 323 327 325 326 326 326 328 328 329 330
298 298 299 299 299 300 301 302 302 304 305 303 302 303 304 304 306 306 307 307 310 312 311 312 313 315 315 316 316 317 317 318 323 324 326 327 327 326 328 329 329 330 330
295 296 297 297 298 299 300 300 301 301 306 306 305 302 302 304 304 305 305 307 312 312 312 314 314 315 316 317 317 317 317 318 323 325 327 328 327 328 329 329 329 329 329
293 294 294 295 296 297 298 299 300 300 302 303 306 306 303 302 301 304 305 309 311 313 313 314 315 316 317 317 317 317 317 322 324 326 327 327 328 329 329 329 328 327 328
294 295 296 297 298 300 303 303 302 303 304 304 304 307 305 303 304 306 308 310 311 312 313 314 315 316 317 317 316 317 320 324 325 327 328 328 329 328 327 327 327 327 328
297 298 300 305 311 311 311 311 306 305 306 307 308 304 304 306 306 308 309 310 311 312 313 313 314 315 315 315 316 318 324 325 327 327 327 329 327 326 325 325 326 326 325
299 304 309 312 311 311 311 310 310 309 309 308 306 303 304 309 308 309 311 311 311 312 313 313 314 315 315 316 318 323 325 326 326 327 328 327 326 325 325 324 323 323 322
318 317 316 316 312 312 311 310 309 309 308 308 308 308 311 311 310 310 311 311 312 314 314 316 316 316 318 321 324 326 326 327 327 328 327 326 325 324 325 324 325 325 321
315 314 313 314 314 314 312 312 312 312 311 311 311 312 312 312 313 312 312 314 315 316 316 315 315 316 326 326 325 326 327 328 328 327 327 326 325 325 325 321 318 315 309
312 310 308 307 309 310 311 311 310 310 311 312 313 314 314 314 314 315 315 315 315 314 313 316 325 327 326 326 328 328 327 327 327 326 325 326 325 324 321 316 311 307 306

GFSGL_925_thetae_105.txt.gz
Theta_e
320 321 322 325 328 330 334 335 338 341 340 340 340 337 334 339 336 336 337 337 335 338 339 338 336 338 338 338 337 333 330 335 339 333 331 331 331 331 330 332 337 340 341
318 318 320 323 326 326 329 332 334 337 337 335 331 329 326 324 321 324 324 325 328 330 331 334 334 336 337 338 337 337 335 335 334 337 332 332 331 332 333 338 339 341 340
318 318 317 319 323 327 328 326 328 329 330 327 325 324 324 322 323 325 326 326 326 326 327 328 331 332 333 333 333 332 330 331 332 333 333 332 333 333 334 337 340 341 341
314 316 316 317 318 320 323 324 324 325 327 327 324 322 321 321 322 323 323 323 323 323 325 326 326 329 330 330 331 331 330 330 328 329 330 331 330 331 334 337 339 338 337
312 313 314 315 317 317 319 318 319 317 324 324 326 324 323 322 322 322 322 322 323 323 323 324 325 325 325 327 326 327 327 327 326 326 327 328 329 330 334 336 336 336 335
311 312 312 312 313 315 316 320 316 318 318 323 323 322 324 324 322 321 322 323 324 324 324 324 323 323 323 322 321 315 314 322 323 322 321 324 328 331 333 335 336 336 337
311 311 311 311 311 312 315 315 319 317 316 318 322 323 323 322 325 324 320 325 326 325 326 325 324 323 322 320 319 319 318 317 316 318 322 323 325 327 331 335 335 334 334
308 308 310 310 310 311 312 314 315 319 320 319 320 320 323 324 319 320 324 321 327 327 327 327 326 324 323 322 322 324 323 322 320 320 322 324 326 328 330 329 332 332 332
307 307 307 308 308 311 311 313 314 315 319 321 322 323 324 324 322 324 324 326 323 328 329 328 328 327 325 322 323 323 322 321 320 319 318 317 321 326 323 328 330 331 332
306 306 307 307 308 309 311 312 312 313 315 318 320 322 323 324 324 324 324 325 325 325 327 328 327 327 326 324 323 323 323 322 321 321 321 320 320 323 330 329 330 329 330
305 306 306 306 307 307 308 311 312 312 312 315 318 320 322 323 325 325 324 324 326 327 326 327 327 325 325 324 322 324 324 323 322 321 319 318 319 321 329 327 328 327 326
304 305 306 306 306 306 306 306 309 311 313 315 316 318 319 321 322 323 323 323 324 325 325 325 326 325 325 324 322 320 321 320 318 318 318 318 319 319 327 328 327 325 325
304 304 304 304 305 305 305 306 306 309 310 312 313 315 317 318 321 321 321 321 322 323 323 323 324 325 324 324 323 321 319 316 316 317 318 319 319 319 328 325 324 323 326
302 303 303 303 303 304 305 305 306 306 308 311 312 314 314 316 317 321 319 320 320 320 320 321 322 322 324 323 321 319 318 318 318 318 318 319 320 322 328 324 322 323 327
300 301 301 300 300 302 303 304 305 305 307 309 310 311 313 315 315 317 319 319 319 318 318 319 322 322 322 322 322 321 320 319 318 318 319 322 321 325 324 322 323 324 326
298 299 299 300 300 301 302 303 303 304 306 306 308 310 312 311 312 312 312 313 319 318 317 319 321 323 322 322 321 321 320 320 319 319 321 323 324 327 318 323 324 323 328
297 297 298 299 300 300 300 299 302 302 303 303 305 306 307 307 309 310 310 309 311 317 318 318 320 321 322 321 320 320 319 319 319 321 323 324 325 325 323 325 326 328 328
296 296 297 298 299 300 299 299 299 299 300 301 302 303 304 305 306 306 307 308 309 311 317 318 318 319 320 319 318 319 319 319 318 323 324 325 325 326 325 324 326 328 329
294 295 295 295 297 298 299 299 300 301 301 302 304 302 302 303 304 305 306 305 309 312 312 316 317 317 317 317 318 318 318 318 319 325 323 324 326 326 326 325 327 328 330
292 293 293 294 294 296 297 298 299 299 298 301 302 304 303 301 302 302 302 303 306 310 312 313 314 314 314 314 316 316 317 318 320 322 324 325 326 326 326 327 329 330 330
293 294 295 295 296 297 298 298 299 299 300 301 300 304 304 302 303 303 304 305 306 309 311 312 313 313 315 316 317 318 318 320 324 323 325 327 327 327 327 329 329 330 330
297 298 299 301 303 305 307 306 302 301 301 301 302 303 304 303 304 305 307 308 308 311 312 314 315 315 316 316 318 319 319 320 323 325 327 327 327 326 328 329 329 329 328
299 300 303 310 312 311 311 306 304 303 304 304 305 304 303 306 305 307 309 310 311 312 312 313 315 315 316 318 318 318 318 321 325 325 326 327 324 328 327 328 328 327 327
313 314 314 313 313 311 310 310 308 308 307 306 305 304 305 308 308 309 310 311 311 313 313 313 313 314 316 317 317 318 319 323 324 326 327 326 327 326 326 324 324 325 323
310 310 314 314 314 313 312 311 310 309 308 306 306 306 308 309 310 311 311 311 311 313 313 313 313 315 317 318 318 320 323 326 328 327 327 327 326 326 326 323 322 319 315
306 308 310 311 310 312 313 313 313 313 311 311 312 311 311 311 311 311 312 313 314 314 314 315 317 317 317 319 320 325 326 327 327 327 327 326 325 324 324 321 316 314 312

GFSGL_925_thetae_108.txt.gz
Theta_e
319 319 318 320 322 325 329 329 334 336 338 339 342 342 341 333 331 331 332 329 330 322 329 336 342 341 341 342 340 338 336 332 325 324 325 325 323 335 334 332 330 332 332
318 318 319 319 319 321 324 328 330 332 333 336 339 339 337 333 331 329 328 323 321 319 326 334 338 338 336 336 337 336 335 331 327 324 326 327 331 331 329 331 331 337 339
315 315 316 319 319 320 321 322 326 326 327 328 334 335 334 331 327 330 329 328 328 329 332 336 334 334 336 337 336 334 334 332 326 329 328 329 333 331 332 334 335 334 334
314 314 314 315 317 318 320 319 322 323 325 324 321 324 327 331 328 327 325 326 327 327 327 327 329 330 332 333 332 332 330 329 331 330 330 329 329 328 328 333 333 332 336
313 313 314 314 314 315 316 319 319 321 318 321 321 322 325 324 325 325 326 326 325 325 325 326 326 327 327 330 330 330 329 328 328 327 326 323 325 325 330 331 332 333 334
313 313 313 314 314 313 313 315 317 321 319 319 319 317 316 319 323 322 323 324 324 324 325 324 325 325 325 324 324 324 322 314 320 323 322 321 322 322 324 329 333 333 332
312 311 311 311 311 311 313 313 314 317 320 320 318 315 317 314 320 322 323 324 323 325 324 325 323 324 322 321 320 318 313 314 315 315 319 321 323 324 326 330 332 333 334
309 309 309 309 309 309 309 311 314 315 319 319 318 316 315 317 320 324 322 322 326 326 325 325 324 323 323 321 318 319 320 321 321 320 319 320 320 322 319 322 326 327 326
308 308 308 307 307 308 308 310 310 313 315 319 319 318 317 317 319 321 323 322 318 320 326 325 326 325 326 321 324 325 323 324 323 320 319 319 318 318 319 321 325 328 330
307 307 306 306 307 307 308 309 309 311 314 316 318 320 321 322 322 323 323 323 323 324 321 325 327 328 327 324 322 325 326 324 323 322 320 320 320 318 320 324 327 330 330
307 306 306 305 305 306 307 308 309 309 310 313 315 315 319 322 322 324 324 323 325 326 323 322 327 328 327 326 324 322 324 324 325 323 322 321 319 320 321 324 327 328 329
305 305 304 304 304 306 307 307 307 308 309 309 313 314 316 319 322 322 323 324 324 325 326 325 325 326 328 327 327 325 324 325 324 322 320 320 319 319 320 320 326 327 326
302 302 302 302 304 305 305 306 306 306 308 309 311 314 314 316 320 321 323 325 324 325 326 326 326 325 327 326 325 325 324 324 322 320 319 319 320 319 321 321 326 327 323
299 300 300 302 303 304 305 305 306 306 306 308 309 311 314 315 316 318 320 322 321 323 324 325 325 323 323 323 322 322 322 321 320 319 319 319 320 322 321 323 327 325 323
297 298 299 299 300 303 303 303 303 305 306 306 308 309 311 313 316 315 316 321 320 321 321 322 322 322 323 322 322 321 319 320 320 320 320 319 320 322 322 324 326 323 324
296 296 297 298 299 300 301 301 301 302 303 305 306 307 308 310 311 311 309 312 317 320 320 321 322 321 322 324 325 323 321 320 320 320 319 319 323 323 324 326 323 324 323
295 295 295 296 297 297 298 300 301 301 302 302 303 305 305 306 308 308 308 307 309 312 319 320 321 320 321 324 324 324 324 323 322 322 322 322 323 324 323 325 323 323 325
293 294 295 295 296 297 298 299 299 300 300 301 301 302 303 304 306 306 306 306 306 310 315 320 320 320 319 323 324 323 322 322 322 322 323 323 323 323 324 325 324 322 322
291 292 293 294 294 296 297 298 299 299 299 299 300 300 301 302 303 303 303 304 306 309 311 317 319 319 320 320 321 321 321 321 320 323 324 323 321 321 323 325 324 322 323
291 291 292 293 293 295 295 295 297 299 299 300 300 301 302 300 301 301 302 304 305 306 308 313 318 318 318 317 317 319 319 319 321 324 323 320 320 321 324 325 323 324 326
293 293 294 294 294 294 295 295 296 297 298 300 300 301 303 302 302 303 304 305 305 306 308 311 314 316 316 316 315 316 317 318 322 324 322 320 320 320 325 325 324 326 328
295 297 298 299 299 299 299 298 298 298 298 299 299 299 302 303 303 303 303 305 305 306 308 310 312 313 314 314 314 314 317 322 324 322 320 321 320 321 325 325 324 322 327
303 302 303 306 310 311 308 304 303 300 300 300 301 301 300 302 303 304 304 305 306 307 308 311 312 312 313 315 315 316 318 323 321 319 320 322 324 325 324 321 324 327 325
312 314 313 313 311 310 309 306 304 302 302 302 302 302 303 304 305 305 306 307 308 309 310 312 312 312 314 315 316 320 320 320 320 320 319 321 325 324 322 325 327 325 321
307 308 311 312 313 312 310 309 308 307 306 305 305 305 305 307 306 307 309 310 310 311 312 312 312 314 315 314 318 318 318 319 319 320 323 325 322 322 325 323 321 318 316
303 303 305 306 308 309 311 312 309 308 307 306 306 306 307 309 308 310 311 311 312 312 313 312 312 314 313 318 319 319 318 319 320 321 324 325 324 323 322 320 318 314 312

GFSGL_925_thetae_111.txt.gz
Theta_e
320 319 320 319 318 318 318 318 320 321 325 327 332 334 335 339 339 335 330 327 326 326 326 325 322 320 326 327 335 335 335 334 326 328 329 327 327 325 322 326 332 330 330
316 315 315 315 318 319 319 318 319 319 319 321 325 327 331 334 336 329 326 324 327 329 329 321 320 320 322 322 331 335 335 333 329 323 324 323 323 323 324 331 333 332 332
315 314 314 314 314 314 315 317 317 318 317 321 322 322 324 323 332 331 329 329 329 328 325 320 320 321 322 325 335 335 333 332 331 327 325 323 324 327 331 333 332 334 334
314 313 313 313 313 313 313 313 313 315 317 318 320 321 321 323 327 330 330 327 325 325 322 320 323 326 329 334 333 334 333 331 329 328 326 327 328 329 328 330 330 330 330
312 312 313 313 312 312 312 312 313 313 312 313 318 321 320 320 322 323 323 325 325 322 321 323 321 323 330 333 333 332 332 330 329 327 324 321 321 321 322 323 330 329 326
311 311 311 311 311 312 311 311 310 311 313 313 314 320 320 318 318 320 321 322 322 325 328 328 329 329 328 331 331 330 329 327 325 322 318 316 317 318 321 323 328 331 326
309 309 309 309 310 310 310 309 309 309 309 310 315 316 319 317 317 318 318 317 322 323 327 327 326 325 325 325 326 325 324 321 316 313 314 317 318 317 320 323 324 326 326
307 307 307 308 308 308 308 308 307 307 308 309 310 314 317 318 317 316 316 318 318 319 324 325 324 324 323 322 322 320 315 313 316 317 318 318 318 318 320 318 318 321 325
307 307 307 307 307 307 307 306 306 306 306 308 311 313 316 317 317 316 316 318 319 319 326 326 323 323 323 321 317 314 316 319 321 321 319 319 318 318 318 318 319 324 325
303 305 307 307 307 307 306 306 306 306 306 307 308 309 315 316 317 317 316 317 317 319 322 326 326 323 325 323 319 319 321 322 322 322 321 320 319 319 319 319 320 325 327
302 302 303 305 307 306 306 305 305 305 306 308 308 308 310 315 317 320 321 320 321 321 317 319 325 325 324 323 322 324 322 323 325 322 322 321 320 320 318 319 321 325 326
298 299 301 303 304 305 305 304 304 305 307 307 307 307 308 311 314 316 317 321 322 323 322 323 322 322 315 319 325 322 324 324 324 324 323 322 321 320 318 318 321 324 326
297 297 299 300 302 302 302 303 303 305 306 307 307 308 308 309 312 313 313 319 321 322 323 321 322 322 322 320 326 326 323 323 325 324 323 321 320 318 318 322 323 327 327
295 295 296 297 298 299 300 301 303 304 305 306 306 306 307 308 311 312 313 314 319 322 323 323 322 323 324 324 324 324 325 325 325 324 323 322 319 318 319 322 322 324 326
294 294 295 296 297 299 300 300 302 304 304 305 306 306 307 307 309 311 312 313 315 319 322 322 323 323 323 322 321 322 323 321 322 322 321 321 319 319 321 321 322 325 325
293 294 294 295 296 297 297 298 299 302 304 304 304 304 306 307 308 310 311 309 309 313 317 320 321 322 321 322 321 321 320 319 320 321 321 320 319 319 319 322 322 325 322
293 293 293 295 295 295 296 297 298 298 300 301 301 301 304 304 305 307 308 309 308 307 315 319 319 321 320 321 323 322 321 321 321 321 321 320 319 319 321 323 322 323 323
290 291 292 293 294 295 296 296 297 297 298 300 301 300 301 302 303 303 303 305 306 307 308 315 319 320 320 320 322 323 323 322 320 320 320 320 321 321 323 322 324 324 322
289 290 291 291 293 294 295 295 296 297 298 299 300 301 301 302 302 302 302 303 305 306 307 310 318 319 319 319 319 323 323 323 322 322 321 322 321 323 320 320 324 323 322
291 291 291 292 292 293 294 295 295 297 297 299 299 299 299 300 300 300 300 302 304 305 306 307 313 319 319 319 319 318 321 321 321 321 322 322 323 321 318 321 322 321 321
292 293 295 294 294 294 294 294 295 295 296 297 298 299 300 300 300 300 301 302 304 305 306 307 309 317 318 318 318 317 317 318 318 319 322 323 322 320 319 322 323 322 322
294 296 298 299 299 298 297 297 296 296 296 297 299 299 300 299 301 301 302 302 303 305 306 307 309 312 317 316 315 314 314 314 319 320 322 322 320 319 321 323 324 322 323
302 311 307 307 309 309 305 303 302 298 298 298 299 299 299 300 302 302 302 303 304 305 306 307 308 311 312 314 314 314 314 313 314 320 321 321 319 321 322 324 323 320 322
304 306 309 310 311 309 307 304 301 300 300 299 300 301 300 300 302 303 303 303 305 305 306 307 308 310 313 312 313 315 315 315 316 318 321 319 320 321 323 322 320 322 318
299 303 304 306 307 308 309 308 306 303 302 302 302 302 301 301 303 304 304 304 305 306 307 307 308 310 311 311 311 314 315 317 317 320 319 320 321 324 322 322 320 316 314
295 297 300 302 303 304 305 308 308 307 305 305 304 304 305 305 305 305 305 306 306 307 308 309 310 310 310 311 312 317 322 322 321 320 321 323 323 321 322 321 315 313 311

GFSGL_925_thetae_114.txt.gz
Theta_e
320 320 319 319 319 318 318 318 318 317 318 318 317 318 322 322 327 332 334 336 335 332 328 328 327 327 325 324 322 325 328 324 323 326 331 331 330 328 326 326 329 330 331
318 318 317 316 315 315 316 318 315 315 315 314 314 316 320 319 319 323 329 332 330 328 326 326 326 325 324 323 323 328 330 331 329 327 329 328 328 326 323 323 323 328 332
314 315 315 314 314 314 314 313 313 313 312 312 314 314 313 315 319 321 325 328 328 325 325 325 326 325 324 322 323 326 332 331 330 329 326 325 324 323 325 325 331 332 332
311 312 312 312 312 312 312 312 312 312 312 312 312 312 312 314 320 319 322 326 328 327 326 325 324 323 322 322 323 326 330 331 329 328 327 324 325 328 329 328 327 328 329
309 309 309 309 310 311 311 312 313 313 313 312 313 313 314 316 318 319 321 323 325 327 325 323 325 322 321 321 325 327 329 330 327 326 325 323 322 321 318 320 322 323 321
307 307 307 308 308 308 309 310 310 310 309 309 309 309 309 310 316 318 319 320 323 323 324 324 323 322 321 321 323 328 330 329 327 325 320 315 316 316 318 320 323 326 319
307 307 307 307 307 307 307 308 308 308 308 308 308 308 307 308 309 313 317 316 319 321 321 321 322 325 324 324 322 328 329 328 328 326 320 314 314 316 317 320 321 321 322
305 306 306 306 306 306 306 306 307 307 307 307 307 307 307 307 307 308 315 317 316 318 315 319 320 323 324 327 327 329 328 324 321 315 313 314 315 315 317 319 317 319 322
303 303 303 303 302 302 304 306 306 306 306 306 306 306 306 309 310 311 314 316 316 316 318 319 319 322 323 326 326 323 320 317 314 314 317 317 317 317 318 318 317 318 320
301 301 301 300 301 303 304 306 306 305 305 305 305 305 305 307 307 311 315 316 316 317 318 317 321 322 322 323 323 321 314 313 317 319 319 319 319 318 319 319 318 318 321
299 299 298 299 298 298 299 301 305 306 305 305 305 305 305 306 308 308 313 316 316 316 316 316 319 322 323 322 319 315 313 315 320 320 320 320 320 319 319 319 318 319 321
297 296 296 296 297 298 299 302 303 304 305 304 304 305 306 307 308 308 310 317 317 317 316 316 316 318 324 323 322 320 317 319 321 322 322 321 321 320 320 320 317 318 320
295 295 295 295 296 296 297 299 302 303 303 303 303 304 306 306 306 307 308 312 316 318 320 319 316 317 319 323 322 323 322 322 323 324 322 322 322 322 321 319 318 321 323
293 293 293 294 294 295 296 297 298 299 300 301 303 306 306 306 307 308 310 312 312 313 316 320 320 320 319 322 318 315 319 322 323 324 323 323 323 321 320 319 320 323 325
292 292 293 293 294 294 295 296 298 300 301 303 304 305 305 305 306 307 307 310 311 311 312 315 318 318 319 320 319 319 319 320 321 322 322 323 322 320 320 318 321 322 323
291 291 292 292 293 294 295 295 296 296 297 299 300 303 305 305 306 307 308 308 310 311 314 316 318 319 319 319 319 318 319 320 320 321 321 322 321 320 320 318 320 322 321
290 290 291 291 292 293 294 295 296 296 297 297 298 301 302 304 304 305 307 306 307 308 312 316 318 319 320 320 320 320 319 320 319 319 320 321 320 320 318 318 319 321 321
288 289 290 290 291 292 293 294 296 296 296 297 297 297 299 301 301 302 304 304 304 307 307 308 316 318 319 319 321 321 321 320 320 320 319 319 320 320 318 318 320 321 321
289 290 290 291 291 292 292 293 294 295 296 296 297 298 300 300 300 300 300 302 304 305 306 307 308 316 318 319 320 320 320 321 321 320 320 320 320 319 319 320 321 321 321
290 291 292 292 293 293 293 293 294 295 295 296 297 298 299 300 298 298 299 301 302 304 305 307 307 312 318 319 320 319 321 322 321 322 321 320 320 320 321 321 319 321 320
290 292 294 294 295 295 294 294 294 295 295 296 297 298 299 299 300 300 300 301 302 304 305 306 308 308 315 319 319 318 318 321 321 322 322 321 321 321 322 319 320 320 318
291 296 305 302 301 300 297 297 296 295 295 295 296 296 299 299 300 300 300 300 301 303 305 306 308 308 312 317 318 318 317 317 317 318 319 320 320 321 321 320 321 320 320
297 303 306 308 309 308 304 301 301 297 296 296 296 298 298 299 300 300 300 301 301 303 304 305 307 308 311 315 317 317 314 313 313 315 319 320 321 322 320 321 322 319 318
296 299 303 304 305 307 307 302 299 298 298 298 298 299 299 300 300 302 302 301 302 303 304 305 306 308 310 313 314 314 314 314 314 314 314 319 321 321 321 322 322 320 321
293 295 297 299 300 302 304 307 302 302 301 300 301 300 300 299 300 302 302 303 303 303 304 305 306 308 309 312 312 313 313 313 314 313 314 316 321 321 321 321 321 321 320
291 292 293 294 295 297 299 301 305 305 304 303 302 302 301 300 301 303 303 303 304 304 304 305 306 308 309 310 311 311 312 311 312 314 314 319 321 321 322 320 317 317 312

GFSGL_925_thetae_117.txt.gz
Theta_e
316 318 319 319 319 318 318 318 318 318 318 317 316 314 313 314 315 316 317 319 322 326 329 328 329 330 328 328 327 325 325 324 323 323 323 326 326 326 331 331 327 327 328
313 314 317 317 317 317 318 318 318 317 317 316 314 313 313 312 312 312 314 317 319 323 325 326 326 326 326 325 324 324 323 323 323 323 325 326 327 329 330 328 325 323 324
310 310 311 312 312 312 312 313 316 315 314 315 313 313 313 312 312 312 314 317 318 321 324 325 325 324 324 323 324 323 323 326 326 325 327 327 327 327 326 323 323 323 328
308 308 308 309 309 309 309 309 310 311 312 312 312 313 314 312 312 313 313 313 317 318 323 324 324 324 323 323 322 323 323 328 329 326 325 323 323 324 326 329 330 330 330
308 308 307 307 307 307 307 307 307 309 310 312 312 313 313 314 314 313 314 314 316 318 317 322 324 323 323 322 322 322 323 326 326 325 324 322 323 325 325 322 320 320 319
307 306 306 307 307 307 307 307 306 306 307 309 309 309 309 309 309 310 312 315 315 317 318 321 322 323 323 322 323 322 322 326 326 325 323 323 322 321 318 317 319 320 312
305 305 305 305 305 305 306 306 306 306 306 306 307 308 308 308 308 308 307 307 309 313 317 317 320 321 323 323 321 321 324 326 326 327 324 323 320 318 315 317 320 319 318
304 303 303 303 303 303 303 304 304 304 304 305 305 306 307 307 307 306 306 306 306 308 314 316 317 317 318 323 324 324 322 322 324 327 325 325 322 315 313 315 317 317 319
302 302 302 301 300 300 301 300 300 300 303 304 305 305 306 306 306 305 306 310 310 310 314 316 316 317 318 319 323 324 323 325 326 325 325 321 313 314 317 318 317 317 316
301 301 300 298 299 299 298 300 300 299 302 306 305 305 305 305 305 304 304 306 310 313 315 315 316 317 319 321 322 322 320 324 323 314 314 315 317 318 318 318 317 317 318
298 298 298 296 296 296 296 297 296 298 299 300 304 305 305 305 305 304 304 305 308 313 314 316 317 318 320 321 320 319 324 319 313 314 317 317 318 318 318 319 319 317 318
296 296 295 294 295 295 295 295 296 298 300 302 304 304 304 304 304 304 304 307 308 311 315 316 316 316 320 321 318 318 323 316 314 317 318 319 319 319 319 319 319 318 317
294 293 293 292 293 293 294 294 295 295 296 302 304 305 304 304 305 305 306 307 306 308 314 316 317 316 318 316 319 315 315 313 318 319 320 320 320 320 320 320 319 318 319
292 292 292 292 291 292 293 294 295 296 297 298 301 303 303 303 304 305 305 306 307 309 313 317 319 317 316 315 315 318 317 317 319 320 321 322 321 321 321 320 319 318 321
291 291 291 291 291 292 293 293 294 295 296 298 299 300 301 304 306 305 306 307 309 310 313 315 317 317 317 316 316 316 317 321 322 322 322 322 321 321 321 321 319 318 321
289 290 290 291 291 292 293 293 294 293 294 295 296 296 298 300 304 305 304 305 306 308 311 312 315 316 317 316 314 314 315 314 318 321 322 322 321 321 321 319 318 319 320
288 288 289 290 290 291 291 292 294 294 294 295 295 296 296 297 300 305 305 306 307 309 312 312 314 316 317 317 317 317 317 318 318 319 320 321 320 320 320 318 318 318 318
287 288 289 290 290 291 291 292 293 294 295 296 295 296 296 296 299 303 304 305 305 306 310 313 314 315 317 318 318 319 319 319 318 319 320 320 320 319 318 318 317 317 318
288 289 290 291 291 292 292 292 292 293 294 295 296 296 296 296 298 300 302 302 303 304 305 307 312 316 318 319 320 320 320 320 319 319 319 319 319 318 318 318 318 318 319
288 289 290 292 293 294 293 293 293 293 294 295 296 296 297 297 296 297 298 300 301 303 304 306 307 310 316 318 319 320 320 320 319 319 319 319 318 318 319 318 318 317 318
288 290 292 294 300 297 296 295 294 294 294 295 295 296 297 298 299 299 299 299 300 302 303 305 307 307 311 317 318 319 319 320 319 319 320 320 320 319 319 319 319 320 318
289 292 298 304 306 306 302 300 298 296 294 294 295 296 297 297 300 300 300 300 300 301 303 304 306 307 308 313 317 318 319 319 319 320 321 321 321 320 320 320 319 319 318
292 295 298 300 302 303 305 301 299 297 296 295 296 296 296 298 299 299 300 300 301 301 303 304 305 306 308 310 315 317 318 317 317 318 318 319 320 320 320 320 319 319 319
291 293 295 297 298 299 301 301 299 298 298 297 297 298 297 298 299 300 300 300 300 301 302 304 304 305 308 309 314 317 317 315 314 315 317 319 319 319 320 320 320 319 317
289 291 292 294 295 296 297 300 303 301 300 299 299 299 299 299 299 300 301 300 300 301 302 303 304 305 307 311 313 314 314 314 314 314 313 313 316 319 321 320 320 320 320
288 289 290 291 292 292 294 295 298 302 303 302 301 300 300 300 300 301 302 302 301 301 302 303 304 305 307 309 312 313 312 312 312 313 313 314 316 320 321 320 321 320 317

GFSGL_925_thetae_123.txt.gz
Theta_e
311 311 312 312 313 315 317 318 317 318 318 320 321 323 323 323 323 323 320 318 319 318 320 322 322 324 324 325 327 329 328 329 330 329 331 331 331 330 329 329 329 330 329
309 309 310 310 310 309 311 311 310 314 315 316 317 319 320 321 321 321 320 317 316 317 316 318 319 319 322 324 325 327 327 327 327 327 328 331 332 329 329 329 330 329 330
307 307 308 308 309 309 310 311 310 310 310 310 311 312 314 316 318 320 319 318 317 316 315 316 316 318 319 320 324 324 325 325 326 326 327 330 330 328 329 330 330 330 331
306 306 307 307 307 307 308 308 308 308 308 309 309 309 310 310 311 314 316 318 318 316 316 317 316 317 318 319 321 323 324 324 324 325 325 329 329 328 329 331 330 330 330
306 306 306 306 306 306 306 306 306 306 306 306 307 308 309 309 309 310 311 314 317 318 317 317 317 317 317 317 317 320 324 323 324 325 326 327 326 329 330 331 330 330 332
305 305 305 305 305 304 304 305 305 306 306 306 307 307 307 308 307 308 309 312 314 316 317 317 317 317 317 315 316 318 320 323 323 324 326 326 325 330 330 331 331 331 331
304 304 304 303 303 303 303 304 304 305 305 305 305 305 305 306 306 307 307 308 311 313 314 315 315 315 314 315 316 318 319 321 322 323 325 327 329 329 329 329 329 329 326
303 303 302 302 302 303 303 303 303 303 302 302 302 302 303 304 304 303 304 305 307 310 311 312 312 312 311 311 313 314 318 320 319 321 322 325 328 328 326 325 323 323 322
302 301 301 301 301 302 301 300 299 299 300 300 300 300 300 301 301 302 302 302 304 306 309 310 310 310 309 309 309 310 313 319 319 319 322 323 325 325 323 323 323 320 321
300 299 299 300 298 298 296 296 297 297 296 296 297 297 297 299 299 299 299 302 303 306 307 308 308 307 307 309 310 311 313 319 321 321 320 322 324 323 320 321 320 319 320
298 298 298 296 294 295 295 295 295 294 295 294 295 296 296 297 298 299 299 300 304 306 308 308 308 307 307 307 309 313 315 318 320 322 321 322 321 316 317 319 320 320 321
296 296 294 293 293 294 293 293 293 293 293 293 294 295 296 297 298 299 300 300 302 304 306 307 307 306 307 310 313 314 314 317 320 322 321 321 320 317 318 320 320 321 322
294 292 292 292 292 292 292 292 292 292 292 292 294 295 295 296 296 299 303 304 303 304 305 306 305 306 309 309 315 317 317 317 320 321 319 320 320 319 321 319 319 318 318
291 291 291 291 291 291 291 292 292 292 293 293 294 295 296 296 297 299 304 304 304 304 304 304 305 306 307 307 316 314 311 316 317 318 318 319 319 320 320 320 321 322 324
290 290 290 289 289 290 290 291 291 292 293 293 294 294 295 296 298 299 299 299 302 304 305 307 308 308 309 312 314 313 313 316 317 318 319 319 320 321 322 323 324 324 325
288 288 288 288 288 289 290 290 291 291 292 292 292 292 293 295 295 296 298 298 301 303 304 308 310 311 313 315 316 314 314 316 316 316 318 320 321 323 323 323 324 325 325
286 286 287 288 288 289 290 291 292 293 293 293 293 292 292 293 293 294 295 297 299 300 303 309 312 315 315 315 316 315 312 316 317 318 321 322 322 324 323 323 324 325 325
286 287 287 288 289 290 291 292 292 293 294 294 294 293 293 294 293 293 295 296 299 302 305 306 308 315 314 313 315 317 318 317 321 321 322 323 324 324 324 324 324 325 325
286 286 287 288 289 290 291 293 294 294 294 294 294 294 294 295 294 294 295 296 301 306 306 307 310 314 316 314 316 318 320 319 320 322 323 324 324 324 324 324 324 324 324
285 286 288 289 291 293 297 300 301 298 296 295 293 293 294 295 295 295 295 298 299 303 308 308 312 314 315 317 317 317 321 319 320 321 321 323 323 324 324 324 324 322 323
286 287 289 292 295 296 298 298 301 298 298 295 293 294 294 296 297 297 298 299 300 301 307 309 311 313 315 316 317 318 321 321 322 322 322 323 323 323 322 322 324 324 323
287 289 291 293 294 295 295 297 301 298 297 295 294 295 295 295 298 297 298 300 300 301 304 308 310 309 313 316 316 317 321 322 322 322 322 322 322 322 322 323 324 324 324
287 289 290 291 292 293 294 295 297 300 298 296 296 296 295 296 297 299 299 301 302 302 302 305 305 309 307 312 314 318 320 321 322 322 322 322 322 323 323 323 324 324 324
286 287 288 289 290 291 292 293 294 295 298 299 297 297 297 297 298 298 299 301 303 303 302 302 303 307 308 308 309 313 317 320 321 322 322 322 323 323 324 324 324 324 323
285 286 286 287 288 289 290 290 292 293 294 297 300 299 298 298 299 300 300 301 303 303 303 303 303 305 306 308 309 311 315 316 318 320 321 323 324 323 324 324 324 323 318
284 284 285 286 286 287 288 288 289 290 291 292 295 300 299 299 300 300 300 300 302 304 304 304 304 305 307 307 307 309 313 316 315 316 320 321 322 322 323 323 323 322 318

GFSGL_925_thetae_129.txt.gz
Theta_e
320 320 320 321 321 321 321 321 322 323 325 326 326 326 327 329 329 330 329 330 328 328 328 326 325 326 324 322 321 320 320 320 325 322 323 324 327 330 331 333 335 335 335
317 317 317 317 318 318 319 319 319 320 320 320 320 321 322 323 325 327 328 328 328 328 328 327 326 327 325 324 323 322 322 321 322 326 323 324 325 326 327 329 332 331 332
316 316 316 316 317 317 317 317 317 317 316 316 316 317 317 318 318 320 322 324 326 327 327 327 327 325 325 325 324 323 322 321 321 322 323 323 323 324 326 328 329 331 333
315 315 314 314 314 314 314 314 314 314 314 313 313 313 313 313 313 314 315 317 319 321 323 325 325 325 325 324 323 323 323 323 321 322 322 322 322 324 325 328 329 330 331
314 313 313 313 312 312 312 312 312 312 312 312 312 312 312 312 312 312 313 314 315 316 316 318 321 323 323 323 323 322 322 321 322 321 321 321 322 323 325 325 328 330 331
313 313 312 311 311 310 310 310 310 310 310 310 310 311 311 312 311 311 311 311 312 313 314 314 316 318 316 316 320 320 319 320 321 321 319 318 321 322 323 325 328 330 335
312 311 310 310 309 309 309 308 308 309 310 310 310 311 311 310 310 308 307 307 307 308 310 311 313 313 313 314 317 318 318 318 317 318 319 319 318 319 321 326 328 329 332
311 310 309 308 308 307 307 307 308 308 309 308 307 306 306 304 303 303 303 303 302 303 303 305 307 309 311 312 314 315 317 318 317 317 317 317 317 318 322 325 326 326 326
309 308 307 306 306 306 306 306 306 304 304 303 301 299 298 298 300 300 300 298 299 300 300 300 301 303 304 306 306 307 313 316 317 317 317 316 316 316 315 320 324 324 326
307 306 306 306 305 304 303 302 301 300 297 296 297 297 298 299 300 299 299 299 298 299 299 300 301 302 302 302 304 305 311 314 314 314 314 314 314 312 313 317 321 324 327
305 305 303 302 300 300 299 297 294 294 294 294 295 295 297 298 298 298 297 296 297 298 298 299 299 300 301 302 304 305 309 312 312 312 312 313 314 317 320 322 321 323 323
302 300 299 298 298 294 293 293 293 293 293 294 294 295 296 297 297 297 297 297 297 297 299 300 299 299 301 305 306 306 305 310 310 312 312 312 316 317 321 323 324 323 323
298 297 296 293 292 292 293 293 293 292 293 293 294 295 295 296 298 298 298 298 298 298 298 298 298 299 301 303 307 307 307 308 309 310 310 313 315 319 322 322 319 321 322
294 293 290 291 292 291 292 292 292 292 292 293 294 295 295 296 297 297 297 299 299 298 297 299 299 300 302 305 306 307 307 308 309 311 312 315 317 320 321 320 319 319 318
289 289 290 290 290 290 291 291 291 291 292 293 294 294 294 295 296 296 296 297 296 295 295 298 303 303 304 306 308 309 310 311 310 310 314 317 319 319 319 320 317 315 317
289 289 288 288 288 289 290 291 291 292 293 293 293 293 292 293 293 293 293 293 294 294 294 297 305 306 308 309 309 311 312 312 312 315 317 319 320 320 316 317 317 316 317
286 287 287 288 288 290 290 291 291 292 293 294 295 296 296 296 295 293 292 292 293 293 295 299 304 307 309 309 312 313 314 315 316 317 318 319 320 320 314 315 317 318 320
286 287 287 287 288 289 290 291 292 292 294 295 297 299 298 297 295 294 292 292 293 295 295 300 304 306 309 311 314 314 315 317 317 318 318 319 317 318 318 319 320 321 323
285 286 287 287 288 290 291 292 294 296 298 298 300 298 297 295 295 294 293 293 295 298 302 302 305 307 309 313 316 317 317 317 318 318 319 319 317 318 320 321 323 325 324
286 287 288 289 290 291 293 295 296 296 297 298 300 298 296 296 296 295 294 294 297 301 300 303 308 308 309 314 316 316 315 317 318 319 320 319 317 320 322 322 323 324 325
286 288 288 290 291 292 294 293 294 295 295 296 299 298 296 294 297 298 297 297 300 301 305 308 309 311 312 314 315 315 316 316 318 319 319 318 320 322 321 325 325 323 323
287 288 288 289 290 292 291 292 292 293 294 295 297 299 297 297 298 299 299 299 301 303 305 307 309 312 313 315 316 315 316 317 317 314 315 316 322 325 323 324 324 325 324
286 287 287 287 288 289 289 290 290 291 292 293 295 298 298 299 299 299 301 301 303 305 304 306 309 313 314 315 317 317 316 318 319 319 320 324 323 323 323 324 325 324 323
286 287 286 286 286 287 288 288 288 289 290 291 292 294 299 299 300 299 300 302 304 303 304 305 308 312 315 314 315 316 316 315 317 317 319 323 323 323 323 322 323 323 323
286 286 286 286 285 286 287 287 288 288 289 289 290 292 294 300 300 300 302 302 304 304 304 306 309 312 314 315 315 314 315 316 318 320 322 323 323 323 322 322 323 323 324
285 285 285 285 285 285 285 286 286 286 287 288 288 290 291 295 301 301 301 303 304 305 305 307 310 310 313 314 312 312 315 316 319 320 322 323 323 322 322 322 323 324 324

GFSGL_925_thetae_132.txt.gz
Theta_e
321 320 320 320 320 320 320 321 322 322 322 322 323 324 325 327 328 330 331 331 331 331 330 329 328 327 328 327 325 323 323 322 323 323 322 322 322 321 321 320 322 328 330
318 318 318 318 318 319 320 320 320 320 320 320 320 321 321 321 322 324 327 328 330 330 330 329 328 327 328 327 326 325 324 323 323 322 322 321 320 321 325 327 326 324 328
317 317 317 317 317 317 317 318 318 318 318 318 318 317 317 317 318 318 319 320 323 327 327 327 327 327 327 326 326 327 327 326 324 323 324 322 320 319 320 320 322 325 325
317 316 316 316 316 315 314 315 315 316 315 315 315 315 315 315 315 315 315 315 315 316 317 319 323 325 325 325 325 325 325 324 324 324 322 320 319 320 321 323 325 325 327
316 316 316 315 315 314 314 313 313 313 313 313 313 313 313 313 313 312 312 312 312 313 313 314 315 316 317 317 322 323 323 323 323 322 322 322 321 319 324 324 323 323 324
315 315 314 313 313 313 312 312 312 312 312 313 313 312 312 312 312 313 311 309 308 309 311 311 312 313 314 314 314 315 318 321 321 321 320 321 321 320 319 320 323 324 324
314 313 313 312 311 310 310 310 310 310 310 310 311 311 311 310 309 308 308 306 304 304 305 306 306 307 308 310 312 313 314 316 317 317 319 320 320 319 318 319 320 321 323
313 312 311 310 309 309 308 308 309 308 307 306 306 306 306 305 304 304 304 302 301 302 302 302 303 303 304 305 307 308 309 311 312 315 317 317 318 318 318 318 318 319 322
311 310 309 308 308 308 307 305 304 303 303 303 302 301 299 298 298 298 299 300 301 301 300 300 300 301 302 302 302 303 305 306 307 308 311 317 318 318 317 317 318 319 319
309 308 307 306 304 303 302 301 301 300 298 296 295 296 296 296 297 297 297 300 300 300 300 300 300 299 299 299 301 301 303 304 304 306 311 315 317 316 315 315 315 317 319
306 304 303 301 300 299 299 296 294 294 294 294 295 294 294 295 295 296 297 297 298 298 298 298 299 299 299 299 299 299 300 301 303 306 309 314 314 314 314 314 316 318 320
301 300 299 297 297 295 292 292 293 294 294 294 294 294 294 295 296 297 297 297 297 297 297 298 299 299 299 300 300 299 299 302 303 305 310 313 313 313 314 315 318 318 321
298 297 296 294 291 291 292 293 292 293 293 293 293 294 294 295 296 296 297 298 298 297 297 298 298 298 298 299 298 299 300 302 303 305 309 312 312 312 313 315 316 317 321
294 293 290 290 291 292 291 291 291 293 293 293 293 294 294 295 296 296 297 298 297 298 298 297 297 298 299 299 299 301 303 304 306 307 309 310 310 311 313 313 319 321 321
290 288 288 290 289 289 289 290 291 292 292 292 292 293 293 294 294 295 295 296 297 296 295 294 296 297 302 301 302 303 306 306 308 309 310 311 312 315 316 316 320 320 319
287 287 287 287 288 288 289 290 291 292 292 293 293 293 293 293 294 294 294 293 293 293 293 294 295 297 304 304 305 307 308 309 309 310 311 312 313 315 317 320 319 316 317
286 286 287 287 287 288 289 290 291 292 293 294 295 296 297 297 297 297 296 294 293 292 292 293 295 298 304 307 308 309 310 311 312 313 313 314 316 318 317 319 317 316 315
286 287 287 287 288 288 289 290 291 292 293 295 297 297 299 298 296 295 295 293 292 292 293 295 297 299 304 306 309 310 312 313 314 315 316 316 318 318 317 318 317 316 315
286 286 287 288 289 290 290 292 293 295 295 296 296 297 299 297 296 296 294 292 293 294 296 298 299 302 304 306 307 311 314 315 315 317 317 318 318 319 316 316 317 317 318
286 287 288 289 289 290 292 294 293 293 294 294 295 296 299 297 297 297 295 294 294 296 298 302 303 303 305 308 310 313 315 317 317 317 318 318 319 319 317 316 317 318 319
286 287 288 288 288 289 292 291 291 292 292 293 293 294 297 296 297 297 298 297 297 298 301 303 306 308 312 312 313 316 316 317 317 319 319 319 319 318 319 319 320 320 321
286 287 288 287 288 288 288 289 289 289 290 291 292 293 295 298 299 299 300 299 299 301 303 305 305 307 312 315 315 315 316 317 316 317 319 319 318 318 319 317 319 318 320
287 287 287 287 287 287 288 288 288 289 289 290 290 292 294 297 300 300 301 302 302 303 305 305 305 310 313 313 316 316 316 318 316 318 318 317 317 318 318 318 319 324 324
286 286 287 286 285 286 286 286 287 287 288 288 289 290 291 293 299 301 301 302 303 304 304 304 306 310 313 314 315 316 316 317 317 317 315 316 316 319 319 321 323 325 323
286 286 286 285 285 285 285 285 285 286 286 287 287 288 289 291 294 298 302 303 304 304 304 305 307 311 315 314 314 315 315 315 316 316 316 317 317 318 320 322 324 323 323
288 287 286 286 285 285 285 285 285 285 285 285 286 286 287 289 291 293 299 303 305 305 305 305 308 310 313 313 312 313 314 315 316 317 317 319 320 324 323 325 324 323 323

GFSGL_925_thetae_135.txt.gz
Theta_e
319 318 318 318 318 318 318 318 318 319 319 319 319 319 319 320 321 322 324 325 327 330 330 330 330 328 328 328 327 328 327 325 321 322 321 321 321 319 318 318 318 322 323
317 317 317 317 317 316 316 316 316 317 316 317 316 317 317 317 317 317 318 318 320 322 327 328 329 327 327 326 326 326 326 326 323 322 322 321 321 320 319 323 322 324 324
317 316 316 316 316 315 314 314 314 314 314 314 315 315 315 315 315 315 315 315 315 315 316 318 321 325 326 326 326 325 325 325 325 323 323 322 322 322 321 318 318 316 319
316 316 316 315 314 314 313 313 312 313 313 313 313 312 313 312 312 313 313 313 313 313 313 313 313 314 314 315 315 317 321 324 323 323 323 323 323 322 320 319 320 321 325
315 315 314 313 313 312 312 312 311 311 312 313 313 313 313 313 313 312 312 310 310 309 310 310 310 311 311 311 312 313 313 315 319 321 321 321 321 320 320 320 320 322 321
314 314 313 313 312 311 310 310 309 309 310 309 309 310 310 310 311 310 309 308 306 305 304 305 306 306 307 308 308 309 310 311 313 315 319 319 319 319 320 320 320 321 317
313 313 312 312 311 310 308 308 307 306 305 305 304 304 304 305 305 305 305 304 301 300 301 301 302 304 305 305 305 305 306 307 310 313 313 315 318 319 319 319 319 318 318
313 312 310 309 307 306 305 304 303 302 301 301 301 301 301 301 300 300 300 299 298 299 300 301 302 302 301 301 302 303 303 304 305 308 310 312 313 313 317 318 318 318 318
310 308 306 304 303 302 301 300 300 299 299 298 298 297 297 297 297 297 296 296 297 298 298 300 301 300 300 300 301 301 300 300 301 303 306 307 308 311 312 317 318 317 315
303 303 302 301 300 299 298 298 297 296 295 295 295 295 295 295 296 295 295 296 296 296 299 299 299 300 299 299 299 299 299 300 301 302 303 304 305 307 309 314 316 316 316
300 299 299 298 297 296 296 295 293 293 293 294 294 295 295 295 295 295 295 295 295 297 298 298 298 298 298 299 299 299 299 299 299 300 300 302 303 305 310 312 315 314 315
296 295 295 294 294 292 291 291 292 292 293 293 294 294 294 294 294 295 296 296 297 296 297 297 298 298 298 299 299 299 299 299 299 299 301 302 304 308 311 312 313 314 313
293 292 292 290 289 290 291 291 292 291 292 293 293 294 294 294 294 295 296 296 296 297 298 298 297 297 298 298 298 299 299 298 298 300 301 304 306 309 312 313 313 314 316
290 289 288 288 289 289 288 289 290 290 291 292 293 293 293 293 294 294 295 296 296 297 297 298 297 296 297 297 298 300 299 298 299 302 303 305 305 309 311 311 312 313 314
287 287 287 287 287 288 288 289 289 290 291 291 292 292 292 293 293 295 295 294 294 295 294 294 294 295 296 297 300 301 301 302 304 305 306 307 308 310 311 312 313 314 316
286 286 286 287 287 288 288 289 289 290 291 292 292 293 293 294 295 296 296 296 295 294 292 293 293 294 295 297 300 304 304 305 307 307 308 309 310 311 312 312 315 316 319
286 286 287 287 287 287 288 289 290 291 292 293 295 296 296 296 298 297 296 295 294 293 292 292 293 293 295 298 300 306 307 307 307 308 308 309 310 311 312 314 316 317 316
286 286 287 287 288 288 289 290 291 292 293 294 294 294 295 296 298 297 296 295 293 292 292 292 293 295 297 299 302 305 307 309 310 311 311 311 312 313 315 318 317 315 315
286 286 287 288 288 289 290 291 292 293 292 293 293 293 294 295 296 297 297 295 293 293 294 295 295 296 298 300 303 305 307 308 313 313 313 313 314 316 315 316 317 315 315
286 287 287 288 288 288 289 290 290 290 290 291 291 292 292 293 295 297 298 297 295 295 296 297 299 301 302 303 305 308 309 311 314 314 315 315 316 317 316 316 316 315 316
286 287 287 287 288 288 288 288 289 289 289 290 290 290 291 292 296 298 299 299 298 298 299 300 303 305 306 307 312 313 314 316 316 316 316 317 317 317 315 316 316 317 318
286 287 287 286 286 286 287 287 287 288 288 288 289 289 290 293 295 298 300 301 301 301 303 304 304 305 307 313 315 316 315 316 316 317 318 318 318 317 317 316 317 317 318
287 287 286 286 286 286 286 286 286 286 286 287 287 288 289 290 293 295 300 301 302 304 304 304 305 307 313 315 316 316 317 317 317 317 317 318 318 318 318 318 318 318 319
288 287 287 286 286 286 286 286 286 285 285 286 286 287 287 288 290 292 295 300 302 304 304 305 306 307 313 312 314 315 316 317 317 317 317 317 317 317 316 318 318 318 319
288 288 288 287 287 286 286 286 286 285 285 285 285 285 286 287 288 290 293 297 301 303 305 306 306 307 313 311 311 313 315 316 316 315 315 315 316 316 316 316 316 319 317
288 287 287 287 287 286 286 286 286 286 285 284 284 284 285 285 286 288 290 293 297 301 304 306 307 309 311 310 310 312 315 315 315 315 316 316 316 315 316 315 320 319 313

GFSGL_925_thetae_138.txt.gz
Theta_e
318 317 316 316 315 315 315 314 314 313 313 313 313 313 313 313 314 314 315 315 316 315 316 317 321 325 328 328 328 327 327 326 322 324 323 323 321 321 321 321 320 319 319
316 316 316 315 315 315 314 313 312 312 312 312 313 313 313 313 313 314 314 314 314 314 314 314 315 318 322 325 326 326 326 326 324 323 323 322 322 323 323 323 323 321 320
316 316 315 315 314 313 312 312 311 311 311 312 313 314 313 313 313 313 312 312 313 313 313 313 313 313 313 314 317 319 321 322 323 323 323 323 323 323 323 323 322 320 318
316 315 314 314 313 313 312 311 310 310 310 309 309 309 309 310 310 311 311 310 310 309 309 310 310 310 310 311 311 311 312 313 314 319 321 322 322 322 322 322 321 320 320
314 313 313 313 312 312 310 309 309 308 307 307 307 307 306 306 307 307 307 307 307 307 307 307 307 307 308 308 308 308 308 309 311 314 315 319 320 320 319 320 320 320 320
313 313 313 312 311 309 308 307 306 306 305 305 304 303 302 302 302 302 302 302 303 303 302 302 302 302 303 304 305 305 306 307 308 309 310 313 315 317 319 319 319 318 315
313 312 310 308 307 306 305 305 304 303 302 302 301 300 299 299 299 299 299 299 299 298 298 298 299 300 301 302 303 303 304 304 304 305 306 308 311 314 315 317 317 318 318
307 305 304 304 303 302 302 301 300 299 298 297 297 296 296 296 296 296 297 296 296 296 296 298 299 300 301 302 302 301 301 301 302 303 304 307 308 310 314 315 314 314 317
302 301 300 299 298 298 297 297 296 295 294 294 294 295 295 296 296 296 296 295 295 295 297 298 297 298 301 301 300 300 300 300 300 300 300 300 302 305 307 306 308 314 315
298 297 297 296 295 294 294 293 292 292 292 293 294 294 294 295 295 295 295 295 295 295 296 296 297 298 298 299 299 299 299 299 299 299 300 301 302 303 304 305 306 310 315
295 294 293 293 292 291 290 290 291 292 292 293 293 293 294 294 295 295 294 294 295 295 296 297 297 298 298 298 298 298 298 299 299 299 299 300 300 300 300 302 305 308 311
292 291 290 290 289 289 289 290 291 291 291 292 292 293 294 294 294 294 294 294 295 295 296 297 297 297 298 298 298 298 298 298 298 298 299 300 300 301 302 303 304 309 311
289 288 288 287 288 289 289 289 289 290 290 291 291 292 293 293 294 294 294 295 295 296 296 297 297 297 297 297 297 298 298 297 298 298 299 299 300 301 303 305 308 309 312
287 286 286 287 288 288 288 288 289 289 290 290 291 292 292 293 293 294 294 295 295 295 296 296 296 296 295 295 296 297 297 299 299 299 299 299 300 302 304 306 310 312 313
285 285 287 287 287 287 288 288 288 289 290 290 291 291 292 292 293 294 294 294 294 294 293 293 293 294 294 294 295 296 297 301 300 300 300 302 304 305 306 306 311 312 314
285 286 286 287 287 288 288 288 289 290 291 292 292 292 293 293 294 295 296 297 296 295 293 293 293 293 293 294 295 296 298 302 303 303 305 306 307 308 310 311 312 312 312
286 286 286 287 287 288 288 289 290 291 292 293 293 292 293 293 294 295 297 297 296 294 292 292 292 293 293 294 295 297 300 305 306 307 307 308 308 308 310 311 312 314 314
286 286 287 287 288 288 289 289 290 291 292 291 291 291 292 292 294 297 298 297 296 294 293 292 292 293 294 296 297 299 301 303 305 308 308 309 309 309 311 311 312 315 316
286 286 287 288 288 289 288 289 289 289 290 290 290 290 291 291 296 298 298 298 296 295 295 296 296 296 297 297 298 299 301 304 307 308 312 311 311 311 313 314 316 315 315
286 287 287 287 287 287 287 288 288 289 289 289 289 289 289 290 292 296 298 299 299 298 298 298 298 299 300 301 303 304 305 306 309 311 313 312 313 314 315 316 316 313 314
287 287 287 287 286 286 286 287 287 287 287 287 288 288 288 289 292 294 296 299 300 300 301 301 302 304 305 305 306 308 309 311 313 315 314 314 315 316 316 315 315 314 316
288 287 287 287 287 286 286 286 286 286 286 286 286 287 287 288 290 291 293 295 299 301 303 304 304 305 306 308 310 312 315 315 315 316 316 316 316 316 316 316 316 316 316
288 288 288 287 287 286 286 286 286 286 285 285 285 286 286 287 288 289 291 293 296 299 303 305 306 306 310 310 313 314 315 316 315 315 317 317 317 315 315 316 316 317 315
287 287 287 287 287 287 286 286 286 286 286 285 285 285 285 286 286 287 289 291 294 298 301 302 305 306 310 310 312 315 316 317 318 316 316 317 317 316 316 317 318 318 315
286 286 286 286 286 286 286 286 286 286 285 285 285 284 284 285 285 286 288 290 292 295 298 301 303 307 310 308 311 314 315 315 317 317 317 317 317 316 316 317 317 316 309
285 285 285 285 284 284 285 285 285 285 285 285 285 285 284 284 284 285 286 288 291 294 297 300 303 306 307 307 308 310 315 315 315 315 315 315 316 316 316 316 315 318 308